GFSSGP_con_sbcape_000.txt.gz
CAPE
173 0 0 0 0 0 0 0 0 0 0 0 0 0 0 0 0 0 0 12 99 685 1072 1303 1527 1075 955 501 58 17 0 0 0 0 6 7 9 26 30 25 22 14 0 0 0 0 0 0 0
286 0 0 0 0 0 0 0 0 0 0 0 0 0 0 0 0 0 4 120 414 915 1126 1130 1690 1341 1032 365 61 22 0 0 0 0 4 11 22 28 18 29 12 1 0 0 0 0 0 0 0
0 0 0 0 0 0 0 0 0 0 0 0 0 0 0 0 0 0 0 192 530 870 958 1235 1866 1797 1319 475 81 33 6 0 0 0 2 24 31 48 30 35 9 0 0 0 0 0 0 0 0
0 0 0 0 0 0 0 0 0 0 0 0 0 0 0 0 0 0 0 227 342 487 723 1570 1956 1880 1577 887 144 71 30 0 0 0 0 15 69 119 93 27 48 15 0 0 0 0 0 0 0
0 0 0 0 0 0 0 0 0 0 0 0 0 0 0 0 0 0 0 167 230 284 713 1732 1945 2022 1406 846 448 143 38 21 0 0 0 17 53 107 238 101 79 14 0 0 0 0 0 0 4
0 0 0 0 0 0 0 0 0 0 0 0 0 0 0 0 4 0 0 10 664 705 1262 1542 2011 1699 1291 1090 887 550 177 39 4 6 5 18 10 60 181 121 59 14 6 0 7 8 10 0 0
0 0 0 0 0 0 0 0 0 0 0 0 0 0 0 0 0 0 0 12 1008 1190 1469 1438 1544 1343 1443 1379 1130 865 628 312 105 37 16 46 27 12 61 286 112 51 19 19 30 29 4 6 9
0 0 0 0 0 0 0 0 0 0 0 0 0 0 0 0 0 0 0 223 987 1305 1330 1152 1020 1103 871 1082 992 809 769 552 404 203 129 102 44 35 46 198 132 76 77 81 23 7 17 26 30
0 0 0 0 0 0 0 0 0 0 0 0 0 0 0 0 0 6 11 3 390 889 879 998 811 751 711 530 627 551 499 455 349 144 69 32 0 0 1 30 58 174 83 63 87 96 141 277 162
0 0 0 0 0 0 0 0 0 0 0 0 0 0 0 0 0 0 46 99 82 221 351 475 562 431 539 497 273 231 183 172 86 50 16 2 0 0 0 3 48 112 171 246 229 249 429 296 7
0 0 0 0 0 0 0 0 0 0 0 0 0 0 0 0 0 0 0 49 161 170 179 287 394 346 401 290 152 75 56 49 27 20 9 5 0 0 0 0 0 0 0 0 1 0 0 0 1
0 0 0 0 0 0 0 0 0 0 0 0 0 0 0 0 0 0 0 0 9 101 215 165 318 324 258 191 126 32 18 9 5 11 11 0 0 0 0 0 0 0 0 2 9 1 0 0 0
0 0 0 0 0 0 0 0 0 0 0 0 0 0 0 0 0 0 0 0 0 47 227 208 214 276 136 144 37 4 0 6 0 0 0 0 0 4 0 0 0 0 0 0 0 0 0 0 0
0 1 0 0 0 0 0 0 0 0 0 0 0 0 0 0 0 0 0 0 0 4 182 172 252 216 116 76 43 18 0 0 0 0 0 0 0 0 0 0 0 0 0 0 0 0 0 0 0
0 0 0 0 0 0 0 0 0 0 0 0 0 0 0 0 0 0 0 0 0 0 37 157 250 200 181 126 39 0 0 0 0 0 0 0 0 0 0 0 0 0 0 0 0 0 0 0 0
0 0 4 0 0 0 6 0 0 0 0 0 0 0 0 0 0 0 0 0 0 0 0 0 265 183 157 107 5 0 0 0 0 0 0 0 0 0 0 0 0 0 0 0 0 0 0 0 0
3 4 0 5 1 10 5 0 0 0 0 0 0 0 0 0 0 0 0 0 0 0 0 0 123 121 32 0 0 0 0 0 0 0 0 0 0 0 0 0 0 0 0 0 0 0 0 0 0
8 12 0 0 6 18 0 0 0 0 0 0 0 0 0 0 0 0 0 0 0 0 0 0 39 0 0 0 0 0 0 0 0 0 0 0 0 0 0 0 0 0 0 0 0 0 0 0 0
0 1 0 0 2 0 0 0 0 0 0 0 0 0 0 0 0 0 0 0 0 0 0 0 0 0 0 0 0 0 0 0 0 0 0 0 0 0 0 0 0 0 0 0 0 0 0 0 0
0 0 0 0 0 0 1 0 0 0 0 0 0 0 0 0 0 0 0 0 0 0 0 0 0 0 0 0 0 0 0 0 0 0 0 0 0 0 0 0 0 0 0 0 0 0 0 0 0
0 0 0 0 0 0 0 0 0 0 0 0 0 0 0 0 0 0 0 0 0 0 0 0 0 0 0 0 0 0 0 0 0 0 0 0 0 0 0 0 0 0 0 0 0 0 0 0 0
1 0 0 0 32 0 65 4 0 0 0 0 0 0 0 0 0 0 0 0 0 0 0 0 0 0 0 0 0 0 0 0 0 0 0 0 0 0 0 0 0 0 0 0 0 0 0 0 0
0 0 0 11 15 22 0 15 0 0 0 0 0 0 0 0 0 0 0 0 0 0 0 0 0 0 0 0 0 0 0 0 0 0 0 0 0 0 0 0 0 0 0 0 0 0 0 0 0
15 5 5 15 42 16 0 28 0 0 0 0 0 0 0 0 0 0 0 0 0 0 0 0 0 0 0 0 0 0 0 0 0 0 0 0 0 0 0 0 0 0 0 0 0 0 0 0 0
11 25 41 29 22 8 2 0 0 0 0 0 0 0 0 0 0 0 0 0 0 0 0 0 0 0 0 0 0 0 0 0 0 0 0 0 0 0 0 0 0 0 0 0 0 0 0 0 0
0 1 15 3 2 0 57 4 0 0 0 0 0 0 0 0 0 0 0 0 0 0 0 0 0 0 0 0 0 0 0 0 0 0 0 0 0 0 0 0 0 0 0 0 0 0 0 0 0
0 16 0 6 15 23 3 0 0 0 0 0 0 0 0 0 0 0 0 0 0 0 0 0 0 0 0 0 0 0 0 0 0 0 0 0 0 0 0 0 0 0 0 0 0 0 0 0 0
5 0 3 20 9 22 10 0 0 0 0 0 0 0 0 0 0 0 0 0 0 0 0 0 0 0 0 0 0 0 0 0 0 0 0 0 0 0 0 0 0 0 0 0 0 0 0 0 0
19 25 21 0 9 42 29 0 0 0 0 0 0 0 0 0 0 0 0 0 0 0 0 0 0 0 0 0 0 0 0 0 0 0 0 0 0 0 0 0 0 0 0 0 0 0 0 0 0
1 0 0 4 0 7 2 0 0 0 0 0 0 0 0 0 0 0 0 0 0 0 0 0 0 0 0 0 0 0 0 0 0 0 0 0 0 0 0 0 0 0 0 0 0 0 0 0 0

GFSSGP_con_sbcape_003.txt.gz
CAPE
370 0 0 0 0 0 0 0 0 0 0 0 0 0 0 0 0 0 0 18 88 305 1070 1591 1926 1269 583 263 51 4 0 0 0 0 2 9 10 24 23 31 22 0 0 0 0 0 0 0 0
3 0 0 0 0 0 0 0 0 0 0 0 0 0 0 0 2 1 47 52 307 814 1224 1157 1877 1152 849 437 67 27 0 0 0 0 11 19 33 39 22 25 3 0 0 0 0 0 0 0 0
0 0 0 0 0 0 0 0 0 0 0 0 0 0 0 1 17 0 0 232 795 960 1123 1066 1740 1429 1175 476 94 34 3 0 0 0 12 31 23 43 48 10 0 0 0 0 0 0 0 0 0
0 0 0 0 0 0 0 0 0 0 0 0 0 0 0 0 0 4 51 430 718 842 953 1464 1866 1804 1446 830 160 57 4 1 0 0 0 16 57 89 43 50 88 26 0 0 0 0 0 0 1
0 0 0 0 0 0 0 0 0 0 0 0 0 0 0 0 0 0 268 416 434 589 762 1694 2174 2044 1632 957 384 98 23 1 0 0 0 10 42 61 113 128 47 20 0 0 0 0 0 1 0
0 0 0 0 0 0 0 0 0 0 0 0 0 0 0 0 12 0 166 283 305 499 999 1856 2023 1992 1639 1103 709 385 51 9 0 0 0 14 7 46 137 106 73 20 3 1 0 8 12 18 7
0 0 0 0 0 0 0 0 0 0 0 0 0 0 0 0 0 0 10 184 543 675 1306 1520 1647 1642 1235 1025 843 585 308 175 20 24 9 11 24 6 58 218 106 66 38 21 35 62 16 7 26
0 0 0 0 0 0 0 0 0 0 0 0 0 0 0 0 0 0 0 423 958 1221 1359 1389 1387 1104 965 907 911 777 612 379 276 107 46 57 26 21 29 198 122 100 92 116 82 39 66 112 121
0 0 0 0 0 0 0 0 0 0 0 0 0 0 0 0 0 10 0 492 1103 1366 1331 1260 1063 956 701 752 675 685 675 447 341 125 47 11 0 0 0 20 44 112 176 111 146 213 261 377 263
0 0 0 0 0 0 0 0 0 0 0 0 0 0 0 0 0 23 5 178 794 1163 1006 1021 765 643 476 534 418 269 273 246 135 40 1 0 0 0 0 0 35 120 182 227 194 262 184 23 0
0 0 0 0 0 0 0 0 0 0 0 0 0 0 0 0 0 1 6 10 299 814 722 703 603 441 432 428 177 138 69 64 16 3 0 0 0 0 0 0 0 0 0 0 1 0 0 0 0
0 0 0 0 0 0 0 0 0 0 0 0 0 0 0 0 0 0 0 0 11 90 360 478 387 320 316 198 111 84 16 8 0 0 0 0 0 0 0 0 0 0 0 0 0 0 0 0 0
0 0 0 0 0 0 0 0 0 0 0 0 0 0 0 0 0 0 0 0 0 25 173 240 297 330 300 191 92 29 14 9 0 0 0 0 0 0 0 0 0 0 0 0 0 0 0 0 0
0 0 0 0 0 0 0 0 0 0 0 0 0 0 0 0 0 0 0 0 0 0 93 100 234 313 187 144 67 16 0 1 0 0 0 0 0 0 0 0 0 0 0 0 0 0 0 0 0
0 0 0 0 0 0 0 0 0 0 0 0 0 0 0 0 0 0 0 0 0 0 8 162 239 202 131 74 28 0 0 0 0 0 0 0 0 0 0 0 0 0 0 0 0 0 0 0 0
12 1 0 0 0 0 0 0 0 0 0 0 0 0 0 0 0 0 0 0 0 0 31 183 464 209 99 57 1 0 0 0 0 0 0 0 0 0 0 0 0 0 0 0 0 0 0 0 0
9 0 0 2 0 9 0 0 0 0 0 0 0 0 0 0 0 0 0 0 0 0 0 115 291 219 44 0 0 0 0 0 0 0 0 0 0 0 0 0 0 0 0 0 0 0 0 0 0
1 11 6 3 0 0 0 0 0 0 0 0 0 0 0 0 0 0 0 0 0 0 0 3 146 5 0 0 0 0 0 0 0 0 0 0 0 0 0 0 0 0 0 0 0 0 0 0 0
1 0 5 0 0 0 0 0 0 0 0 0 0 0 0 0 0 0 0 0 0 0 0 0 0 0 0 0 0 0 0 0 0 0 0 0 0 0 0 0 0 0 0 0 0 0 0 0 0
0 21 15 2 1 1 0 0 0 0 0 0 0 0 0 0 0 0 0 0 0 0 0 0 0 0 0 0 0 0 0 0 0 0 0 0 0 0 0 0 0 0 0 0 0 0 0 0 0
0 0 11 8 0 0 0 0 0 0 0 0 0 0 0 0 0 0 0 0 0 0 0 0 0 0 0 0 0 0 0 0 0 0 0 0 0 0 0 0 0 0 0 0 0 0 0 0 0
4 0 0 0 3 2 3 1 0 0 0 0 0 0 0 0 0 0 0 0 0 0 0 0 0 0 0 0 0 0 0 0 0 0 0 0 0 0 0 0 0 0 0 0 0 0 0 0 0
2 0 0 15 29 18 0 11 0 0 0 0 0 0 0 0 0 0 0 0 0 0 0 0 0 0 0 0 0 0 0 0 0 0 0 0 0 0 0 0 0 0 0 0 0 0 0 0 0
3 3 0 0 0 12 0 0 0 0 0 0 0 0 0 0 0 0 0 0 0 0 0 0 0 0 0 0 0 0 0 0 0 0 0 0 0 0 0 0 0 0 0 0 0 0 0 0 0
0 7 23 16 10 5 0 0 0 0 0 0 0 0 0 0 0 0 0 0 0 0 0 0 0 0 0 0 0 0 0 0 0 0 0 0 0 0 0 0 0 0 0 0 0 0 0 0 0
0 0 0 2 0 0 0 0 0 0 0 0 0 0 0 0 0 0 0 0 0 0 0 0 0 0 0 0 0 0 0 0 0 0 0 0 0 0 0 0 0 0 0 0 0 0 0 0 0
4 26 0 0 0 33 0 0 0 0 0 0 0 0 0 0 0 0 0 0 0 0 0 0 0 0 0 0 0 0 0 0 0 0 0 0 0 0 0 0 0 0 0 0 0 0 0 0 0
0 0 13 10 27 16 0 11 3 0 0 0 0 0 0 0 0 0 0 0 0 0 0 0 0 0 0 0 0 0 0 0 0 0 0 0 0 0 0 0 0 0 0 0 0 0 0 0 0
8 6 2 0 0 14 10 0 0 0 0 0 0 0 0 0 0 0 0 0 0 0 0 0 0 0 0 0 0 0 0 0 0 0 0 0 0 0 0 0 0 0 0 0 0 0 0 0 0
3 0 0 12 0 0 4 0 0 0 0 0 0 0 0 0 0 0 0 0 0 0 0 0 0 0 0 0 0 0 0 0 0 0 0 0 0 0 0 0 0 0 0 0 0 0 0 0 0

GFSSGP_con_sbcape_006.txt.gz
CAPE
25 0 0 0 0 0 0 0 0 0 0 0 0 0 0 0 0 0 0 8 41 49 189 1510 1774 1330 653 138 52 12 0 0 0 2 18 14 13 23 18 23 15 6 0 0 0 0 0 0 0
0 0 0 0 0 0 0 0 0 0 0 0 0 0 0 2 4 8 64 20 136 273 893 1337 1900 1235 689 299 92 22 0 0 0 0 5 27 21 38 30 38 2 0 0 0 0 0 0 0 0
0 0 0 0 0 0 0 0 0 0 0 0 0 0 0 2 23 6 2 75 496 934 1153 1226 1986 1438 1042 446 123 70 9 0 0 4 13 25 24 51 27 0 0 0 0 0 0 0 0 0 0
0 0 0 0 0 0 0 0 0 0 0 0 0 0 0 0 2 0 59 453 709 868 935 1395 1746 1557 1545 816 213 112 27 1 0 0 4 22 42 51 49 45 61 32 0 0 0 0 0 0 0
0 0 0 0 0 0 0 0 0 0 0 0 0 0 0 0 0 16 373 633 600 680 855 1444 1936 1725 1540 929 389 132 53 0 0 0 0 13 40 49 117 76 31 9 0 0 0 0 1 2 3
0 0 0 0 0 0 0 0 0 0 0 0 0 0 0 0 0 33 365 485 519 693 951 1527 1909 1992 1677 1200 712 340 80 8 0 0 0 5 18 35 166 145 73 28 0 7 0 8 19 10 2
0 0 0 0 0 0 0 0 0 0 0 0 0 0 0 0 0 3 234 286 424 647 1161 1576 1751 1788 1590 1220 849 595 259 95 0 18 9 12 20 0 41 168 89 59 51 16 35 44 20 31 60
0 0 0 0 0 0 0 0 0 0 0 0 0 0 0 0 0 0 19 387 503 781 1218 1376 1441 1432 1068 819 839 659 463 350 182 125 29 23 15 8 12 151 103 63 40 68 61 96 141 169 181
0 0 0 0 0 0 0 0 0 0 0 0 0 0 0 0 0 0 9 483 961 1117 1231 1425 1387 1071 757 660 675 712 581 357 262 60 20 4 0 0 0 0 2 22 67 68 108 215 219 39 3
0 0 0 0 0 0 0 0 0 0 0 0 0 0 0 0 0 0 0 159 887 1047 1050 1291 900 758 676 845 581 404 402 255 149 20 0 0 0 0 0 0 0 21 22 10 39 20 0 0 0
0 0 0 0 0 0 0 0 0 0 0 0 0 0 0 0 0 0 0 17 455 998 1119 1038 854 655 552 582 300 190 178 124 31 0 0 0 0 0 0 0 0 0 0 0 0 0 0 0 0
0 0 0 0 0 0 0 0 0 0 0 0 0 0 0 0 0 0 1 0 1 345 815 976 716 566 451 282 198 162 68 32 0 0 0 0 0 0 0 0 0 0 0 0 0 0 0 0 0
0 0 0 0 0 0 0 0 0 0 0 0 0 0 0 0 0 0 0 0 0 11 119 524 542 481 384 251 115 72 24 12 0 0 0 0 0 0 0 0 0 0 0 0 0 0 0 0 0
0 0 0 0 0 0 0 0 0 0 0 0 0 0 0 0 0 0 0 0 0 0 0 141 414 380 242 205 90 40 5 0 0 0 0 0 0 0 0 0 0 0 0 0 0 0 0 0 0
0 0 0 0 0 0 0 0 0 0 0 0 0 0 0 0 0 0 0 0 0 0 0 50 261 285 237 174 97 13 0 0 0 0 0 0 0 0 0 0 0 0 0 0 0 0 0 0 0
4 2 1 0 0 0 0 0 0 0 0 0 0 0 0 0 0 0 0 0 0 0 0 11 284 232 115 58 3 0 0 0 0 0 0 0 0 0 0 0 0 0 0 0 0 0 0 0 0
1 0 0 0 0 0 0 0 0 0 0 0 0 0 0 0 0 0 0 0 0 0 0 103 184 111 48 0 0 0 0 0 0 0 0 0 0 0 0 0 0 0 0 0 0 0 0 0 0
0 3 0 0 0 0 0 0 0 0 0 0 0 0 0 0 0 0 0 0 0 0 0 120 165 13 0 0 0 0 0 0 0 0 0 0 0 0 0 0 0 0 0 0 0 0 0 0 0
0 0 0 0 0 0 0 0 0 0 0 0 0 0 0 0 0 0 0 0 0 0 0 69 0 0 0 0 0 0 0 0 0 0 0 0 0 0 0 0 0 0 0 0 0 0 0 0 0
2 7 1 0 0 0 0 0 0 0 0 0 0 0 0 0 0 0 0 0 0 0 0 0 0 0 0 0 0 0 0 0 0 0 0 0 0 0 0 0 0 0 0 0 0 0 0 0 0
0 0 0 0 0 0 0 0 0 0 0 0 0 0 0 0 0 0 0 0 0 0 0 0 0 0 0 0 0 0 0 0 0 0 0 0 0 0 0 0 0 0 0 0 0 0 0 0 0
1 0 0 0 0 0 0 0 0 0 0 0 0 0 0 0 0 0 0 0 0 0 0 0 0 0 0 0 0 0 0 0 0 0 0 0 0 0 0 0 0 0 0 0 0 0 0 0 0
2 0 0 4 15 8 0 7 0 0 0 0 0 0 0 0 0 0 0 0 0 0 0 0 0 0 0 0 0 0 0 0 0 0 0 0 0 0 0 0 0 0 0 0 0 0 0 0 0
1 0 0 0 19 1 0 0 0 0 0 0 0 0 0 0 0 0 0 0 0 0 0 0 0 0 0 0 0 0 0 0 0 0 0 0 0 0 0 0 0 0 0 0 0 0 0 0 0
0 7 3 19 11 0 0 0 0 0 0 0 0 0 0 0 0 0 0 0 0 0 0 0 0 0 0 0 0 0 0 0 0 0 0 0 0 0 0 0 0 0 0 0 0 0 0 0 0
0 0 0 0 13 0 0 0 0 0 0 0 0 0 0 0 0 0 0 0 0 0 0 0 0 0 0 0 0 0 0 0 0 0 0 0 0 0 0 0 0 0 0 0 0 0 0 0 0
33 1 0 0 0 1 0 0 0 0 0 0 0 0 0 0 0 0 0 0 0 0 0 0 0 0 0 0 0 0 0 0 0 0 0 0 0 0 0 0 0 0 0 0 0 0 0 0 0
8 0 21 4 0 0 0 0 0 0 0 0 0 0 0 0 0 0 0 0 0 0 0 0 0 0 0 0 0 0 0 0 0 0 0 0 0 0 0 0 0 0 0 0 0 0 0 0 0
4 11 1 2 0 0 0 0 0 0 0 0 0 0 0 0 0 0 0 0 0 0 0 0 0 0 0 0 0 0 0 0 0 0 0 0 0 0 0 0 0 0 0 0 0 0 0 0 0
0 0 0 1 0 0 0 0 2 6 0 0 0 0 0 0 0 0 0 0 0 0 0 0 0 0 0 0 0 0 0 0 0 0 0 0 0 0 0 0 0 0 0 0 0 0 0 0 0

GFSSGP_con_sbcape_009.txt.gz
CAPE
0 0 0 0 0 0 0 0 0 0 0 0 0 0 0 0 0 24 6 47 34 153 695 1351 1697 1356 719 164 69 24 0 0 0 19 18 3 3 16 19 23 1 0 0 0 0 0 0 0 0
0 0 0 0 0 0 0 0 0 0 0 0 0 0 0 0 1 22 81 50 90 358 756 1369 1865 1381 763 227 101 29 3 0 0 1 13 13 16 38 24 28 1 0 0 0 0 0 0 0 0
0 0 0 0 0 0 0 0 0 0 0 0 0 0 0 0 1 12 16 69 282 448 905 1412 1832 1582 1072 433 167 60 8 0 0 2 15 27 28 36 13 3 0 0 0 0 0 0 0 0 0
0 0 0 0 0 0 0 0 0 0 0 0 0 0 0 0 2 0 63 488 688 895 1299 1591 1812 1656 1368 929 270 141 36 0 0 0 18 23 37 41 37 18 46 28 0 0 0 0 0 0 0
0 0 0 0 0 0 0 0 0 0 0 0 0 0 0 0 0 52 441 777 874 971 1451 1542 1881 1771 1586 1076 475 204 91 15 0 0 3 17 39 59 82 41 23 8 0 0 0 5 9 7 5
0 0 0 0 0 0 0 0 0 0 0 0 0 0 0 0 13 397 796 917 977 1161 1483 1583 1723 1873 1680 1249 896 422 118 42 0 0 0 5 22 23 149 96 44 15 0 6 0 11 18 6 6
0 0 0 0 0 0 0 0 0 0 0 0 0 0 0 0 15 502 798 826 1043 1283 1491 1603 1554 1595 1587 1296 929 649 231 85 11 0 0 2 18 0 134 140 63 40 35 16 34 53 51 90 120
0 0 0 0 0 0 0 0 0 0 0 0 0 0 0 0 0 254 574 686 811 1169 1511 1702 1876 1718 1538 1103 892 689 441 302 113 95 19 5 0 0 12 98 100 54 36 64 63 155 197 94 44
0 0 0 0 0 0 0 0 0 0 0 0 0 0 0 0 0 51 257 901 929 1049 1456 1272 1646 1761 1507 1141 725 632 483 349 196 78 10 0 0 0 0 0 0 21 53 64 87 40 0 0 0
0 0 0 0 0 0 0 0 0 0 0 0 0 0 0 0 0 60 173 580 1081 1169 1251 1511 1457 1535 1384 981 870 657 449 361 229 69 28 0 0 0 0 0 0 7 0 0 0 0 0 0 0
0 0 0 0 0 0 0 0 0 0 0 0 0 0 0 0 0 37 93 217 726 1162 1276 1221 1239 1032 1112 1173 893 661 602 436 265 92 12 0 0 0 0 0 0 0 0 0 0 0 0 0 0
0 0 0 0 0 0 0 0 0 0 0 0 0 0 0 0 0 14 83 95 241 887 1321 1225 1207 984 887 1147 891 621 515 413 252 118 8 0 0 0 0 2 0 0 0 0 0 0 0 0 0
0 0 0 0 0 0 0 0 0 0 0 0 0 0 0 0 0 0 7 20 45 246 1019 1363 1296 953 852 1020 814 584 405 357 244 88 15 0 0 0 0 0 0 0 0 0 0 0 0 0 0
0 0 0 0 0 0 0 0 0 0 0 0 0 0 0 0 0 0 0 0 0 28 141 755 1321 853 847 922 573 565 298 226 153 82 31 0 0 0 0 0 0 0 0 0 0 0 0 0 0
0 0 0 0 0 0 0 0 0 0 0 0 0 0 0 0 0 0 0 0 0 0 0 12 735 1179 1113 970 610 409 197 139 87 15 0 0 0 0 0 0 0 0 0 0 0 0 0 0 0
1 1 0 0 0 0 0 0 0 0 0 0 0 0 0 0 0 0 0 0 0 0 0 0 159 815 959 777 529 239 106 0 0 0 0 0 0 0 0 0 0 0 0 0 0 0 0 0 0
0 0 0 0 0 0 0 0 0 0 0 0 0 0 0 0 0 0 0 0 0 0 0 0 273 657 668 312 98 5 0 0 0 0 0 0 0 0 0 0 0 0 0 0 0 0 0 0 0
0 0 0 0 0 0 0 0 0 0 0 0 0 0 0 0 0 0 0 0 0 0 0 70 393 482 75 0 0 0 0 0 0 0 0 0 0 0 0 0 0 0 0 0 0 0 0 0 0
0 0 0 0 0 0 0 0 0 0 0 0 0 0 0 0 0 0 0 0 0 0 0 295 237 6 0 0 0 0 0 0 0 0 0 0 0 0 0 0 0 0 0 0 0 0 0 0 0
0 4 2 0 0 0 0 0 0 0 0 0 0 0 0 0 0 0 0 0 0 0 4 188 95 0 0 0 0 0 0 0 0 0 0 0 0 0 0 0 0 0 0 0 0 0 0 0 0
6 5 1 1 0 0 0 0 0 0 0 0 0 0 0 0 0 0 0 0 0 0 0 15 0 0 0 0 0 0 0 0 0 0 0 0 0 0 0 0 0 0 0 0 0 0 0 0 0
3 0 0 0 5 2 0 0 0 0 0 0 0 0 0 0 0 0 0 0 0 0 0 0 0 0 0 0 0 0 0 0 0 0 0 0 0 0 0 0 0 0 0 0 0 0 0 0 0
0 0 0 0 10 5 3 13 0 0 0 0 0 0 0 0 0 0 0 0 0 0 0 0 0 0 0 0 0 0 0 0 0 0 0 0 0 0 0 0 0 0 0 0 0 0 0 0 0
0 1 1 0 10 26 0 4 0 0 0 0 0 0 0 0 0 0 0 0 0 0 0 0 0 0 0 0 0 0 0 0 0 0 0 0 0 0 0 0 0 0 0 0 0 0 0 0 0
0 34 11 23 28 1 0 0 0 0 0 0 0 0 0 0 0 0 0 0 0 0 0 0 0 0 0 0 0 0 0 0 0 0 0 0 0 0 0 0 0 0 0 0 0 0 0 0 0
0 0 2 8 0 0 0 0 0 0 0 0 0 0 0 0 0 0 0 0 0 0 0 0 0 0 0 0 0 0 0 0 0 0 0 0 0 0 0 0 0 0 0 0 0 0 0 0 0
5 2 0 5 0 6 0 0 0 0 0 0 0 0 0 0 0 0 0 0 0 0 0 0 0 0 0 0 0 0 0 0 0 0 0 0 0 0 0 0 0 0 0 0 0 0 0 0 0
4 0 9 7 11 16 0 0 0 0 0 0 0 0 0 0 0 0 0 0 0 0 0 0 0 0 0 0 0 0 0 0 0 0 0 0 0 0 0 0 0 0 0 0 0 0 0 0 0
3 33 29 17 16 1 0 0 0 0 0 0 0 0 0 0 0 0 0 0 0 0 0 0 0 0 0 0 0 0 0 0 0 0 0 0 0 0 0 0 0 0 0 0 0 0 0 0 0
0 0 0 10 0 0 0 0 0 0 5 0 0 0 0 0 0 0 0 0 0 0 0 0 0 0 0 0 0 0 0 0 0 0 0 0 0 0 0 0 0 0 0 0 0 0 0 0 0

GFSSGP_con_sbcape_012.txt.gz
CAPE
2 0 0 0 0 0 0 0 0 0 0 0 0 0 0 0 44 52 115 218 135 372 990 1350 1590 1204 670 164 69 31 1 0 0 20 4 0 1 7 24 18 0 0 0 0 0 0 0 0 3
0 0 0 0 0 0 0 0 0 0 0 0 0 0 0 2 4 73 84 178 203 504 1247 964 1806 1410 695 262 95 42 18 0 0 18 8 1 12 25 0 0 0 0 0 0 0 0 0 0 0
0 0 0 0 0 0 0 0 0 0 0 0 0 0 0 3 74 93 172 271 288 707 1224 1205 1925 1465 914 397 141 46 25 0 0 0 13 16 22 6 25 4 0 0 0 0 0 0 0 0 0
0 0 0 0 0 0 0 0 0 0 0 0 0 0 0 0 84 101 208 467 413 728 1228 1739 1808 1603 1248 801 226 89 15 0 0 0 11 21 34 42 0 0 7 0 0 0 0 0 2 4 3
0 0 0 0 0 0 0 0 0 0 0 0 0 0 0 1 75 131 469 697 564 757 1152 1673 2014 1766 1429 880 411 214 46 0 0 0 6 11 39 66 53 13 6 0 0 0 0 4 5 5 0
0 0 0 0 0 0 0 0 0 0 0 0 0 0 0 0 202 573 744 863 818 894 1228 1295 1787 1835 1569 1178 757 376 122 38 0 0 0 6 17 23 109 35 13 1 0 0 0 15 26 26 58
0 0 0 0 0 0 0 0 0 0 0 0 0 0 0 0 367 924 934 971 1062 989 1293 1203 1483 1379 1438 1267 1009 677 186 98 10 0 0 23 6 7 167 130 50 20 34 17 33 66 121 156 154
0 0 0 0 0 0 0 0 0 0 0 0 0 0 0 0 371 913 935 1035 1108 1129 1260 1267 1174 999 1339 1151 954 749 504 235 116 106 69 26 0 0 88 141 83 34 31 48 92 132 15 0 0
0 0 0 0 0 0 0 0 0 0 0 0 0 0 0 0 241 810 981 1111 1143 1211 1307 1391 1270 1335 1592 1153 773 607 468 247 122 88 16 0 0 0 0 0 0 15 48 30 27 0 0 0 0
1 0 0 0 0 0 0 0 0 0 0 0 0 0 0 0 34 434 744 1015 1203 1279 1296 1506 1526 1684 1521 1053 886 470 208 240 144 67 51 0 0 0 0 0 0 0 0 0 0 0 0 0 0
0 0 0 0 0 0 0 0 0 0 0 0 0 0 0 0 0 78 287 465 991 1213 1468 1549 1624 1817 1717 1347 982 620 382 448 367 176 118 0 0 0 0 1 5 57 0 0 0 0 0 0 0
0 0 0 0 0 0 0 0 0 0 0 0 0 0 0 0 0 0 96 301 593 1130 1470 1606 1676 1702 1714 1563 1175 842 537 513 465 305 152 19 0 1 0 37 54 1 0 0 0 0 0 0 0
0 0 0 0 0 0 0 0 0 0 0 0 0 0 0 0 0 0 0 87 419 830 1279 1593 1606 1639 1666 1682 1342 936 686 586 514 376 183 54 38 76 47 0 0 0 0 0 0 0 0 0 0
0 0 0 0 0 0 0 0 0 0 0 0 0 0 0 0 0 0 0 0 116 419 741 1438 1709 1739 1606 1751 1523 1212 832 579 625 466 152 138 120 132 0 0 0 0 0 0 0 0 0 0 0
1 0 0 0 0 0 0 0 0 0 0 0 0 0 0 0 0 0 0 0 0 6 89 461 1371 1722 1334 1697 1702 1312 913 671 641 408 253 209 33 0 0 0 0 0 0 0 0 0 0 0 0
0 0 0 0 0 0 0 0 0 0 0 0 0 0 0 0 0 0 0 0 0 0 0 0 80 1176 1654 2083 1716 1376 967 753 563 466 279 0 0 0 0 0 0 0 0 0 0 0 0 0 0
0 0 0 0 0 0 0 0 0 0 0 0 0 0 0 0 0 0 0 0 0 0 0 0 0 201 1039 1501 1515 1311 952 550 97 45 0 0 0 0 0 0 0 0 0 0 0 0 0 0 0
0 0 0 0 0 0 0 0 0 0 0 0 0 0 0 0 0 0 0 0 0 0 0 0 48 270 793 1239 1177 929 245 9 0 0 0 0 0 0 0 0 0 0 0 0 0 0 0 0 0
0 0 0 0 0 0 0 0 0 0 0 0 0 0 0 0 0 0 0 0 0 0 0 0 277 693 1013 857 339 0 0 0 0 0 0 0 0 0 0 0 0 0 0 0 0 0 0 0 0
1 0 0 0 0 0 0 0 0 0 0 0 0 0 0 0 0 0 0 0 0 0 0 106 567 821 878 577 390 25 0 0 0 0 0 0 0 0 0 0 0 0 0 0 0 0 0 0 0
3 6 2 0 0 1 0 0 0 0 0 0 0 0 0 0 0 0 0 0 0 0 4 254 649 722 612 428 130 0 0 0 0 0 0 0 0 0 0 0 0 0 0 0 0 0 0 0 0
2 0 0 6 4 1 0 0 0 0 0 0 0 0 0 0 0 0 0 0 0 0 3 354 606 456 474 135 0 0 0 0 0 0 0 0 0 0 0 0 0 0 0 0 0 0 0 0 0
0 0 2 8 16 5 0 10 0 0 0 0 0 0 0 0 0 0 0 0 0 0 10 376 411 315 103 0 0 0 0 0 0 0 0 0 0 0 0 0 0 0 0 0 0 0 0 0 0
1 10 11 6 8 15 0 0 0 0 0 0 0 0 0 0 0 0 0 0 0 0 8 241 195 174 0 0 0 0 0 0 0 0 0 0 0 0 0 0 0 0 0 0 0 0 0 0 0
17 19 5 5 7 1 0 0 0 0 0 0 0 0 0 0 0 0 0 0 0 0 1 110 144 2 0 0 0 0 0 0 0 0 0 0 0 0 0 0 0 0 0 0 0 0 0 0 0
8 9 4 0 0 3 7 3 0 0 0 0 0 0 0 0 0 0 0 0 0 0 0 8 54 0 0 0 0 0 0 0 0 0 0 0 0 0 0 0 0 0 0 0 0 0 0 0 0
7 11 1 33 7 34 15 1 0 0 0 0 0 3 0 0 0 0 0 0 0 0 0 0 0 0 0 0 0 0 0 0 0 0 0 0 0 0 0 0 0 0 0 0 0 0 0 0 0
12 9 23 45 17 31 18 6 1 0 21 53 127 15 0 0 0 0 0 0 0 0 0 0 0 0 0 0 0 0 0 0 0 0 0 0 0 0 0 0 0 0 0 0 0 0 0 0 0
7 10 40 23 58 20 18 2 13 0 43 11 67 3 0 0 0 0 0 0 0 0 0 0 0 0 0 0 0 0 0 0 0 0 0 0 0 0 0 0 0 0 0 0 0 0 0 0 0
3 4 6 33 7 37 33 7 7 38 108 381 102 10 0 0 0 0 0 0 0 1 0 0 0 0 0 0 0 0 0 0 0 0 0 0 0 0 0 0 0 0 0 0 0 0 0 0 0

GFSSGP_con_sbcape_015.txt.gz
CAPE
20 0 0 0 0 0 0 0 0 0 0 0 0 0 0 0 40 62 99 228 196 925 1255 1052 1419 1010 508 126 25 1 0 0 16 10 3 7 5 16 15 4 0 0 0 0 0 0 0 0 0
0 0 0 0 0 0 0 0 0 0 0 0 0 0 0 0 0 136 170 195 214 821 1159 976 1605 1251 665 239 74 36 0 0 8 7 0 0 0 0 0 0 0 0 0 0 0 0 0 0 0
0 0 0 0 0 0 0 0 0 0 0 0 0 0 0 6 23 161 308 224 289 795 1098 1293 1723 1439 841 375 103 63 3 0 0 0 0 0 3 0 0 0 0 0 0 0 0 0 0 0 0
0 0 0 0 0 0 0 0 0 0 0 0 0 0 0 0 112 129 304 271 362 869 1116 1340 1768 1464 1123 552 126 59 29 0 0 0 6 7 5 7 3 0 0 0 0 0 0 1 4 1 1
0 0 0 0 0 0 0 0 0 0 0 0 0 0 0 3 109 309 415 328 439 754 1666 1411 1805 1572 1275 711 246 107 30 8 2 0 0 24 27 49 38 1 9 0 0 0 0 2 10 2 0
0 0 0 0 0 0 0 0 0 0 0 0 0 0 0 7 142 463 621 511 412 747 1167 1524 1580 1591 1404 1020 636 223 49 18 7 3 0 12 1 92 55 17 11 0 1 0 2 10 21 53 108
0 0 0 0 0 0 0 0 0 0 0 0 0 0 0 0 508 692 753 649 627 760 995 1730 1550 1379 1310 1162 1009 615 195 70 25 16 0 59 3 115 121 55 21 1 0 0 37 124 130 75 37
0 0 0 0 0 0 0 0 0 0 0 0 0 0 0 29 500 710 697 774 758 803 1024 1137 1465 1485 1079 987 987 721 476 307 91 81 114 55 14 78 173 212 71 13 14 43 77 0 0 0 0
0 8 0 0 0 0 0 0 0 0 0 0 0 0 0 0 305 663 756 879 889 928 1076 1072 1061 938 1171 1085 758 683 480 207 173 98 33 0 0 0 0 0 10 25 14 31 0 0 0 0 0
1 0 0 0 0 0 0 0 0 0 0 0 0 0 0 0 26 433 679 857 881 1036 1117 1221 1142 1062 1409 1232 857 484 181 60 5 20 10 2 0 0 0 0 6 0 3 0 0 0 0 0 0
0 0 0 0 0 0 0 0 0 0 0 0 0 0 0 0 0 51 269 423 828 976 1198 1311 1448 1399 1283 957 1106 575 362 349 172 94 75 0 0 0 0 0 0 0 0 0 0 0 0 0 0
0 0 0 0 0 0 0 0 0 0 0 0 0 0 0 0 0 0 18 137 316 845 1154 1425 1597 1697 1727 1494 1140 766 463 448 386 209 113 0 0 0 0 0 46 5 0 0 0 0 0 0 0
2 0 0 0 0 0 0 0 0 0 0 0 0 0 0 0 0 0 0 12 160 560 977 1367 1670 1727 1850 1629 1371 984 562 553 489 382 247 12 0 8 10 5 0 0 0 0 0 0 0 0 0
6 0 0 0 0 0 0 0 0 0 0 0 0 0 0 0 0 0 0 0 15 311 714 1106 1536 1808 1647 1713 1603 1224 803 656 564 543 349 25 53 103 0 0 0 0 0 0 0 0 0 0 0
0 0 0 0 0 0 0 0 0 0 0 0 0 0 0 0 0 0 0 0 0 12 276 658 1268 1582 1710 1646 1790 1384 1193 731 657 565 308 127 209 23 0 0 0 0 0 0 0 0 0 0 0
0 0 0 0 0 0 0 0 0 0 0 0 0 0 0 0 0 0 0 0 0 0 0 118 630 1348 1633 1472 1931 1668 1321 914 713 566 278 287 83 0 0 0 0 0 0 0 0 0 0 0 0
0 0 0 0 0 0 0 0 0 0 0 0 0 0 0 0 0 0 0 0 0 0 0 0 2 473 1380 1629 1967 1772 1309 843 811 728 604 143 0 0 0 0 0 0 0 0 0 0 0 0 0
0 0 0 0 0 0 0 0 0 0 0 0 0 0 0 0 0 0 0 0 0 0 0 0 0 1 471 1589 1840 1525 1135 976 701 524 9 0 0 0 0 0 0 0 0 0 0 0 0 0 0
0 0 0 0 0 0 0 0 0 0 0 0 0 0 0 0 0 0 0 0 0 0 0 0 0 77 253 1051 1827 1395 995 625 211 0 0 0 0 0 0 0 0 0 0 0 0 0 0 0 0
0 0 0 0 0 0 0 0 0 0 0 0 0 0 0 0 0 0 0 0 0 0 0 0 1 120 546 1488 1541 979 503 33 0 0 0 0 0 0 0 0 0 0 0 0 0 0 0 0 0
0 0 0 0 0 0 0 0 0 0 0 0 0 0 0 0 0 0 0 0 0 0 0 0 38 347 909 1296 861 187 0 0 0 0 0 0 0 0 0 0 0 0 0 0 0 0 0 0 0
0 0 0 0 0 0 0 0 0 0 0 0 0 0 0 0 0 0 0 0 0 0 0 1 130 525 961 1110 668 91 0 0 0 0 0 0 0 0 0 0 0 0 0 0 0 0 0 0 0
0 0 0 1 7 0 0 1 0 0 0 0 0 0 0 0 0 0 0 0 0 0 0 19 160 565 849 779 864 118 0 0 0 0 0 0 0 0 0 0 0 0 0 0 0 0 0 0 0
0 1 2 2 2 5 0 0 0 0 0 0 0 0 0 0 0 0 0 0 0 0 2 40 276 584 770 829 294 0 15 0 0 0 0 0 0 0 0 0 0 0 0 0 0 0 0 0 0
4 1 5 14 20 0 0 0 0 0 0 0 0 0 0 0 0 0 0 0 0 0 0 68 357 528 585 435 4 16 3 0 0 0 0 0 0 0 0 0 0 0 0 0 0 0 0 0 0
2 5 1 0 0 0 0 0 0 0 0 0 0 0 0 0 0 0 0 0 0 0 0 1 283 432 264 28 26 40 0 0 0 0 0 0 0 0 0 0 0 0 0 0 0 0 0 0 0
6 8 1 12 3 8 0 0 0 0 0 0 0 0 0 7 0 0 0 0 0 0 0 2 205 480 27 1 0 0 0 0 0 0 0 0 0 0 0 0 0 0 0 0 0 0 0 0 0
1 2 6 20 6 0 0 0 0 0 0 3 0 4 7 36 0 0 0 0 0 0 0 0 104 90 3 0 0 0 0 0 0 0 0 0 0 0 0 0 0 0 0 0 0 0 0 0 0
3 12 19 6 16 16 10 0 0 0 0 18 11 57 172 103 97 49 0 0 0 0 0 4 85 2 2 0 0 0 0 0 0 0 0 0 0 0 0 0 0 0 0 0 0 0 0 0 0
1 1 1 25 1 3 23 3 0 0 12 21 35 206 73 35 60 107 6 5 0 0 2 7 29 5 0 0 0 0 0 0 0 0 0 0 0 0 0 0 0 0 0 0 0 0 0 0 0

GFSSGP_con_sbcape_018.txt.gz
CAPE
55 0 0 0 0 0 0 0 0 0 0 0 0 0 0 0 8 86 146 79 872 950 1080 968 1114 872 399 88 34 0 0 1 22 42 47 44 46 49 8 0 0 0 0 0 2 0 0 0 0
0 0 0 0 0 0 0 0 0 0 0 0 0 0 0 0 115 65 208 109 1013 1216 809 705 1289 1034 416 99 48 0 0 6 0 0 0 0 0 0 0 0 0 0 0 0 0 0 0 0 0
0 0 0 0 0 0 0 0 0 0 0 0 0 0 0 18 14 156 185 125 855 901 705 957 1448 1130 670 173 73 2 0 2 21 0 2 0 0 0 0 0 0 0 0 0 0 0 0 0 0
0 0 0 0 0 0 0 0 0 0 0 0 0 0 0 0 31 224 120 187 536 891 938 1367 1513 1278 962 435 101 45 0 0 0 0 0 0 0 4 2 0 3 0 0 0 6 6 3 0 0
0 0 0 0 0 0 0 0 0 0 0 0 0 0 4 0 136 204 186 182 558 969 986 1266 1676 1377 1117 497 185 72 6 0 0 0 27 39 13 24 0 0 0 0 0 0 2 13 4 0 2
0 0 0 0 0 0 0 0 0 0 0 0 0 0 3 3 118 306 260 193 553 1222 1096 1132 1436 1440 1212 802 565 257 61 26 10 0 0 27 10 102 54 4 0 0 0 0 1 0 16 77 68
0 0 0 0 0 0 0 0 0 0 0 0 0 0 0 146 363 492 402 229 442 1181 1321 1035 998 1100 1075 892 787 448 200 110 78 73 37 37 96 496 111 40 0 5 0 1 82 57 10 5 0
0 0 0 0 0 0 0 0 0 0 0 0 0 0 5 205 536 573 478 445 404 714 1291 1223 1119 951 804 789 839 652 508 240 145 90 221 41 57 370 292 199 111 2 10 49 0 0 0 0 0
0 0 0 0 0 0 0 0 0 0 0 0 0 0 0 111 427 478 524 604 471 722 804 1206 1222 1058 877 695 623 612 513 289 120 155 47 13 0 44 85 16 19 37 17 0 0 0 0 0 0
0 0 0 0 0 0 0 0 0 0 0 0 0 0 0 0 77 547 568 623 642 688 804 787 1258 1198 849 947 477 317 184 32 15 19 0 0 0 0 0 0 21 12 0 0 0 0 0 0 0
0 0 0 0 0 0 0 0 0 0 0 0 0 0 0 0 0 36 344 546 633 723 803 856 806 825 1075 1006 407 281 94 12 0 0 0 0 0 0 0 0 0 0 0 0 0 0 0 0 0
0 0 0 0 0 0 0 0 0 0 0 0 0 0 0 0 0 0 5 30 441 705 882 966 1096 1085 1187 988 702 381 209 154 35 25 17 0 0 0 0 0 0 0 0 0 0 0 0 0 0
0 0 0 0 0 0 0 0 0 0 0 0 0 0 0 0 0 0 0 0 10 597 818 1012 1176 1430 1258 980 906 511 379 285 245 119 62 0 0 0 0 0 0 0 0 0 0 0 0 0 0
2 0 0 0 0 0 0 0 0 0 0 0 0 0 0 0 0 0 0 0 0 57 632 1046 1290 1515 1534 1220 1051 847 539 365 324 247 163 0 0 0 0 0 0 0 0 0 0 0 0 0 0
0 0 0 0 0 0 0 0 0 0 0 0 0 0 0 0 0 0 0 0 0 0 289 675 1203 1536 1504 1367 1300 1114 812 516 462 385 290 3 20 0 0 0 0 0 0 0 0 0 0 0 0
0 0 0 0 0 0 0 0 0 0 0 0 0 0 0 0 0 0 0 0 0 0 0 359 1008 1341 1581 1396 1407 1262 970 601 448 459 229 98 0 0 0 0 0 0 0 0 0 0 0 0 0
0 0 0 0 0 0 0 0 0 0 0 0 0 0 0 0 0 0 0 0 0 0 0 0 675 1119 1368 1350 1349 1422 1389 658 592 401 245 139 0 0 0 0 0 0 0 0 0 0 0 0 0
0 0 0 0 0 0 0 0 0 0 0 0 0 0 0 0 0 0 0 0 0 0 0 0 1 616 1163 1284 1277 1535 1169 701 658 480 185 0 0 0 0 0 0 0 0 0 0 0 0 0 0
0 0 0 0 0 0 0 0 0 0 0 0 0 0 0 0 0 0 0 0 0 0 0 0 0 0 211 1404 1340 1527 1050 644 328 0 0 0 0 0 0 0 0 0 0 0 0 0 0 0 0
0 0 0 0 0 0 0 0 0 0 0 0 0 0 0 0 0 0 0 0 0 0 0 0 0 0 0 698 1513 1415 767 340 0 0 0 0 0 0 0 0 0 0 0 0 0 0 0 0 0
0 0 0 0 0 0 0 0 0 0 0 0 0 0 0 0 0 0 0 0 0 0 0 0 0 0 0 90 939 45 0 0 0 0 0 0 0 0 0 0 0 0 0 0 0 0 0 0 0
0 0 0 0 0 0 0 0 0 0 0 0 0 0 0 0 0 0 0 0 0 0 0 0 0 0 0 944 324 0 1 0 0 0 0 0 0 0 0 0 0 0 0 0 0 0 0 0 0
0 0 0 0 0 0 0 0 0 0 0 0 0 0 0 0 0 0 0 0 0 0 0 0 0 0 395 882 188 0 0 0 0 0 0 0 0 0 0 0 0 0 0 0 0 0 0 0 0
0 0 0 0 0 0 0 0 0 0 0 0 0 0 0 0 0 0 0 0 0 0 0 0 0 8 453 916 160 0 0 0 0 0 0 0 0 0 0 0 0 0 0 0 0 0 0 0 0
1 1 0 0 2 0 0 0 0 0 0 0 0 0 0 0 0 0 0 0 0 0 0 0 0 71 444 484 342 0 0 0 0 0 0 0 0 0 0 0 0 0 0 0 0 0 0 0 0
3 2 0 0 0 0 0 0 0 0 0 0 0 0 0 0 0 0 0 0 0 0 0 0 5 142 346 438 6 0 0 0 0 0 0 0 0 0 0 0 0 0 0 0 0 0 0 0 0
4 0 0 0 0 0 0 0 0 0 0 0 0 0 0 0 2 2 0 0 0 0 0 0 61 150 281 286 0 0 0 0 0 0 0 0 0 0 0 0 0 0 0 0 0 0 0 0 0
0 0 0 7 0 0 0 0 0 0 0 0 0 0 0 0 1 1 0 0 0 0 0 0 103 184 140 0 0 0 0 0 0 0 0 0 0 0 0 0 0 0 0 0 0 0 0 0 0
0 1 2 0 0 0 0 0 0 0 0 0 0 0 0 10 21 30 21 0 1 0 0 0 71 137 19 0 0 0 0 0 0 0 0 0 0 0 0 0 0 0 0 0 0 0 0 0 0
0 0 0 8 0 0 0 0 0 0 0 0 0 0 0 0 0 36 61 53 56 36 65 73 100 44 0 0 0 0 0 0 0 0 0 0 0 0 0 0 0 0 0 0 0 0 0 0 0

GFSSGP_con_sbcape_021.txt.gz
CAPE
15 0 0 0 0 0 0 0 0 0 0 0 0 0 0 0 0 23 5 424 856 912 878 801 1026 850 287 91 34 0 0 0 2 18 155 64 54 12 0 0 0 0 1 5 4 1 0 0 0
0 0 0 0 0 0 0 0 0 0 0 0 0 0 0 66 23 23 139 958 912 889 777 616 1148 852 257 81 32 0 45 0 15 46 28 24 30 5 1 0 0 0 0 1 0 0 0 0 0
0 0 0 0 0 0 0 0 0 0 0 0 0 0 0 14 2 18 0 906 1043 797 677 744 1223 878 370 111 28 9 32 0 10 30 15 0 2 13 4 1 0 0 0 2 3 1 0 0 0
0 0 0 0 0 0 0 0 0 0 0 0 0 0 0 0 0 47 57 1132 798 638 580 1112 1197 1028 717 424 75 38 37 0 0 4 41 17 8 9 0 0 0 0 0 4 4 2 0 0 0
0 0 0 0 0 0 0 0 0 0 0 0 0 0 0 27 0 0 12 885 672 609 826 1063 1395 1220 869 667 363 63 67 0 22 51 22 6 6 14 3 0 0 0 0 0 6 4 0 0 1
0 0 0 0 0 0 0 0 0 0 0 0 0 0 0 0 20 0 0 299 743 791 868 1025 1297 1270 944 699 559 224 121 99 19 41 59 34 45 26 23 0 0 1 0 1 1 1 34 52 15
0 0 0 0 0 0 0 0 0 0 0 0 0 0 14 44 35 20 0 745 927 859 839 1066 963 949 853 650 496 319 238 204 171 116 112 40 297 457 72 10 8 0 0 35 64 41 5 0 0
0 0 0 0 0 0 0 0 0 0 0 0 0 0 141 170 141 82 6 504 1036 877 882 792 797 818 645 520 551 378 304 306 294 237 229 58 314 418 378 212 170 0 10 28 0 0 0 0 0
0 0 0 0 0 0 0 0 0 0 0 0 0 0 45 154 143 120 97 23 1112 1056 871 742 722 646 533 506 453 451 383 210 215 210 66 11 91 159 114 40 56 90 57 0 0 0 0 0 0
0 0 0 0 0 0 0 0 0 0 0 0 0 0 0 102 174 231 275 206 148 1045 1053 891 807 691 585 687 394 210 198 60 32 37 24 0 0 15 26 9 38 105 50 0 0 0 0 0 0
0 0 0 0 0 0 0 0 0 0 0 0 0 0 0 0 28 241 230 253 192 179 1133 1114 983 852 717 701 321 122 51 0 1 0 0 0 0 0 0 0 0 0 0 0 0 0 0 0 0
0 0 0 0 0 0 0 0 0 0 0 0 0 0 0 0 0 0 79 132 142 276 344 656 1142 938 757 597 364 159 57 0 0 0 0 0 0 0 0 0 0 0 0 0 0 0 0 0 0
0 0 0 0 0 0 0 0 0 0 0 0 0 0 0 0 0 0 0 0 11 278 386 391 735 877 910 774 434 273 84 35 0 0 0 0 0 0 0 0 0 0 0 0 0 0 0 0 0
0 0 0 0 0 0 0 0 0 0 0 0 0 0 0 0 0 0 0 0 0 149 423 566 621 995 887 974 580 392 165 143 56 22 0 0 0 0 0 0 0 0 0 0 0 0 0 0 0
0 0 0 0 0 0 0 0 0 0 0 0 0 0 0 0 0 0 0 0 0 0 235 710 873 992 926 836 768 566 197 266 184 101 17 0 0 0 0 0 0 0 0 0 0 0 0 0 0
0 0 0 0 0 0 0 0 0 0 0 0 0 0 0 0 0 0 0 0 0 0 0 766 1215 1319 1165 1023 968 907 598 201 319 309 186 1 0 0 0 0 0 0 0 0 0 0 0 0 0
0 0 0 0 0 0 0 0 0 0 0 0 0 0 0 0 0 0 0 0 0 0 0 94 1222 1469 1298 1174 1058 1128 763 450 402 275 61 1 0 0 0 0 0 0 0 0 0 0 0 0 0
0 0 0 0 0 0 0 0 0 0 0 0 0 0 0 0 0 0 0 0 0 0 0 0 678 1523 1460 1258 1217 1088 878 354 274 260 37 0 0 0 0 0 0 0 0 0 0 0 0 0 0
0 0 0 0 0 0 0 0 0 0 0 0 0 0 0 0 0 0 0 0 0 0 0 0 46 1099 1427 1240 1105 1149 1030 530 318 138 0 0 0 0 0 0 0 0 0 0 0 0 0 0 0
0 0 0 0 0 0 0 0 0 0 0 0 0 0 0 0 0 0 0 0 0 0 0 0 0 368 1197 1209 1224 1175 1004 191 17 0 0 0 0 0 0 0 0 0 0 0 0 0 0 0 0
0 0 0 0 0 0 0 0 0 0 0 0 0 0 0 0 0 0 0 0 0 0 0 0 0 0 1004 1154 806 0 0 0 0 0 0 0 0 0 0 0 0 0 0 0 0 0 0 0 0
0 0 0 0 0 0 0 0 0 0 0 0 0 0 0 0 0 0 0 0 0 0 0 0 0 0 0 880 661 160 212 0 0 0 0 0 0 0 0 0 0 0 0 0 0 0 0 0 0
0 0 0 0 0 0 0 0 0 0 0 0 0 0 0 0 0 0 0 0 0 0 0 0 0 0 0 756 366 347 103 0 0 0 0 0 0 0 0 0 0 0 0 0 0 0 0 0 0
0 0 0 0 0 0 0 0 0 0 0 0 0 0 0 0 0 0 0 0 0 0 0 0 0 0 65 524 147 244 0 0 0 0 0 0 0 0 0 0 0 0 0 0 0 0 0 0 0
0 0 0 0 0 0 0 0 0 0 0 0 0 0 0 0 0 0 0 0 0 0 0 0 0 0 306 379 16 0 0 0 0 0 0 0 0 0 0 0 0 0 0 0 0 0 0 0 0
0 0 0 0 0 0 0 0 0 0 0 0 0 0 0 0 0 0 0 0 0 0 0 0 0 0 340 336 9 0 0 0 0 0 0 0 0 0 0 0 0 0 0 0 0 0 0 0 0
0 0 0 0 0 0 0 0 0 0 0 0 0 0 0 0 0 0 0 0 0 0 0 0 0 0 206 440 22 0 0 0 0 0 0 0 0 0 0 0 0 0 0 0 0 0 0 0 0
0 0 0 0 0 0 0 0 0 0 0 0 0 0 0 0 0 0 0 0 0 0 0 0 0 50 238 22 2 0 0 0 0 0 0 0 0 0 0 0 0 0 0 0 0 0 0 0 0
0 0 0 0 0 0 0 0 0 0 0 0 0 0 0 0 0 0 0 0 0 0 0 0 3 346 220 0 0 0 0 0 0 0 0 0 0 0 0 0 0 0 0 0 0 0 0 0 0
0 0 0 0 0 0 0 0 0 0 0 0 0 0 0 0 0 0 0 0 0 0 0 0 20 352 0 0 0 0 0 0 0 0 0 0 0 0 0 0 0 0 0 0 0 0 0 0 0

GFSSGP_con_sbcape_024.txt.gz
CAPE
12 0 0 0 0 0 0 0 0 0 0 0 0 0 0 0 0 0 1 214 632 764 759 689 963 709 300 104 52 45 56 162 330 302 87 34 22 3 0 0 0 1 4 10 7 5 4 1 0
0 0 0 0 0 0 0 0 0 0 0 0 0 0 0 24 17 166 206 721 755 725 691 502 993 516 165 93 58 47 53 34 49 307 154 66 6 0 0 0 0 0 2 1 1 0 0 0 0
0 0 0 0 0 0 0 0 0 0 0 0 0 0 0 0 0 111 373 809 751 707 541 554 1012 686 164 98 50 126 67 105 151 91 69 28 2 1 0 0 0 0 0 1 0 0 0 0 0
0 0 0 0 0 0 0 0 0 0 0 0 0 0 0 0 0 11 851 798 698 563 453 887 1013 831 506 193 165 104 2 0 18 54 28 14 7 6 4 0 0 0 2 4 1 0 0 0 0
0 0 0 0 0 0 0 0 0 0 0 0 0 0 0 6 0 574 956 822 620 471 537 838 1145 736 419 273 349 281 59 20 20 29 3 5 10 6 3 0 0 1 4 5 8 0 0 0 0
0 0 0 0 0 0 0 0 0 0 0 0 0 0 0 0 0 584 1023 707 600 551 757 805 1095 971 791 425 293 414 242 70 64 100 58 37 44 30 29 0 0 2 1 11 10 11 35 36 0
0 0 0 0 0 0 0 0 0 0 0 0 0 0 0 0 0 19 557 539 609 671 711 778 854 773 780 692 315 275 362 290 395 383 315 276 306 187 89 27 31 0 7 45 89 86 21 0 0
0 0 0 0 0 0 0 0 0 0 0 0 0 0 32 43 0 0 621 659 693 668 724 825 814 668 471 436 475 297 308 359 290 411 238 83 339 407 341 210 208 19 95 74 35 9 0 0 0
0 0 0 0 0 0 0 0 0 0 0 0 0 0 0 18 0 0 594 744 745 674 782 727 694 582 379 336 288 357 340 348 286 266 57 119 160 212 199 85 165 168 187 31 1 0 0 0 0
0 0 0 0 0 0 0 0 0 0 0 0 0 0 0 4 0 0 413 951 857 758 715 685 653 555 417 467 279 152 128 72 64 83 24 0 56 90 67 76 70 246 221 15 0 0 0 0 0
0 0 0 0 0 0 0 0 0 0 0 0 0 1 0 1 0 17 11 741 1041 916 810 748 668 580 483 522 280 115 68 5 1 14 8 0 0 5 2 0 8 16 4 0 0 0 0 0 0
0 0 0 0 0 0 0 0 0 0 0 0 0 0 0 0 0 0 33 42 119 980 953 856 752 637 508 511 315 154 69 0 0 0 0 0 0 0 0 0 0 0 0 0 0 0 0 0 0
0 0 0 0 0 0 0 0 0 0 0 0 0 0 0 0 0 0 0 0 3 238 1072 1043 911 795 657 413 296 143 67 0 0 0 0 0 0 0 0 0 0 0 0 0 0 0 0 0 0
0 0 0 0 0 0 0 0 0 0 0 0 0 0 0 0 0 0 0 0 0 17 231 1023 1063 936 733 575 337 143 57 0 0 0 0 0 0 0 0 0 0 0 0 0 0 0 0 0 0
0 0 0 0 0 0 0 0 0 0 0 0 0 0 0 0 0 0 0 0 0 0 68 220 1215 1024 776 707 336 148 70 39 3 0 0 0 0 0 0 0 0 0 0 0 0 0 0 0 0
0 0 0 0 0 0 0 0 0 0 0 0 0 0 0 0 0 0 0 0 0 0 0 152 748 973 846 841 461 283 130 68 51 9 1 0 0 0 0 0 0 0 0 0 0 0 0 0 0
0 0 0 0 0 0 0 0 0 0 0 0 0 0 0 0 0 0 0 0 0 0 0 13 389 818 874 801 584 390 245 72 94 77 67 0 0 0 0 0 0 0 0 0 0 0 0 0 0
0 0 0 0 0 0 0 0 0 0 0 0 0 0 0 0 0 0 0 0 0 0 0 0 374 887 991 781 642 298 356 161 135 198 134 0 0 0 0 0 0 0 0 0 0 0 0 0 0
0 0 0 0 0 0 0 0 0 0 0 0 0 0 0 0 0 0 0 0 0 0 0 0 56 866 1006 853 732 592 624 349 76 249 0 0 0 0 0 0 0 0 0 0 0 0 0 0 0
0 0 0 0 0 0 0 0 0 0 0 0 0 0 0 0 0 0 0 0 0 0 0 0 0 571 1101 1065 1115 874 706 288 258 0 0 0 0 0 0 0 0 0 0 0 0 0 0 0 0
0 0 0 0 0 0 0 0 0 0 0 0 0 0 0 0 0 0 0 0 0 0 0 0 0 17 1172 1203 749 0 0 0 0 0 0 0 0 0 0 0 0 0 0 0 0 0 0 0 0
0 0 0 0 0 0 0 0 0 0 0 0 0 0 0 0 0 0 0 0 0 0 0 0 0 0 609 925 759 283 410 149 0 0 0 0 0 0 0 0 0 0 0 0 0 0 0 0 0
0 0 0 0 0 0 0 0 0 0 0 0 0 0 0 0 0 0 0 0 0 0 0 0 0 0 0 859 814 309 394 188 0 0 0 0 0 0 0 0 0 0 0 0 0 0 0 0 0
0 0 0 0 0 0 0 0 0 0 0 0 0 0 0 0 0 0 0 0 0 0 0 0 0 0 0 654 744 414 310 0 0 0 0 0 0 0 0 0 0 0 0 0 0 0 0 0 0
0 0 0 0 0 0 0 0 0 0 0 0 0 0 0 0 0 0 0 0 0 0 0 0 0 0 0 50 617 474 7 0 0 0 0 0 0 0 0 0 0 0 0 0 0 0 0 0 0
0 0 0 0 0 0 0 0 0 0 0 0 0 0 0 0 0 0 0 0 0 0 0 0 0 0 0 33 286 353 0 0 0 0 0 0 0 0 0 0 0 0 0 0 0 0 0 0 0
0 0 0 0 0 0 0 0 0 0 0 0 0 0 0 0 0 0 0 0 0 0 0 0 0 0 0 91 124 0 0 0 0 0 0 0 0 0 0 0 0 0 0 0 0 0 0 0 0
0 0 0 0 0 0 0 0 0 0 0 0 0 0 0 0 0 0 0 0 0 0 0 0 0 0 0 84 171 0 0 0 0 0 0 0 0 0 0 0 0 0 0 0 0 0 0 0 0
0 0 0 0 0 0 0 0 0 0 0 0 0 0 0 0 0 0 0 0 0 0 0 0 0 0 0 225 65 0 0 0 0 0 0 0 0 0 0 0 0 0 0 0 0 0 0 0 0
0 0 0 0 0 0 0 0 0 0 0 0 0 0 0 0 0 0 0 0 0 0 0 0 0 0 40 0 0 0 0 0 0 0 0 0 0 0 0 0 0 0 0 0 0 0 0 0 0

GFSSGP_con_sbcape_027.txt.gz
CAPE
6 0 0 0 0 0 0 0 0 0 0 0 0 0 0 0 0 0 1 129 317 585 594 456 558 395 355 277 348 520 631 674 533 276 129 50 15 1 0 0 0 1 7 10 6 9 15 3 0
0 0 0 0 0 0 0 0 0 0 0 0 0 0 0 8 7 113 198 391 555 600 561 410 654 376 298 133 100 147 324 523 498 247 116 58 5 0 0 0 0 4 11 8 3 3 1 0 0
0 0 0 0 0 0 0 0 0 0 0 0 0 0 0 0 0 98 84 599 619 591 447 498 954 631 171 106 73 59 76 91 453 285 184 22 0 0 0 0 0 0 1 1 0 0 0 0 0
0 0 0 0 0 0 0 0 0 0 0 0 0 0 0 0 0 17 607 676 566 429 335 800 887 511 372 124 137 194 211 239 383 348 115 29 1 0 0 0 0 0 2 1 0 0 0 0 0
0 0 0 0 0 0 0 0 0 0 0 0 0 0 0 0 5 594 702 649 535 299 370 709 950 526 233 189 433 145 81 148 120 71 77 60 22 16 0 0 0 1 4 4 2 0 0 2 2
0 0 0 0 0 0 0 0 0 0 0 0 0 0 0 0 582 719 739 567 482 395 576 667 764 731 462 336 493 311 205 95 110 167 84 65 51 48 14 0 0 0 3 27 7 7 30 21 0
0 0 0 0 0 0 0 0 0 0 0 0 0 0 0 0 42 810 615 449 467 525 609 588 591 599 563 401 501 347 309 254 269 254 256 255 222 167 63 23 13 1 35 52 51 119 43 0 0
0 0 0 0 0 0 0 0 0 0 0 0 0 0 0 0 13 409 488 391 470 568 621 578 578 540 473 288 315 416 364 394 446 460 370 263 268 303 285 183 187 16 84 236 163 63 0 0 0
0 0 0 0 0 0 0 0 0 0 0 0 0 0 0 0 28 521 513 578 577 579 629 687 641 465 303 284 217 277 360 339 359 353 156 58 142 237 212 102 207 170 279 109 59 0 0 0 0
0 0 0 0 0 0 0 0 0 0 0 0 0 0 0 0 26 615 751 760 626 576 612 634 638 437 261 332 176 124 143 170 128 155 26 37 80 127 140 110 168 312 340 109 0 0 0 0 0
0 0 0 0 0 0 0 0 0 0 0 0 0 0 0 6 0 457 779 836 801 681 630 557 620 487 314 333 134 72 56 27 20 27 3 0 30 63 34 16 45 42 68 0 0 0 0 0 0
0 0 0 0 0 0 0 0 0 0 0 0 0 0 0 0 0 0 306 827 787 727 690 714 655 529 355 322 191 93 49 4 2 5 0 0 0 2 0 0 0 0 0 0 0 0 0 0 0
0 0 0 0 0 0 0 0 0 0 0 0 0 0 0 0 0 0 0 22 593 883 772 782 681 599 451 337 246 126 78 18 1 0 0 0 0 0 0 0 0 0 0 0 0 0 0 0 0
0 0 0 0 0 0 0 0 0 0 0 0 0 0 0 0 0 0 0 0 0 379 940 782 760 636 494 396 253 138 91 40 0 0 0 0 0 0 0 0 0 0 0 0 0 0 0 0 0
0 0 0 0 0 0 0 0 0 0 0 0 0 0 0 0 0 0 0 0 0 0 43 916 818 718 593 488 262 118 74 40 0 0 0 0 0 0 0 0 0 0 0 0 0 0 0 0 0
0 0 0 0 0 0 0 0 0 0 0 0 0 0 0 0 0 0 0 0 0 0 0 127 1110 914 746 637 313 171 59 20 0 0 0 0 0 0 0 0 0 0 0 0 0 0 0 0 0
0 0 0 0 0 0 0 0 0 0 0 0 0 0 0 0 0 0 0 0 0 0 0 0 387 1152 935 671 373 201 54 12 0 0 0 0 0 0 0 0 0 0 0 0 0 0 0 0 0
0 0 0 0 0 0 0 0 0 0 0 0 0 0 0 0 0 0 0 0 0 0 0 0 97 757 991 756 513 193 83 18 4 11 0 0 0 0 0 0 0 0 0 0 0 0 0 0 0
0 0 0 0 0 0 0 0 0 0 0 0 0 0 0 0 0 0 0 0 0 0 0 0 8 394 761 656 533 322 196 103 8 37 36 0 0 0 0 0 0 0 0 0 0 0 0 0 0
0 0 0 0 0 0 0 0 0 0 0 0 0 0 0 0 0 0 0 0 0 0 0 0 0 110 676 792 707 570 482 257 54 29 0 0 0 0 0 0 0 0 0 0 0 0 0 0 0
0 0 0 0 0 0 0 0 0 0 0 0 0 0 0 0 0 0 0 0 0 0 0 0 0 0 461 898 562 1 0 0 0 0 0 0 0 0 0 0 0 0 0 0 0 0 0 0 0
0 0 0 0 0 0 0 0 0 0 0 0 0 0 0 0 0 0 0 0 0 0 0 0 0 0 0 800 535 145 327 176 90 0 0 0 0 0 0 0 0 0 0 0 0 0 0 0 0
0 0 0 0 0 0 0 0 0 0 0 0 0 0 0 0 0 0 0 0 0 0 0 0 0 0 0 369 869 433 306 320 27 0 0 0 0 0 0 0 0 0 0 0 0 0 0 0 0
0 0 0 0 0 0 0 0 0 0 0 0 0 0 0 0 0 0 0 0 0 0 0 0 0 0 0 8 730 570 443 0 0 0 0 0 0 0 0 0 0 0 0 0 0 0 0 0 0
0 0 0 0 0 0 0 0 0 0 0 0 0 0 0 0 0 0 0 0 0 0 0 0 0 0 0 0 391 664 389 0 0 0 0 0 0 0 0 0 0 0 0 0 0 0 0 0 0
0 0 0 0 0 0 0 0 0 0 0 0 0 0 0 0 0 0 0 0 0 0 0 0 0 0 0 0 0 562 278 0 0 0 0 0 0 0 0 0 0 0 0 0 0 0 0 0 0
0 0 0 0 0 0 0 0 0 0 0 0 0 0 0 0 0 0 0 0 0 0 0 0 0 0 0 0 0 202 96 0 0 0 0 0 0 0 0 0 0 0 0 0 0 0 0 0 0
0 0 0 0 0 0 0 0 0 0 0 0 0 0 0 0 0 0 0 0 0 0 0 0 0 0 0 0 0 49 1 0 0 0 0 0 0 0 0 0 0 0 0 0 0 0 0 0 0
0 0 0 0 0 0 0 0 0 0 0 0 0 0 0 0 0 0 0 0 0 0 0 0 0 0 0 0 4 7 0 0 0 0 0 0 0 0 0 0 0 0 0 0 0 0 0 0 0
0 0 0 0 0 0 0 0 0 0 0 0 0 0 0 0 0 0 0 0 0 0 0 0 0 0 0 0 54 0 0 0 0 0 0 0 0 0 0 0 0 0 0 0 0 0 0 0 0

GFSSGP_con_sbcape_030.txt.gz
CAPE
16 0 0 0 0 0 0 0 0 0 0 0 0 0 0 0 0 0 0 77 223 415 573 530 1202 952 763 1082 1024 1024 1026 1061 762 229 99 21 2 0 0 0 0 3 2 47 46 28 6 7 0
0 0 0 0 0 0 0 0 0 0 0 0 0 0 0 0 0 28 64 127 393 496 415 199 657 771 450 590 663 763 833 831 531 300 126 46 1 0 0 1 3 7 18 32 12 3 6 1 0
0 0 0 0 0 0 0 0 0 0 0 0 0 0 0 0 0 25 9 352 462 419 292 164 724 593 330 306 293 407 607 746 598 321 152 49 0 0 0 1 3 5 2 1 0 0 0 0 1
0 0 0 0 0 0 0 0 0 0 0 0 0 0 0 0 0 3 329 520 418 315 253 507 886 671 407 218 118 126 142 308 634 337 117 29 0 0 0 0 2 3 1 1 0 0 0 0 2
0 0 0 0 0 0 0 0 0 0 0 0 0 0 0 0 22 407 548 544 480 172 297 669 922 469 211 175 362 401 208 265 551 412 136 61 19 0 0 0 0 3 5 3 0 1 6 17 16
0 0 0 0 0 0 0 0 0 0 0 0 0 0 0 0 304 362 528 463 374 286 496 511 621 626 391 416 454 349 341 328 263 290 221 109 57 24 0 0 0 2 10 35 18 35 60 4 0
0 0 0 0 0 0 0 0 0 0 0 0 0 0 0 0 306 373 402 335 331 384 474 419 428 452 433 478 445 268 330 296 308 313 289 260 225 133 42 14 8 15 57 62 86 160 28 0 0
0 0 0 0 0 0 0 0 0 0 0 0 0 0 0 0 674 420 362 291 326 439 446 352 340 357 223 273 483 367 319 278 332 344 315 239 243 297 167 160 126 27 101 153 219 69 0 0 0
0 0 0 0 0 0 0 0 0 0 0 0 0 0 0 0 495 423 477 509 496 435 451 379 329 303 189 124 233 341 328 279 299 315 247 175 101 191 181 89 164 127 267 177 109 1 0 0 0
0 0 0 0 0 0 0 0 0 0 0 0 0 0 0 241 634 500 464 621 455 427 395 516 488 321 219 258 132 141 167 174 166 181 87 19 56 105 129 95 175 230 298 159 13 0 0 0 0
0 0 0 0 0 0 0 0 0 0 0 0 0 0 0 0 342 453 543 574 608 349 327 351 350 416 237 294 101 54 66 89 66 81 21 6 38 71 64 42 68 56 34 0 0 0 0 0 0
0 0 0 0 0 0 0 0 0 0 0 0 0 0 0 0 0 121 515 607 653 621 440 438 343 371 275 204 130 58 36 24 22 22 14 0 12 33 22 13 3 0 0 0 0 0 0 0 0
0 0 0 0 0 0 0 0 0 0 0 0 0 0 0 0 0 0 0 150 534 604 564 563 467 418 260 181 162 60 46 20 46 12 3 0 0 11 0 0 0 0 0 0 0 0 0 0 0
0 0 0 0 0 0 0 0 0 0 0 0 0 0 0 0 0 0 0 0 333 764 786 635 573 453 384 286 218 85 44 23 0 0 0 0 0 0 0 0 0 0 0 0 0 0 0 0 0
0 0 0 0 0 0 0 0 0 0 0 0 0 0 0 0 0 0 0 0 0 75 838 685 705 602 467 302 251 100 55 17 0 0 0 0 0 0 0 0 0 0 0 0 0 0 0 0 0
0 0 0 0 0 0 0 0 0 0 0 0 0 0 0 0 0 0 0 0 0 0 0 587 885 787 580 467 367 169 67 38 0 0 0 0 0 0 0 0 0 0 0 0 0 0 0 0 0
0 0 0 0 0 0 0 0 0 0 0 0 0 0 0 0 0 0 0 0 0 0 0 0 710 880 768 658 442 227 88 20 3 0 0 0 0 0 0 0 0 0 0 0 0 0 0 0 0
2 0 0 0 0 0 0 0 0 0 0 0 0 0 0 0 0 0 0 0 0 0 0 0 1 809 837 770 521 254 57 26 0 0 0 0 0 0 0 0 0 0 0 0 0 0 0 0 0
0 0 0 0 0 0 0 0 0 0 0 0 0 0 0 0 0 0 0 0 0 0 0 0 0 2 804 882 634 444 181 93 0 18 0 0 0 0 0 0 0 0 0 0 0 0 0 0 0
0 0 0 0 0 0 0 0 0 0 0 0 0 0 0 0 0 0 0 0 0 0 0 0 0 0 204 702 733 591 508 211 115 47 26 0 0 0 0 0 0 0 0 0 0 0 0 0 0
1 0 0 0 0 0 0 0 0 0 0 0 0 0 0 0 0 0 0 0 0 0 0 0 0 0 24 468 568 1 0 0 0 0 0 0 0 0 0 0 0 0 0 0 0 0 0 0 0
0 0 0 0 0 0 0 0 0 0 0 0 0 0 0 0 0 0 0 0 0 0 0 0 0 0 0 185 469 364 451 371 39 111 53 0 0 0 0 0 0 0 0 0 0 0 0 0 0
0 0 0 0 0 0 0 0 0 0 0 0 0 0 0 0 0 0 0 0 0 0 0 0 0 0 0 0 524 227 335 312 8 96 0 0 0 0 0 0 0 0 0 0 0 0 0 0 0
0 0 0 0 0 0 0 0 0 0 0 0 0 0 0 0 0 0 0 0 0 0 0 0 0 0 0 0 93 484 427 315 0 0 0 0 0 0 0 0 0 0 0 0 0 0 0 0 0
0 0 0 0 0 0 0 0 0 0 0 0 0 0 0 0 0 0 0 0 0 0 0 0 0 0 0 0 0 460 458 293 0 0 0 0 0 0 0 0 0 0 0 0 0 0 0 0 0
0 0 0 0 0 0 0 0 0 0 0 0 0 0 0 0 0 0 0 0 0 0 0 0 0 0 0 0 0 15 467 94 0 0 0 0 0 0 0 0 0 0 0 0 0 0 0 0 0
0 0 0 0 0 0 0 0 0 0 0 0 0 0 0 0 0 0 0 0 0 0 0 0 0 0 0 0 0 0 8 14 0 0 0 0 0 0 0 0 0 0 0 0 0 0 0 0 0
0 0 0 0 0 0 0 0 0 0 0 0 0 0 0 0 0 0 0 0 0 0 0 0 0 0 0 0 0 0 0 38 0 0 0 0 0 0 0 0 0 0 0 0 0 0 0 0 0
0 0 0 0 0 0 0 0 0 0 0 0 0 0 0 0 0 0 0 0 0 0 0 0 0 0 0 0 0 0 0 0 0 0 0 0 0 0 0 0 0 0 0 0 0 0 0 0 0
0 0 0 0 0 0 0 0 0 0 0 0 0 0 0 0 0 0 0 0 0 0 0 0 0 0 0 0 0 0 0 0 0 0 0 0 0 0 0 0 0 0 0 0 0 0 0 0 0

GFSSGP_con_sbcape_033.txt.gz
CAPE
7 0 0 0 0 0 0 0 0 0 0 0 0 0 0 0 0 0 2 222 161 312 867 555 1228 1164 1104 1328 1355 1495 1388 1214 750 387 107 27 2 0 0 0 0 0 63 87 98 36 1 0 0
0 0 0 0 0 0 0 0 0 0 0 0 0 0 0 0 0 21 166 224 341 638 681 372 1081 1169 1296 1422 1506 1399 1206 845 824 322 80 28 0 0 0 0 0 0 36 25 10 5 2 0 0
0 0 0 0 0 0 0 0 0 0 0 0 0 0 0 0 0 74 37 456 510 642 384 224 882 842 634 850 895 1031 1051 866 619 334 112 29 0 0 0 3 6 6 22 6 1 1 0 1 3
0 0 0 0 0 0 0 0 0 0 0 0 0 0 0 0 0 24 348 605 558 533 262 422 885 764 684 679 541 666 765 934 698 451 129 9 0 1 1 3 2 0 0 0 0 0 0 0 2
0 0 0 0 0 0 0 0 0 0 0 0 0 0 0 0 183 428 601 623 582 504 342 307 957 719 485 417 398 484 364 602 756 361 109 20 0 1 1 1 1 3 1 0 1 8 27 23 5
0 0 0 0 0 0 0 0 0 0 0 0 0 0 0 34 389 310 420 596 538 537 500 416 727 605 493 406 481 453 352 267 730 542 163 62 5 1 0 1 9 13 19 16 39 61 31 0 0
0 0 0 0 0 0 0 0 0 0 0 0 0 0 0 0 385 340 344 326 439 609 625 547 436 372 417 554 516 463 589 706 650 562 437 216 173 47 0 11 21 36 103 88 99 83 0 0 0
0 0 0 0 0 0 0 0 0 0 0 0 0 0 0 0 335 364 296 225 696 738 622 527 470 384 220 337 339 274 397 370 402 345 257 189 175 179 101 77 70 63 133 139 187 11 0 0 0
0 0 0 0 0 0 0 0 0 0 0 0 0 0 0 52 378 364 283 430 593 652 681 575 507 427 221 321 235 233 266 242 240 209 167 115 139 160 115 55 91 125 256 224 95 0 0 0 0
0 0 0 0 0 0 0 0 0 0 0 0 0 0 6 203 296 318 321 535 391 525 389 523 573 484 254 189 281 234 187 210 211 210 237 203 220 253 182 83 113 168 245 177 11 0 0 0 0
0 0 0 0 0 0 0 0 0 0 0 0 0 0 0 122 332 314 296 356 413 378 247 411 315 501 456 214 210 237 224 210 255 252 222 159 153 222 283 226 240 187 39 0 0 0 0 0 0
0 0 0 0 0 0 0 0 0 0 0 0 0 0 0 0 75 245 309 364 391 493 391 308 233 237 343 469 226 154 172 189 194 207 188 90 160 217 288 244 236 169 68 0 0 0 0 0 0
0 0 0 0 0 0 0 0 0 0 0 0 0 0 0 0 0 5 180 429 518 542 533 426 317 306 346 278 375 191 126 168 176 149 130 51 146 226 225 202 156 111 8 0 0 0 0 0 0
0 0 0 0 0 0 0 0 0 0 0 0 0 0 0 0 0 0 0 0 570 915 805 564 430 455 401 324 294 281 157 103 125 121 105 47 75 199 178 134 101 50 0 0 0 0 0 0 0
0 0 0 0 0 0 0 0 0 0 0 0 0 0 0 0 0 0 0 0 0 303 844 846 674 510 484 409 272 275 218 115 92 76 70 49 7 93 148 116 65 30 0 0 0 0 0 0 0
0 0 0 0 0 0 0 0 0 0 0 0 0 0 0 0 0 0 0 0 0 0 12 737 820 729 598 526 365 261 241 179 107 55 23 28 13 0 50 80 56 2 0 0 0 0 0 0 0
0 0 0 0 0 0 0 0 0 0 0 0 0 0 0 0 0 0 0 0 0 0 0 0 628 988 863 620 509 297 188 291 229 53 19 0 0 0 0 1 19 0 0 0 0 0 0 0 0
0 0 0 0 0 0 0 0 0 0 0 0 0 0 0 0 0 0 0 0 0 0 0 0 0 548 1089 939 448 376 232 163 262 88 31 0 0 0 0 0 0 0 0 0 0 0 0 0 0
0 0 0 0 0 0 0 0 0 0 0 0 0 0 0 0 0 0 0 0 0 0 0 0 0 0 759 901 665 490 512 237 114 139 55 7 6 0 0 0 0 0 0 0 0 0 0 0 0
0 0 0 0 0 0 0 0 0 0 0 0 0 0 0 0 0 0 0 0 0 0 0 0 0 0 0 658 708 536 503 401 294 118 86 7 0 0 0 0 0 0 0 0 0 0 0 0 0
0 0 0 0 0 0 0 0 0 0 0 0 0 0 0 0 0 0 0 0 0 0 0 0 0 0 0 41 734 228 18 1 220 57 118 70 21 0 0 0 0 0 0 0 0 0 0 0 0
0 0 0 0 0 0 0 0 0 0 0 0 0 0 0 0 0 0 0 0 0 0 0 0 0 0 0 3 420 433 144 152 228 302 309 264 21 1 0 0 0 0 0 0 0 0 0 0 0
0 0 0 0 0 0 0 0 0 0 0 0 0 0 0 0 0 0 0 0 0 0 0 0 0 0 0 0 220 572 444 499 564 355 327 195 1 0 0 0 0 0 0 0 0 0 0 0 0
0 0 0 0 0 0 0 0 0 0 0 0 0 0 0 0 0 0 0 0 0 0 0 0 0 0 0 0 0 280 500 479 491 188 291 200 1 1 0 0 0 0 0 0 0 0 0 0 0
0 0 0 0 0 0 0 0 0 0 0 0 0 0 0 0 0 0 0 0 0 0 0 0 0 0 0 0 0 0 60 466 370 208 249 112 0 1 0 0 0 0 0 0 0 0 0 0 0
0 0 0 0 0 0 0 0 0 0 0 0 0 0 0 0 0 0 0 0 0 0 0 0 0 0 0 0 0 0 0 21 225 74 59 65 0 0 0 0 0 0 0 0 0 0 0 0 0
0 0 0 0 0 0 0 0 0 0 0 0 0 0 0 0 0 0 0 0 0 0 0 0 0 0 0 0 0 0 0 0 1 0 15 56 0 0 0 0 0 0 0 0 0 0 0 0 0
0 0 0 0 0 0 0 0 0 0 0 0 0 0 0 0 0 0 0 0 0 0 0 0 0 0 0 0 0 0 0 0 0 0 15 13 0 0 0 0 0 0 0 0 0 0 0 0 0
0 0 0 0 0 0 0 0 0 0 0 0 0 0 0 0 0 0 0 0 0 0 0 0 0 0 0 0 0 0 0 1 0 0 1 0 0 0 0 0 0 0 0 0 0 0 0 0 0
0 0 0 0 0 0 0 0 0 0 0 0 0 0 0 0 0 0 0 0 0 0 0 0 0 0 0 0 0 0 0 0 0 0 0 0 0 0 0 0 0 0 0 0 0 0 0 0 0

GFSSGP_con_sbcape_036.txt.gz
CAPE
90 0 0 0 0 0 0 0 0 0 0 0 0 0 0 0 0 13 197 567 288 753 594 336 1530 1636 1887 2044 1956 1916 1811 1547 881 448 123 21 4 0 0 0 0 64 196 93 70 21 0 0 0
15 0 0 0 0 0 0 0 0 0 0 0 0 0 0 0 8 314 474 570 349 684 548 354 1085 959 1285 1793 1752 1750 1467 1360 767 349 49 1 0 0 0 0 0 64 50 23 11 3 0 0 0
0 0 0 0 0 0 0 0 0 0 0 0 0 0 0 0 36 286 457 611 471 737 601 522 939 935 1363 1481 1650 1533 1362 1117 763 435 69 0 0 0 1 1 1 21 9 5 2 0 1 0 3
0 0 0 0 0 0 0 0 0 0 0 0 0 0 0 0 41 293 696 611 678 679 519 490 933 903 1259 1000 1278 1406 1177 894 604 360 54 0 0 0 2 4 0 0 0 0 0 0 0 0 7
0 0 0 0 0 0 0 0 0 0 0 0 0 0 0 102 544 557 840 754 717 533 379 350 876 863 738 648 646 904 1047 1017 658 269 53 0 0 1 2 1 0 0 0 0 0 3 7 4 0
1 0 0 0 0 0 0 0 0 0 0 0 0 0 0 280 744 785 874 849 716 573 390 308 604 758 570 506 531 589 578 953 899 511 92 8 0 2 1 2 4 2 2 5 22 53 1 0 0
5 0 0 0 0 0 0 0 0 0 0 0 0 0 0 179 802 553 756 929 824 668 448 306 353 290 398 477 474 496 423 513 924 544 375 189 61 12 1 24 32 49 59 65 101 5 0 0 0
0 13 12 1 0 0 0 0 0 0 0 0 0 0 0 99 626 508 468 511 898 816 550 388 333 230 172 189 429 349 550 834 767 481 335 198 135 97 40 99 80 116 157 170 92 0 0 0 0
0 1 6 0 0 0 0 0 0 0 0 0 0 0 0 23 458 477 395 520 902 872 700 473 299 173 140 182 168 185 240 252 265 234 163 85 73 45 23 18 84 159 178 241 26 0 0 0 0
0 0 0 0 0 0 0 0 0 0 0 0 0 0 195 374 401 446 392 442 482 688 743 600 362 185 162 146 195 95 91 159 173 166 145 106 95 89 39 24 66 198 268 213 5 0 0 0 0
0 0 0 0 0 0 0 0 0 0 0 0 0 0 65 370 632 573 467 554 506 465 489 489 429 300 240 155 194 173 101 126 146 135 112 107 123 198 196 121 117 94 67 88 0 0 0 0 0
0 0 0 0 0 0 0 0 0 0 0 0 0 0 0 240 523 515 442 500 499 545 502 349 367 418 365 302 208 209 147 134 134 135 130 182 230 243 233 221 129 92 83 37 0 0 0 0 0
0 0 0 0 0 0 0 0 0 0 0 0 0 0 0 0 47 521 685 659 729 638 468 478 445 462 319 382 507 309 248 157 114 153 149 153 197 268 264 234 191 153 90 8 0 0 0 0 0
0 0 0 0 0 0 0 0 0 0 0 0 0 0 0 0 0 0 98 559 909 1016 901 682 604 499 382 304 393 700 479 240 163 126 142 167 146 200 236 219 200 167 139 20 0 0 0 0 0
0 0 0 0 0 0 0 0 0 0 0 0 0 0 0 0 0 0 0 0 2 178 751 1092 945 813 620 607 582 517 874 573 302 187 124 120 102 127 195 279 272 224 155 41 0 0 0 0 0
4 0 0 0 0 0 0 0 0 0 0 0 0 0 0 0 0 0 0 0 0 0 0 46 578 1034 870 742 706 690 566 875 742 439 223 124 84 73 149 233 306 290 146 23 0 0 0 0 0
10 0 0 0 0 0 0 0 0 0 0 0 0 0 0 0 0 0 0 0 0 0 0 0 0 469 894 979 767 737 658 574 1081 851 516 277 138 84 65 135 188 187 126 0 0 0 0 0 0
0 0 0 0 0 0 0 0 0 0 0 0 0 0 0 0 0 0 0 0 0 0 0 0 0 0 296 957 802 719 698 569 633 1071 875 575 361 173 89 49 81 117 83 0 0 0 0 0 0
0 0 0 0 0 0 0 0 0 0 0 0 0 0 0 0 0 0 0 0 0 0 0 0 0 0 0 200 886 633 482 571 428 591 1038 855 606 355 170 67 48 79 48 0 0 0 0 0 0
0 0 0 0 0 0 0 0 0 0 0 0 0 0 0 0 0 0 0 0 0 0 0 0 0 0 0 0 229 750 785 623 570 445 382 898 741 566 320 156 100 46 16 0 0 0 0 0 0
0 0 0 0 0 0 0 0 0 0 0 0 0 0 0 0 0 0 0 0 0 0 0 0 0 0 0 0 0 396 770 821 711 565 476 411 862 621 501 263 201 91 11 11 0 0 0 0 0
7 0 0 0 0 0 0 0 0 0 0 0 0 0 0 0 0 0 0 0 0 0 0 0 0 0 0 0 0 0 351 379 365 367 567 519 449 670 658 352 199 64 0 0 0 0 0 0 0
2 0 0 0 0 0 0 0 0 0 0 0 0 0 0 0 0 0 0 0 0 0 0 0 0 0 0 0 0 0 20 26 49 216 529 539 458 371 474 274 204 77 1 0 0 0 0 0 0
0 0 0 0 0 0 0 0 0 0 0 0 0 0 0 0 0 0 0 0 0 0 0 0 0 0 0 0 0 0 0 57 77 382 781 773 663 248 239 189 229 78 29 5 1 0 0 0 0
0 1 12 4 5 1 0 0 0 0 0 0 0 0 0 0 0 0 0 0 0 0 0 0 0 0 0 0 0 0 0 0 92 334 519 596 641 246 105 193 161 140 18 9 3 0 0 0 0
0 2 4 0 0 0 0 0 0 0 0 0 0 0 0 0 0 0 0 0 0 0 0 0 0 0 0 0 0 0 0 0 0 41 243 344 352 499 257 109 136 114 41 3 2 0 0 0 0
1 3 0 0 0 0 0 0 0 0 0 0 0 0 0 0 0 0 0 0 0 0 0 0 0 0 0 0 0 0 0 0 0 0 10 109 246 405 475 325 188 109 9 4 2 5 1 0 0
0 0 0 0 0 0 0 0 0 0 0 0 0 0 0 0 0 0 0 0 0 0 0 0 0 0 0 0 0 0 0 0 0 0 0 28 134 229 200 277 182 22 0 0 0 1 1 0 0
0 0 0 0 0 0 0 0 0 0 0 0 0 0 0 0 0 0 0 0 0 0 0 0 0 0 0 0 0 0 0 0 0 0 0 0 5 44 74 66 32 10 0 0 0 0 0 0 0
0 0 0 0 0 0 0 0 0 0 0 0 0 0 0 0 0 0 0 0 0 0 0 0 0 0 0 0 0 0 0 0 0 0 0 0 0 0 0 0 0 0 0 0 0 0 0 0 0

GFSSGP_con_sbcape_039.txt.gz
CAPE
48 25 0 0 0 0 0 0 0 0 0 0 0 0 0 0 7 97 439 626 377 977 602 559 1996 1970 2152 2178 1896 1962 1818 1567 928 461 153 13 0 0 0 0 32 123 71 90 34 1 0 0 0
26 0 0 0 0 1 0 0 0 0 0 0 0 0 0 0 19 566 770 672 458 757 445 480 1487 1652 2108 2046 2148 1858 1585 1235 696 233 16 0 0 0 0 0 53 67 63 40 16 0 0 0 1
118 0 0 0 0 0 0 0 0 0 0 0 0 0 0 26 111 445 781 532 619 611 351 645 1162 1320 1883 1975 1809 1638 1658 1177 621 227 0 0 0 0 0 2 30 18 12 9 4 0 0 0 2
49 0 0 8 1 0 0 0 0 0 0 0 0 0 0 52 203 577 720 475 640 577 475 445 715 797 1081 1335 1654 1486 1115 824 354 124 2 0 0 2 4 8 1 0 0 0 0 0 0 0 5
53 30 9 3 0 0 0 0 0 0 0 0 0 0 5 566 501 787 676 560 635 490 552 375 853 1010 864 960 1225 1507 1299 878 441 150 3 0 1 3 3 0 0 0 0 0 0 1 3 2 0
30 26 29 21 2 0 1 0 0 0 0 0 0 0 55 684 788 920 782 764 590 419 455 338 502 552 688 578 575 948 1042 1046 576 274 39 0 0 1 1 0 0 0 0 0 21 8 0 0 0
26 49 21 30 23 1 0 0 0 0 0 0 0 0 28 590 1021 972 896 791 688 478 319 299 247 269 375 428 401 494 458 889 826 377 186 72 27 6 0 1 5 9 17 45 79 0 0 0 0
81 82 51 46 26 0 0 0 0 0 0 0 0 0 3 398 892 816 884 950 853 650 350 295 277 207 134 123 321 339 271 363 751 375 232 84 23 33 35 71 48 124 101 122 9 0 0 0 0
0 74 68 51 34 4 0 0 0 0 0 0 0 0 0 333 723 553 509 687 919 769 532 345 242 164 92 86 128 158 270 511 386 202 114 21 2 0 0 7 82 126 151 191 0 0 0 0 0
0 81 43 40 38 12 4 0 0 0 0 0 0 0 75 421 588 494 456 515 878 742 673 426 213 136 89 100 157 88 123 176 210 215 156 64 20 4 0 0 41 136 283 154 0 0 0 0 0
0 0 1 70 8 3 0 0 0 0 0 0 0 0 30 247 603 601 533 692 527 604 682 554 387 156 90 90 161 73 69 89 130 134 151 86 41 61 20 41 0 76 88 89 0 0 0 0 0
0 0 1 28 0 0 0 0 0 0 0 0 0 0 0 138 296 458 682 751 803 576 467 447 493 348 194 156 147 158 97 84 106 106 80 53 95 153 72 51 27 2 128 92 8 0 0 0 0
0 0 0 0 0 0 0 0 0 0 0 0 0 0 0 0 11 328 499 639 652 798 579 454 405 517 364 279 233 226 206 114 91 90 104 85 150 244 174 109 97 59 39 41 2 0 0 0 0
2 1 0 0 0 0 0 0 0 0 0 0 0 0 0 0 0 0 230 570 617 675 784 650 474 557 608 371 515 667 445 332 139 100 116 79 106 168 325 214 154 121 112 54 6 0 0 0 0
22 6 1 0 0 0 0 0 0 0 0 0 0 0 0 0 0 0 0 2 212 507 805 938 863 809 771 722 448 553 990 626 426 200 104 95 88 104 106 161 230 177 130 97 19 0 0 0 0
26 29 11 0 0 0 0 0 0 0 0 0 0 0 0 0 0 0 0 0 0 0 0 308 842 962 972 914 926 487 790 1018 806 539 326 151 110 103 114 177 278 177 157 160 55 0 0 0 0
42 2 0 0 0 0 0 0 0 0 0 0 0 0 0 0 0 0 0 0 0 0 0 0 0 238 837 1044 950 717 602 682 1189 985 751 475 254 118 104 172 280 226 208 137 86 0 0 0 0
0 0 0 0 0 0 0 0 0 0 0 0 0 0 0 0 0 0 0 0 0 0 0 0 0 0 5 405 771 923 687 656 530 1180 1236 878 652 456 293 162 169 264 303 102 55 0 0 0 0
0 0 0 0 0 0 0 0 0 0 0 0 0 0 0 0 0 0 0 0 0 0 0 0 0 0 0 0 190 1021 924 654 571 587 1118 1213 1016 723 591 405 218 222 236 185 42 0 0 0 0
0 1 0 0 0 0 0 0 0 0 0 0 0 0 0 0 0 0 0 0 0 0 0 0 0 0 0 0 0 399 944 546 511 592 566 862 1251 1112 911 671 458 256 245 196 47 0 0 0 0
15 4 0 0 0 0 0 0 0 0 0 0 0 0 0 0 0 0 0 0 0 0 0 0 0 0 0 0 0 0 310 983 904 644 614 681 820 1276 894 863 707 507 324 256 111 0 0 0 0
26 13 1 0 0 0 0 0 0 0 0 0 0 0 0 0 0 0 0 0 0 0 0 0 0 0 0 0 0 0 0 204 719 657 905 868 691 819 1012 725 651 611 402 264 151 4 0 0 0
40 2 0 0 0 0 0 0 0 0 0 0 0 0 0 0 0 0 0 0 0 0 0 0 0 0 0 0 0 0 0 0 168 303 288 336 775 536 618 695 636 392 432 324 93 5 0 0 0
0 0 0 0 0 3 0 0 0 0 0 0 0 0 0 0 0 0 0 0 0 0 0 0 0 0 0 0 0 0 0 0 0 100 132 214 486 846 419 326 486 472 305 209 83 21 0 0 0
0 13 26 18 22 2 0 0 0 0 0 0 0 0 0 0 0 0 0 0 0 0 0 0 0 0 0 0 0 0 0 0 0 4 129 324 478 754 407 296 384 344 306 228 93 31 0 0 0
0 19 59 9 8 1 0 0 0 0 0 0 0 0 0 0 0 0 0 0 0 0 0 0 0 0 0 0 0 0 0 0 0 0 0 20 159 304 548 392 207 263 311 256 179 46 3 1 0
2 2 0 0 0 0 0 0 0 0 0 0 0 0 0 0 0 0 0 0 0 0 0 0 0 0 0 0 0 0 0 0 0 0 0 0 1 34 165 383 349 212 323 268 157 45 5 0 0
4 0 2 0 0 0 0 0 0 0 0 0 0 0 0 0 0 0 0 0 0 0 0 0 0 0 0 0 0 0 0 0 0 0 0 0 0 5 75 172 136 191 231 230 90 14 0 0 0
1 4 0 0 0 0 0 0 0 0 0 0 0 0 0 0 0 0 0 0 0 0 0 0 0 0 0 0 0 0 0 0 0 0 0 1 0 0 1 2 25 40 79 6 0 0 0 0 0
0 0 0 1 0 0 0 0 0 0 0 0 0 0 0 0 0 0 0 0 0 0 0 0 0 0 0 0 0 0 0 0 3 1 1 0 1 0 0 0 0 0 0 0 0 0 0 0 0

GFSSGP_con_sbcape_042.txt.gz
CAPE
36 0 0 0 0 0 0 0 0 0 0 0 0 0 0 0 169 360 440 459 1074 669 766 1211 1986 2070 2122 2331 2039 1908 1554 1690 1212 491 103 0 0 0 0 4 88 68 76 50 2 0 0 0 0
11 16 0 0 0 0 0 0 0 0 0 0 0 0 0 40 509 306 635 493 830 518 507 831 1980 2181 2297 2263 1997 1851 1720 1349 712 195 21 0 0 0 0 81 73 138 51 17 0 0 0 2 3
50 75 0 0 0 0 0 0 0 0 0 0 0 0 0 36 226 603 674 366 603 291 329 747 1506 2098 2137 2203 2022 1850 1502 979 552 63 0 0 0 0 4 65 23 21 14 15 0 0 2 3 4
69 14 0 0 0 0 0 0 0 0 0 0 0 0 12 219 381 614 493 417 395 182 442 761 1064 1658 1864 1725 1715 1712 1163 637 356 34 0 0 0 2 18 12 2 0 0 0 0 0 0 2 0
102 26 1 0 0 0 0 0 0 0 0 0 0 0 211 396 559 486 366 457 365 303 221 211 1018 1240 1050 1189 1449 1267 811 789 318 57 0 0 1 5 10 1 0 0 0 0 0 2 3 0 0
42 28 15 0 0 0 0 0 0 0 0 0 0 7 406 468 669 509 418 435 302 391 255 153 710 834 833 807 933 1266 1064 826 453 116 0 0 2 1 1 1 0 0 0 3 17 2 0 0 0
14 12 0 0 0 1 0 0 0 0 0 0 0 0 369 815 841 665 582 447 276 286 215 133 133 236 449 415 472 655 1104 983 594 248 86 58 12 1 0 0 0 0 10 44 10 0 0 0 0
55 25 22 0 5 6 0 5 0 0 0 0 0 0 467 793 781 806 675 567 383 216 194 112 111 103 70 99 141 148 144 792 456 206 89 18 0 0 3 27 45 59 49 108 0 0 0 0 0
61 54 20 0 0 15 2 3 0 0 0 0 0 12 309 793 556 485 519 717 552 358 188 111 120 84 53 51 74 132 126 160 203 121 29 2 0 0 0 0 24 103 217 109 0 0 0 0 0
93 41 3 0 19 34 3 4 0 0 0 0 0 0 309 580 476 397 384 576 705 542 315 148 108 50 22 23 61 49 110 125 153 101 21 7 0 0 0 0 45 107 211 97 0 0 0 0 0
7 1 4 67 66 0 0 0 0 0 0 0 0 0 54 381 397 475 390 399 470 533 492 237 114 38 41 51 58 35 71 73 107 112 49 38 4 0 0 0 1 37 63 0 0 0 0 0 0
0 0 2 40 1 0 0 0 0 0 0 0 0 0 0 93 343 465 447 543 476 487 460 410 295 86 43 44 51 18 0 24 36 56 93 58 7 4 4 2 0 4 39 35 0 0 0 0 0
0 0 0 2 0 0 0 0 0 0 0 0 0 0 0 0 5 170 423 497 556 475 361 370 316 289 106 78 36 26 0 0 2 19 26 18 15 37 23 8 1 0 13 6 0 0 0 0 0
0 0 0 4 0 0 0 0 0 0 0 0 0 0 0 0 0 0 264 358 402 493 458 357 329 300 312 155 163 91 100 0 13 13 24 18 21 67 38 34 35 19 12 0 0 0 0 0 0
12 0 0 0 0 0 0 0 0 0 0 0 0 0 0 0 0 0 0 16 329 336 558 453 346 311 398 248 172 186 289 212 54 16 11 11 0 22 39 45 26 34 40 26 0 0 0 0 0
16 12 10 0 0 0 0 0 0 0 0 0 0 0 0 0 0 0 0 0 0 0 50 573 694 589 445 431 257 228 217 273 330 117 2 0 0 0 15 21 35 45 59 51 9 0 0 0 0
37 0 0 0 0 0 0 0 0 0 0 0 0 0 0 0 0 0 0 0 0 0 0 0 0 554 625 553 538 366 337 353 428 624 214 59 0 18 11 8 20 51 56 62 59 0 0 0 0
0 0 0 0 0 0 0 0 0 0 0 0 0 0 0 0 0 0 0 0 0 0 0 0 0 0 0 490 608 542 394 432 367 414 538 365 107 17 0 0 8 46 39 49 55 0 0 0 0
0 0 0 0 0 0 0 0 0 0 0 0 0 0 0 0 0 0 0 0 0 0 0 0 0 0 0 0 10 651 486 330 388 350 299 325 503 159 91 0 0 12 41 85 30 0 0 0 0
5 0 0 0 0 0 0 0 0 0 0 0 0 0 0 0 0 0 0 0 0 0 0 0 0 0 0 0 0 0 566 453 355 269 315 356 340 381 182 152 49 27 2 9 0 0 0 0 0
0 0 0 0 0 0 0 0 0 0 0 0 0 0 0 0 0 0 0 0 0 0 0 0 0 0 0 0 0 0 0 236 242 184 247 362 409 292 332 380 136 74 18 7 8 0 0 0 0
9 0 1 0 0 0 0 0 0 0 0 0 0 0 0 0 0 0 0 0 0 0 0 0 0 0 0 0 0 0 0 0 49 320 288 301 268 344 476 446 417 325 83 36 18 0 0 0 0
24 14 1 1 0 0 0 0 0 0 0 0 0 0 0 0 0 0 0 0 0 0 0 0 0 0 0 0 0 0 0 0 0 0 65 213 347 431 384 465 483 416 260 146 34 35 0 0 0
33 0 0 0 1 0 0 0 0 0 0 0 0 0 0 0 0 0 0 0 0 0 0 0 0 0 0 0 0 0 0 0 0 0 0 6 2 88 220 297 359 330 338 307 241 34 0 0 0
0 1 4 19 12 0 0 0 0 0 0 0 0 0 0 0 0 0 0 0 0 0 0 0 0 0 0 0 0 0 0 0 0 0 0 0 17 32 134 140 108 182 254 319 260 68 19 0 0
0 0 8 0 0 0 0 0 0 0 0 0 0 0 0 0 0 0 0 0 0 0 0 0 0 0 0 0 0 0 0 0 0 0 0 0 0 0 12 65 22 57 187 269 239 146 86 20 0
0 0 0 0 0 0 0 0 0 0 0 0 0 0 0 0 0 0 0 0 0 0 0 0 0 0 0 0 0 0 0 0 0 0 0 0 0 0 0 0 16 4 131 254 286 239 141 117 2
0 0 0 0 0 0 0 0 0 0 0 0 0 0 0 0 0 0 0 0 0 0 0 0 0 0 0 0 0 0 0 0 0 0 0 0 0 0 0 0 0 0 19 80 166 147 116 39 0
0 0 0 0 0 0 0 0 0 0 0 0 0 0 0 0 0 0 0 0 0 0 0 0 0 0 0 0 0 0 0 0 0 0 0 0 0 0 0 0 0 0 0 0 0 0 0 0 0
0 0 0 0 0 0 0 0 0 0 0 0 0 0 0 0 0 0 0 0 0 0 0 0 0 0 0 0 0 0 0 0 0 0 0 0 0 0 0 0 0 0 0 0 0 0 0 0 0

GFSSGP_con_sbcape_045.txt.gz
CAPE
52 0 0 0 0 0 0 0 0 0 0 0 0 0 0 2 135 111 78 328 345 1008 1531 1649 2291 2455 2480 2306 2083 1814 1781 1670 1292 441 46 0 0 0 0 89 28 103 41 1 1 0 1 1 0
190 4 0 0 0 0 0 0 0 0 0 0 0 0 0 316 141 247 350 570 650 874 959 1297 2068 2327 2435 2207 1900 1678 1676 1290 872 163 13 0 0 0 114 88 149 81 20 0 0 0 2 2 0
71 3 0 0 0 0 0 0 0 0 0 0 0 0 0 0 234 334 263 588 552 505 660 1168 2179 2348 2335 2076 1835 1808 1387 977 429 18 0 0 0 1 196 113 92 18 13 0 0 1 3 2 0
39 0 0 0 0 0 0 0 0 0 0 0 0 6 28 47 338 501 227 408 292 218 518 1379 1906 2170 2091 1943 1807 1604 1065 606 152 2 0 0 0 11 51 27 5 5 2 0 0 1 3 0 0
6 0 0 0 0 0 0 0 0 0 0 0 0 0 259 265 313 273 84 163 217 289 290 437 1575 1850 1811 1746 1676 1151 1117 593 102 0 0 0 1 9 9 5 0 0 0 0 0 2 1 0 0
18 7 2 0 0 0 0 0 0 0 0 0 2 103 312 182 251 141 122 205 311 174 107 440 1016 1028 1113 1233 1238 955 1146 818 179 21 0 2 3 4 3 1 0 0 0 2 1 0 0 0 0
0 5 0 0 0 0 0 0 0 0 0 0 0 141 242 506 258 154 70 204 173 98 58 151 317 452 599 533 831 869 827 868 344 67 39 22 4 2 2 0 0 0 3 38 0 0 0 0 0
11 10 0 0 0 0 0 0 0 0 0 0 0 65 698 592 341 347 94 187 183 107 71 37 47 66 64 104 240 361 663 616 376 99 67 22 10 27 25 50 41 57 74 48 0 0 0 0 0
62 52 10 3 0 0 1 0 0 0 0 0 0 135 607 480 303 369 424 199 69 124 70 35 35 26 17 41 78 100 124 346 174 73 28 11 0 4 10 0 74 140 193 22 0 0 0 0 0
43 20 1 0 0 0 0 2 0 0 0 0 100 680 664 435 314 332 457 547 189 39 51 42 38 24 16 60 38 22 36 112 82 27 10 0 0 0 0 0 35 172 196 64 0 0 0 0 0
11 0 0 0 0 2 0 0 0 0 0 0 17 606 522 389 303 232 257 258 299 108 30 14 47 18 2 37 8 0 34 23 58 36 0 0 0 0 0 1 17 26 110 2 1 0 0 0 0
0 6 1 49 64 35 2 0 0 0 0 0 0 44 200 236 376 297 244 250 288 331 288 200 7 0 0 0 0 0 17 0 47 38 1 4 0 0 0 0 0 12 20 0 0 0 0 0 0
0 0 3 5 0 0 0 0 0 0 0 0 0 0 0 91 229 265 255 282 234 299 321 191 137 64 0 0 0 0 0 0 3 20 28 5 0 0 0 0 0 2 18 18 0 0 0 0 0
0 0 2 0 0 0 0 0 0 0 0 0 0 0 0 0 0 26 269 266 310 282 238 179 193 137 69 0 0 0 0 0 0 0 0 0 0 0 0 0 0 0 5 7 4 0 0 0 0
0 2 0 0 0 0 0 0 0 0 0 0 0 0 0 0 0 0 52 141 153 250 199 207 200 182 135 73 0 0 0 0 0 0 0 0 0 0 0 0 0 0 0 1 0 0 0 0 0
19 0 1 0 0 0 0 0 0 0 0 0 0 0 0 0 0 0 0 0 5 42 322 238 307 228 177 142 34 0 49 39 98 0 0 0 0 0 0 0 0 0 0 0 0 0 0 0 0
21 1 0 0 0 0 0 0 0 0 0 0 0 0 0 0 0 0 0 0 0 0 97 384 360 335 282 168 112 100 72 20 72 175 32 0 0 0 0 0 0 0 0 0 0 0 0 0 0
0 0 0 0 0 0 0 0 0 0 0 0 0 0 0 0 0 0 0 0 0 0 0 0 0 166 337 298 163 128 110 106 91 89 116 177 0 0 0 0 0 0 0 3 0 0 0 0 0
0 0 0 0 0 0 0 0 0 0 0 0 0 0 0 0 0 0 0 0 0 0 0 0 0 0 0 0 107 161 193 107 37 144 158 29 84 15 0 0 0 0 11 30 13 1 0 0 0
0 0 0 0 0 0 0 0 0 0 0 0 0 0 0 0 0 0 0 0 0 0 0 0 0 0 0 0 0 0 187 162 229 186 159 183 101 85 57 0 0 0 11 0 5 0 0 0 0
0 0 0 0 0 0 0 0 0 0 0 0 0 0 0 0 0 0 0 0 0 0 0 0 0 0 0 0 0 0 0 0 66 41 38 63 102 108 100 64 0 0 0 0 21 0 0 0 0
0 0 0 0 0 0 0 0 0 0 0 0 0 0 0 0 0 0 0 0 0 0 0 0 0 0 0 0 0 0 0 0 0 12 74 54 62 130 127 107 63 0 0 0 0 0 0 0 0
0 0 0 0 0 0 0 0 0 0 0 0 0 0 0 0 0 0 0 0 0 0 0 0 0 0 0 0 0 0 0 0 0 0 0 0 56 77 98 113 104 1 2 20 0 0 0 0 0
0 0 0 0 0 0 0 0 0 0 0 0 0 0 0 0 0 0 0 0 0 0 0 0 0 0 0 0 0 0 0 0 0 0 0 0 0 0 58 207 231 94 0 65 29 0 0 0 0
0 0 2 7 6 0 0 0 0 0 0 0 0 0 0 0 0 0 0 0 0 0 0 0 0 0 0 0 0 0 0 0 0 0 0 0 0 0 0 1 7 19 9 34 35 36 14 5 0
0 0 0 0 0 0 0 0 0 0 0 0 0 0 0 0 0 0 0 0 0 0 0 0 0 0 0 0 0 0 0 0 0 0 0 0 0 0 0 0 1 4 0 0 50 2 2 0 0
0 0 0 0 0 0 0 0 0 0 0 0 0 0 0 0 0 0 0 0 0 0 0 0 0 0 0 0 0 0 0 0 0 0 0 0 0 0 0 0 0 0 2 2 4 52 37 1 0
0 0 0 0 5 0 0 0 0 0 0 0 0 0 0 0 0 0 0 0 0 0 0 0 0 0 0 0 0 0 0 0 0 0 0 0 0 0 0 0 0 0 0 0 0 3 0 1 0
0 0 0 0 0 0 0 0 0 0 0 0 0 0 0 0 0 0 0 0 0 0 0 0 0 0 0 0 0 0 0 0 0 0 0 0 0 0 0 0 0 0 0 0 0 0 0 0 0
0 0 0 0 1 0 0 0 0 0 0 0 0 0 0 0 0 0 0 0 0 0 0 0 0 0 0 0 0 0 0 0 0 0 0 0 0 0 0 0 0 0 0 0 0 0 0 0 0

GFSSGP_con_sbcape_048.txt.gz
CAPE
131 0 0 0 0 0 0 0 0 0 0 0 0 17 62 8 48 0 7 280 904 1132 1478 2034 2420 2436 2433 2219 1823 1852 1775 1547 1060 233 33 0 0 0 57 6 96 17 4 1 0 1 0 0 0
132 0 0 0 0 0 0 0 0 0 0 0 0 0 15 252 114 352 327 578 807 1057 1445 1895 2450 2499 2298 2179 1907 1907 1813 1209 499 99 0 0 0 91 308 103 148 23 0 0 0 1 1 0 0
128 0 0 0 0 0 0 0 0 0 0 0 0 0 4 247 195 241 324 506 854 933 1136 1782 2311 2473 2332 1984 1882 1942 1571 671 206 2 0 0 0 422 349 285 54 6 0 0 0 2 0 0 0
7 0 0 0 0 0 0 0 0 0 0 0 0 71 84 52 291 340 539 547 389 412 769 1746 2161 2296 2129 1844 1883 1548 1127 377 75 0 0 0 6 231 96 63 19 7 1 0 0 2 0 0 0
0 0 0 0 0 0 0 0 0 0 0 0 0 52 243 262 109 535 489 365 332 407 810 1562 2217 2215 1963 1835 1754 1370 1233 385 25 0 0 0 21 82 26 4 3 0 0 0 1 1 0 0 0
6 0 0 0 0 0 0 0 0 0 0 0 137 182 171 0 85 339 156 277 381 362 371 741 1580 1845 1804 1698 1377 1287 1123 552 54 11 0 4 9 23 39 20 0 0 0 1 1 0 0 0 0
0 0 0 0 0 0 0 0 0 0 0 0 8 202 159 327 162 23 231 277 236 135 196 371 479 882 913 1049 979 1031 996 582 196 71 37 14 6 9 25 20 0 0 2 22 0 0 0 0 0
0 0 0 0 0 0 0 0 0 0 0 0 4 305 580 467 188 38 153 97 48 43 94 105 136 143 196 381 547 543 759 446 178 101 71 27 13 22 38 73 74 64 116 64 0 0 0 0 0
10 22 0 0 0 0 0 0 0 0 0 7 88 265 411 265 121 72 42 74 42 34 16 8 9 20 39 78 228 417 401 304 123 77 33 9 0 16 27 14 61 128 194 52 0 0 0 0 0
23 3 0 0 0 0 0 0 0 0 0 125 751 623 456 312 277 174 76 72 75 39 0 0 4 2 17 59 49 33 127 118 55 19 2 0 0 4 22 18 55 124 187 75 3 0 0 0 0
23 0 0 0 0 2 0 0 0 0 0 14 693 761 395 185 160 238 211 75 61 27 20 18 14 8 6 36 9 0 0 43 25 0 0 0 0 0 1 1 28 68 123 30 4 0 0 0 0
22 11 0 8 24 29 0 0 0 0 0 0 143 553 300 213 162 220 232 198 120 23 16 13 14 0 0 0 0 0 0 0 18 1 0 0 0 0 0 0 7 19 44 13 0 0 0 0 0
0 0 0 45 65 27 13 5 0 0 0 0 78 284 294 213 172 154 164 109 115 199 141 24 0 0 0 0 0 0 0 0 0 0 0 0 0 0 0 0 0 0 10 7 0 0 0 0 0
0 0 1 0 11 34 1 0 0 0 0 0 0 0 6 90 175 170 175 185 150 118 123 57 54 0 0 0 0 0 0 0 0 0 0 0 0 0 0 0 0 0 0 0 0 0 0 0 0
0 51 0 0 0 0 2 6 0 0 0 0 0 0 0 0 0 110 218 191 213 215 91 44 122 42 0 0 0 0 0 0 0 0 0 0 0 0 0 0 0 0 0 0 0 0 0 0 0
6 0 1 0 0 0 0 0 0 1 0 0 0 0 0 0 0 0 18 88 83 237 236 146 169 121 51 6 0 0 0 0 0 0 0 0 0 0 0 0 0 0 0 0 0 0 0 0 0
6 0 0 0 0 0 0 0 0 0 0 0 0 0 0 0 0 0 0 0 0 35 73 174 174 226 122 27 23 0 0 0 5 15 0 0 0 0 0 0 0 0 0 0 0 0 0 0 0
0 0 0 0 0 0 0 0 0 0 0 0 0 0 0 0 0 0 0 0 0 0 0 0 56 182 152 97 23 0 0 0 0 0 80 72 0 0 0 0 0 0 0 0 0 0 0 0 0
0 0 0 0 0 0 0 0 0 0 0 0 0 0 0 0 0 0 0 0 0 0 0 0 0 0 0 2 82 47 111 73 0 0 0 0 67 0 0 0 0 0 0 0 0 0 0 0 0
0 0 0 0 0 0 0 0 0 0 0 0 0 0 0 0 0 0 0 0 0 0 0 0 0 0 0 0 0 0 31 28 70 19 0 0 0 0 4 0 0 0 0 0 0 0 0 0 0
0 0 0 0 0 0 0 0 0 0 0 0 0 0 0 0 0 0 0 0 0 0 0 0 0 0 0 0 0 0 0 0 0 0 0 0 0 0 0 11 0 0 0 0 0 0 0 0 0
0 0 0 0 0 0 0 0 0 0 0 0 0 0 0 0 0 0 0 0 0 0 0 0 0 0 0 0 0 0 0 0 0 0 0 0 0 0 0 0 0 0 0 0 0 0 0 0 0
0 0 0 0 0 0 0 0 0 0 0 0 0 0 0 0 0 0 0 0 0 0 0 0 0 0 0 0 0 0 0 0 0 0 0 0 0 0 0 0 0 0 0 0 0 0 0 0 0
0 0 0 0 0 0 0 0 0 0 0 0 0 0 0 0 0 0 0 0 0 0 0 0 0 0 0 0 0 0 0 0 0 0 0 0 0 0 0 0 0 0 0 0 0 0 0 0 0
0 0 0 0 0 0 0 0 0 0 0 0 0 0 0 0 0 0 0 0 0 0 0 0 0 0 0 0 0 0 0 0 0 0 0 0 0 0 0 0 0 0 0 0 0 0 0 0 0
1 0 0 0 0 0 0 0 0 0 0 0 0 0 0 0 0 0 0 0 0 0 0 0 0 0 0 0 0 0 0 0 0 0 0 0 0 0 0 0 0 0 0 0 0 0 0 0 0
0 0 0 0 0 0 0 0 0 0 0 0 0 0 0 0 0 0 0 0 0 0 0 0 0 0 0 0 0 0 0 0 0 0 0 0 0 0 0 0 0 0 0 0 0 0 0 0 1
0 0 0 0 0 0 0 0 0 0 0 0 0 0 0 0 0 0 0 0 0 0 0 0 0 0 0 0 0 0 0 0 0 0 0 0 0 0 0 0 0 0 0 0 0 0 0 0 0
4 3 0 0 0 0 0 0 0 0 0 0 0 0 0 0 0 0 0 0 0 0 0 0 0 0 0 0 0 0 0 0 0 0 0 0 0 0 0 0 0 0 0 0 0 0 0 0 0
0 0 0 0 0 0 0 0 0 0 0 0 0 0 0 0 0 0 0 0 0 0 0 0 0 0 0 0 0 0 0 0 0 0 0 0 0 0 0 0 0 0 0 0 0 0 0 0 0

GFSSGP_con_sbcape_054.txt.gz
CAPE
273 0 0 0 0 0 0 0 0 0 0 0 0 0 0 9 0 0 2 200 711 1301 1630 1843 2109 2113 2185 2145 1716 1706 1484 1142 691 256 61 0 0 0 212 6 2 1 0 1 2 2 1 0 2
163 0 0 0 0 0 0 0 0 0 0 0 0 1 40 100 104 172 319 466 953 1345 1540 1572 2169 2318 2407 2159 1694 1600 1216 735 280 83 1 0 0 0 270 20 2 0 0 0 0 0 0 0 0
40 0 0 0 0 0 0 0 0 0 0 0 0 8 63 206 241 216 173 973 1068 1220 1591 1679 2121 2447 2241 1929 1856 1527 878 451 138 0 0 0 307 64 382 80 0 0 0 0 1 0 0 0 0
0 0 0 0 0 0 0 0 0 0 0 0 0 84 100 54 298 199 806 949 993 1324 1504 2037 2349 2327 2142 2044 1933 1446 733 336 53 0 0 433 469 302 322 90 0 0 0 0 1 1 0 0 0
0 0 0 0 0 0 0 0 0 0 0 0 0 95 233 74 208 603 718 758 817 1202 1574 1996 2351 2315 2137 2070 1902 1403 669 210 29 0 0 473 533 506 226 86 0 0 0 0 0 0 0 0 0
6 0 0 0 0 0 0 0 0 0 0 0 67 153 175 41 406 495 553 610 803 1147 1488 1855 2109 2122 1948 1980 1708 1327 870 150 31 8 4 305 282 292 176 86 29 0 0 0 0 0 0 0 0
1 0 0 0 0 0 0 0 0 0 0 0 0 200 156 183 212 185 229 384 609 867 1029 1374 1520 1645 1567 1616 1450 1213 872 458 107 56 41 107 140 164 128 96 57 29 0 1 0 0 0 0 0
6 1 0 0 0 0 0 0 0 0 0 0 0 60 341 219 70 141 156 202 300 471 557 850 971 1101 1017 1170 1143 898 649 431 231 78 62 45 26 49 114 74 65 53 46 45 21 0 0 0 0
12 23 1 0 0 0 0 0 0 0 0 0 66 165 174 51 118 121 98 57 112 223 224 214 375 482 410 489 725 466 302 165 92 51 24 13 0 14 22 21 38 84 114 78 25 9 0 0 0
55 55 1 0 0 0 2 0 0 0 0 0 0 0 12 87 273 238 219 195 197 201 102 50 65 63 50 185 173 240 90 52 27 11 0 0 0 0 12 9 22 62 136 77 22 8 1 0 0
42 6 0 0 0 1 1 0 0 0 0 0 0 0 0 0 82 139 157 134 166 24 33 20 16 2 23 43 29 38 44 21 5 0 0 0 0 0 0 0 9 18 47 35 20 1 0 0 0
50 0 0 0 1 9 0 0 0 0 0 0 0 0 0 0 10 173 186 112 60 49 8 0 0 0 3 6 10 0 23 8 0 0 0 0 0 0 0 0 0 0 3 16 0 0 0 0 0
41 0 0 28 2 0 1 0 0 0 0 0 0 0 0 15 46 80 156 111 20 47 0 4 0 0 0 0 0 0 0 1 0 0 0 0 0 0 0 0 0 0 0 0 0 0 0 0 0
21 27 13 30 13 33 13 1 0 0 0 0 0 0 0 0 61 35 165 231 129 78 30 11 13 2 0 0 0 0 0 0 0 0 0 0 0 0 0 0 0 0 0 0 0 0 0 0 0
15 56 54 54 58 60 18 4 0 0 0 0 0 0 0 0 4 135 183 206 124 88 71 54 26 7 0 0 0 0 0 0 0 0 0 0 0 0 0 0 0 0 0 0 0 0 0 0 0
32 4 60 6 23 22 0 0 0 0 0 0 0 0 0 0 0 10 61 161 142 120 129 96 128 42 0 0 0 0 0 0 0 0 0 0 0 0 0 0 0 0 0 0 0 0 0 0 0
0 4 0 0 18 31 0 0 0 0 0 0 0 0 0 0 0 0 0 22 52 80 96 115 105 91 12 0 0 0 0 0 0 0 0 0 0 0 0 0 0 0 0 0 0 0 0 0 0
0 0 0 0 0 3 0 0 0 0 0 0 0 0 0 0 0 0 0 0 0 0 8 56 62 84 47 6 0 0 0 0 0 0 0 0 0 0 0 0 0 0 0 0 0 0 0 0 0
0 0 0 0 0 0 0 6 0 19 0 0 0 0 0 0 0 0 0 0 0 0 0 0 0 0 27 22 22 0 0 0 0 0 0 0 0 0 0 0 0 0 0 0 0 0 0 0 0
0 0 0 0 0 0 0 0 0 0 0 0 0 0 0 0 0 0 0 0 0 0 0 0 0 0 0 0 0 0 0 0 0 0 0 0 0 0 0 0 0 0 0 0 0 0 0 0 0
0 0 0 0 0 0 0 0 0 0 0 0 0 0 0 0 0 0 0 0 0 0 0 0 0 0 0 0 0 0 0 0 0 0 0 0 0 0 0 0 0 0 0 0 0 0 0 0 0
0 0 0 0 0 0 0 0 0 0 0 0 0 0 0 0 0 0 0 0 0 0 0 0 0 0 0 0 0 0 0 0 0 0 0 0 0 0 0 0 1 1 0 0 0 0 0 0 0
0 0 0 0 0 0 0 0 0 0 0 0 0 0 0 0 0 0 0 0 0 0 0 0 0 0 0 0 0 0 0 0 0 0 0 0 0 0 0 0 0 0 1 0 0 0 1 0 0
0 0 0 0 0 0 0 0 0 0 0 0 0 0 0 0 0 0 0 0 0 0 0 0 0 0 0 0 0 0 0 0 0 0 0 0 0 0 0 0 0 0 0 1 0 0 0 0 0
0 0 0 0 0 0 0 0 0 0 0 0 0 0 0 0 0 0 0 0 0 0 0 0 0 0 0 0 0 0 0 0 0 0 0 0 0 0 0 0 0 0 0 0 1 1 1 0 0
0 0 0 0 0 0 0 0 0 0 0 0 0 0 0 0 0 0 0 0 0 0 0 0 0 0 0 0 0 0 0 0 0 0 0 0 0 0 0 0 0 0 0 0 0 0 0 0 0
0 0 0 0 0 0 0 0 0 0 0 0 0 0 0 0 0 0 0 0 0 0 0 0 0 0 0 0 0 0 0 0 0 0 0 0 0 0 0 0 0 0 0 0 0 0 0 0 0
0 0 0 0 0 0 0 0 0 0 0 0 0 0 0 0 0 0 0 0 0 0 0 0 0 0 0 0 0 0 0 0 0 0 0 0 0 0 0 0 0 0 0 0 0 0 0 0 0
0 0 0 0 0 0 0 0 0 0 0 0 0 0 0 0 0 0 0 0 0 0 0 0 0 0 0 0 0 0 0 0 0 0 0 0 0 0 0 0 0 0 0 0 0 0 0 0 0
0 0 0 0 0 0 0 0 0 0 0 0 0 0 0 0 0 0 0 0 0 0 0 0 0 0 0 0 0 0 0 0 0 0 0 0 0 0 0 0 0 0 0 0 0 0 0 0 0

GFSSGP_con_sbcape_057.txt.gz
CAPE
206 0 0 0 0 0 0 0 0 0 0 0 0 0 0 0 0 0 23 414 400 1026 1502 1456 2008 2061 2134 2139 1890 1773 1402 1136 635 242 25 0 60 283 2 5 1 0 2 9 8 7 8 6 2
187 0 0 0 0 0 0 0 0 0 0 0 0 0 25 142 210 123 468 452 826 1243 1398 1336 2075 2149 2294 2191 1834 1696 1188 688 284 94 0 0 40 408 86 6 0 0 0 0 0 1 3 2 0
64 0 0 0 0 0 0 0 0 0 0 0 0 3 83 233 315 320 279 931 1158 1332 1417 1570 2075 2402 2302 2023 1834 1436 832 423 135 2 0 3 45 463 159 5 0 0 0 0 0 0 1 0 0
0 0 0 0 0 0 0 0 0 0 0 0 0 94 130 79 343 308 838 867 1324 1362 1385 1626 2258 2290 2166 2060 1907 1290 646 269 42 0 0 513 163 569 276 5 0 0 1 0 0 1 0 0 0
3 0 0 0 0 0 0 0 0 0 0 0 0 42 291 245 379 823 1156 1113 1046 1318 1431 1568 2358 2294 2118 2016 1729 1281 573 201 4 0 99 751 380 652 240 20 0 0 0 1 0 0 0 0 0
36 0 0 0 0 0 0 0 0 0 0 0 57 196 223 127 395 738 824 1069 787 1207 1668 1679 1935 2048 1982 1942 1516 1180 782 131 16 25 531 752 867 509 125 55 21 0 0 3 1 0 0 0 0
32 10 0 0 0 0 0 0 0 0 0 0 0 234 206 420 453 589 799 1006 854 1315 1719 1699 1624 1523 1703 1551 1341 1106 801 383 82 59 334 521 444 273 157 104 50 23 7 27 26 0 0 0 0
27 0 0 0 0 0 0 0 0 0 0 0 114 84 185 152 297 481 758 952 1195 1441 1496 1609 1567 1296 1367 1421 994 807 659 386 171 70 64 37 42 136 147 51 74 39 30 32 13 0 0 0 0
43 76 7 0 0 0 0 0 0 0 0 0 0 0 0 82 148 314 459 553 849 982 1151 1206 1284 1245 1162 1288 899 478 337 188 70 51 24 17 29 43 52 22 30 59 66 51 15 0 0 0 0
197 39 7 0 0 0 2 1 0 0 0 0 0 0 0 98 43 321 450 438 777 861 662 694 792 890 805 845 962 445 192 126 53 36 22 9 9 25 26 17 15 50 102 67 17 6 0 0 0
79 17 0 0 0 6 3 0 0 0 0 0 0 0 0 0 87 120 335 499 576 542 467 334 365 384 474 545 576 394 96 80 45 22 2 0 0 5 22 16 25 44 41 83 28 3 0 0 0
59 2 0 1 2 2 0 0 0 0 0 0 0 0 0 0 44 118 203 230 300 358 450 254 196 196 177 224 265 270 204 78 48 22 0 0 0 0 0 0 7 24 39 57 46 12 0 0 0
5 11 1 26 21 0 2 4 0 0 0 0 0 0 0 0 27 207 142 104 227 394 303 175 81 86 65 107 103 123 265 188 80 25 0 0 0 0 0 0 0 2 13 19 28 12 0 0 0
0 24 3 50 59 46 2 0 0 0 0 0 0 0 0 0 2 112 173 265 85 279 227 148 107 54 35 56 58 65 54 102 111 51 0 0 0 0 0 0 0 0 0 0 3 0 0 0 0
1 50 38 34 64 79 25 5 0 0 0 0 0 0 0 0 0 57 194 275 154 179 218 159 142 77 65 61 52 49 38 13 12 41 23 0 0 0 0 0 0 0 0 0 0 0 0 0 0
33 4 40 36 68 41 30 0 0 0 0 0 0 0 0 0 0 0 14 181 168 143 206 195 167 119 93 72 53 33 7 0 0 0 0 14 0 0 0 0 0 0 0 0 0 0 0 0 0
9 0 0 0 43 38 0 0 0 2 0 0 0 0 0 0 0 0 0 13 170 198 169 215 245 256 138 71 42 17 0 0 0 0 0 0 0 0 0 0 0 0 0 0 0 0 0 0 0
0 0 0 0 25 31 0 0 3 1 0 0 0 0 0 0 0 0 0 0 0 41 138 222 248 315 204 68 20 6 0 0 0 0 0 0 0 0 0 0 0 0 0 0 0 0 0 0 0
0 0 0 0 0 76 38 0 0 3 0 0 0 0 0 0 0 0 0 0 0 0 0 88 145 141 184 131 95 59 65 29 0 0 0 0 0 0 0 0 0 0 0 0 0 0 0 0 0
0 0 0 0 0 15 4 12 0 0 0 0 0 0 0 0 0 0 0 0 0 0 0 0 0 0 48 73 57 85 84 88 65 24 0 0 0 0 0 0 0 0 0 0 0 0 0 0 0
0 0 0 0 0 0 0 0 0 0 0 0 0 0 0 0 0 0 0 0 0 0 0 0 0 0 0 0 0 0 0 0 0 0 0 0 0 1 2 3 2 1 0 0 0 0 2 3 0
0 0 0 0 0 0 0 0 0 0 0 0 0 0 0 0 0 0 0 0 0 0 0 0 0 0 0 0 0 0 0 0 0 0 0 0 0 0 0 1 3 6 3 1 0 0 1 2 2
0 0 0 0 0 0 0 0 0 0 0 0 0 0 0 0 0 0 0 0 0 0 0 0 0 0 0 0 0 0 0 0 0 0 0 0 0 0 0 0 0 0 0 1 2 1 2 1 2
0 0 0 0 0 0 0 0 0 0 0 0 0 0 0 0 0 0 0 0 0 0 0 0 0 0 0 0 0 0 0 0 0 0 0 0 0 0 0 0 0 0 1 1 2 1 6 3 1
0 0 3 12 3 0 0 0 0 0 0 0 0 0 0 0 0 0 0 0 0 0 0 0 0 0 0 0 0 0 0 0 0 0 0 0 0 0 0 0 0 0 0 0 2 9 8 3 1
0 0 0 0 0 0 0 0 0 0 0 0 0 0 0 0 0 0 0 0 0 0 0 0 0 0 0 0 0 0 0 0 0 0 0 0 0 0 0 0 0 0 0 0 0 3 3 1 1
0 0 0 0 0 0 0 0 0 0 0 0 0 0 0 0 0 0 0 0 0 0 0 0 0 0 0 0 0 0 0 0 0 0 0 0 0 0 0 0 0 0 0 0 0 0 1 0 0
0 0 0 0 0 0 0 0 0 0 0 0 0 0 0 0 0 0 0 0 0 0 0 0 0 0 0 0 0 0 0 0 0 0 0 0 0 0 0 0 0 0 0 0 0 0 0 0 0
0 0 0 0 0 0 0 0 0 0 0 0 0 0 0 0 0 0 0 0 0 0 0 0 0 0 0 0 0 0 0 0 0 0 0 0 0 0 0 0 0 0 0 0 0 0 0 0 0
0 0 0 0 0 0 0 0 0 0 0 0 0 0 0 0 0 0 0 0 0 0 0 0 0 0 0 0 0 0 0 0 0 0 0 0 0 0 0 0 0 0 0 0 0 0 0 0 0

GFSSGP_con_sbcape_060.txt.gz
CAPE
386 17 0 2 0 0 0 0 0 0 0 0 0 0 0 31 0 40 395 617 465 615 1233 1609 2405 2385 2173 2012 1592 1441 1188 748 430 133 0 302 241 7 11 1 0 4 11 11 14 18 8 9 4
390 0 0 0 0 0 0 0 0 0 0 0 0 0 0 16 514 632 587 660 579 787 1015 1212 2322 2334 2285 2031 1610 1566 946 562 247 73 0 93 472 107 36 0 0 1 2 3 7 8 6 1 0
175 6 4 0 0 0 0 0 0 0 0 0 0 71 200 453 717 724 648 722 750 963 842 1199 1966 2314 2367 1962 1717 1239 725 355 132 6 0 36 611 284 35 0 0 0 2 1 2 3 0 0 0
103 37 0 0 0 0 0 0 0 0 0 0 0 183 543 513 742 680 883 791 996 1025 891 1390 1910 2380 2255 2073 1824 1013 561 215 45 0 0 106 531 441 77 0 0 1 1 3 2 1 0 0 0
95 27 0 0 0 0 0 0 0 0 0 0 0 167 669 896 963 1080 976 877 840 974 963 1334 2396 2351 2237 2085 1611 1168 425 152 0 9 514 669 666 473 84 0 0 2 2 0 2 2 0 0 0
176 41 2 0 0 0 0 0 0 0 0 0 41 257 725 798 674 912 923 1025 814 946 1028 1487 1954 2056 2099 1807 1469 1175 518 104 0 249 1321 835 1051 388 124 54 7 0 23 1 0 0 0 0 0
91 19 0 0 0 0 0 0 0 0 0 0 37 313 667 942 584 840 1010 865 931 1087 1042 1230 1412 1445 1656 1444 1262 1075 722 258 48 514 767 982 747 516 157 90 52 10 28 31 5 0 0 0 0
103 39 15 4 1 0 0 0 0 0 0 26 375 266 533 278 370 938 1200 950 719 1376 1281 1074 1464 1111 1054 1308 912 789 618 344 187 190 82 54 105 148 176 80 80 41 42 41 5 0 0 0 0
248 90 88 16 4 0 0 5 0 0 0 0 0 0 0 241 476 1025 1261 1023 1086 1447 1523 1271 983 876 1071 1211 721 424 345 184 63 50 18 16 35 55 46 22 38 58 46 33 7 0 0 0 0
273 95 17 2 0 0 0 10 0 0 0 0 0 0 0 336 295 929 976 913 946 1058 1263 1341 1207 1024 944 1074 871 438 255 240 119 54 13 0 0 5 8 22 15 45 75 46 6 0 0 0 0
209 74 20 40 0 12 18 23 2 0 1 0 0 0 0 0 231 479 706 735 725 791 1046 1086 1223 999 968 886 996 549 320 321 261 87 49 9 0 0 0 2 7 31 21 47 21 9 0 0 0
138 119 129 104 30 1 9 7 1 0 0 0 0 0 0 0 4 303 645 902 918 999 1055 973 877 881 838 782 986 590 380 333 338 187 73 42 20 0 0 0 0 3 3 8 27 13 6 0 0
115 180 143 120 26 36 24 10 8 1 0 0 0 0 0 0 2 256 316 648 837 817 756 913 853 677 881 905 776 754 535 425 358 329 160 74 52 30 0 0 0 0 0 0 0 6 0 0 0
70 93 163 152 82 53 36 12 21 0 1 0 0 0 0 0 0 40 503 754 716 772 1033 1087 888 757 955 916 837 693 530 511 495 408 317 130 79 56 24 0 0 0 0 0 0 18 20 10 0
42 127 136 78 78 0 66 81 1 0 1 0 0 0 0 0 0 0 114 652 753 781 747 899 804 738 798 791 708 533 423 391 411 406 363 225 100 63 35 19 0 0 0 0 0 0 2 16 17
37 112 90 57 101 40 72 2 0 6 11 5 0 0 0 0 0 0 0 262 775 801 676 669 515 592 617 534 510 412 368 312 293 287 299 281 130 66 59 37 20 0 0 0 1 4 22 36 31
91 14 26 75 129 150 145 20 23 6 0 0 0 0 0 0 0 0 0 0 542 859 772 670 566 566 633 614 554 523 445 384 308 301 261 161 80 47 70 95 84 68 57 50 54 61 60 126 133
10 19 21 34 100 100 156 63 0 24 0 0 0 0 0 0 0 0 0 0 29 538 826 734 670 704 760 762 684 670 590 508 396 325 229 141 117 106 162 201 192 146 149 159 159 127 170 175 174
5 29 39 50 110 166 106 82 25 0 0 0 0 0 0 0 0 0 0 0 0 0 459 711 768 769 798 827 708 624 743 676 635 513 345 225 176 151 163 238 267 297 288 246 207 230 181 175 159
10 6 16 4 147 162 114 77 82 7 0 3 2 2 0 0 0 0 0 0 0 0 0 206 500 773 929 1117 1033 917 847 707 638 542 410 304 276 287 279 336 406 390 341 312 281 279 177 101 125
20 0 2 0 168 37 34 25 7 0 0 0 0 0 0 0 0 0 0 0 0 0 0 0 0 230 488 780 488 183 36 33 369 536 546 299 66 140 134 192 271 323 290 148 300 233 127 86 141
37 7 4 24 13 1 0 0 0 0 0 0 0 0 0 0 0 0 0 0 0 0 0 0 0 0 0 1 33 118 316 356 23 0 0 0 0 0 0 0 1 8 7 5 7 8 9 18 9
3 0 0 1 0 0 0 0 0 0 0 0 0 0 0 0 0 0 0 0 0 0 0 0 0 0 0 0 0 0 0 0 0 0 0 0 0 0 0 0 0 0 0 0 3 2 4 10 15
0 0 0 0 3 0 0 0 0 0 0 0 0 0 0 0 0 0 0 0 0 0 0 0 0 0 0 0 0 0 0 0 0 0 0 0 0 0 0 0 0 0 0 0 1 2 3 5 3
6 13 25 18 17 1 0 0 0 0 0 0 0 0 0 0 0 0 0 0 0 0 0 0 0 0 0 0 0 0 0 0 0 0 0 0 0 0 0 0 0 0 0 0 1 5 5 8 20
21 9 3 0 0 0 0 0 0 0 0 0 0 0 0 0 0 0 0 0 0 0 0 0 0 0 0 0 0 0 0 0 0 0 0 0 0 0 0 0 0 0 0 0 0 5 19 28 36
2 16 0 0 0 0 0 0 0 0 0 0 0 0 0 0 0 0 0 0 0 0 0 0 0 0 0 0 0 0 0 0 0 0 0 0 0 0 0 0 0 0 0 0 2 9 15 3 2
9 0 1 1 0 0 0 0 0 0 0 0 0 0 0 0 0 0 0 0 0 0 0 0 0 0 0 0 0 0 0 0 0 0 0 0 0 0 0 0 0 0 0 0 2 1 0 0 1
0 3 0 3 0 1 0 0 0 0 0 0 0 0 0 0 0 0 0 0 0 0 0 0 0 0 0 0 0 0 0 0 0 0 0 0 0 0 0 0 0 0 0 0 1 0 0 0 0
0 10 15 17 4 0 0 0 0 0 0 0 0 0 0 0 0 0 0 0 0 0 0 0 0 0 0 0 0 0 0 0 0 0 0 0 0 0 0 0 0 0 0 0 0 0 0 0 0

GFSSGP_con_sbcape_063.txt.gz
CAPE
683 303 1 16 0 0 0 2 0 0 0 0 0 0 0 195 66 556 301 420 698 1052 1250 1528 2336 2252 1994 1838 1311 1258 881 620 289 7 333 166 37 35 0 1 11 21 24 88 131 18 8 3 1
594 68 8 1 0 0 0 0 0 0 0 0 0 0 0 383 732 684 589 527 510 1072 1405 1193 2466 2296 2058 1808 1307 1200 826 401 161 3 110 390 147 55 1 0 3 6 11 14 16 5 2 1 1
661 95 0 0 0 0 0 0 0 0 0 0 0 2 72 656 788 578 699 554 436 921 979 1813 2449 2468 2149 1831 1448 1068 601 278 100 3 21 614 343 93 0 0 2 2 2 6 8 3 4 0 0
350 35 34 0 0 0 0 2 0 0 0 0 0 17 630 912 879 1003 641 461 560 749 884 1619 2265 2374 2172 1926 1681 887 417 125 30 0 93 502 531 89 0 0 3 4 5 6 5 4 2 0 0
531 97 1 0 0 0 0 0 0 0 0 0 0 60 837 975 1055 932 632 527 672 617 1271 1058 2230 2291 2045 1959 1521 959 289 74 0 98 303 350 658 105 0 0 2 2 4 6 5 2 0 0 0
247 154 44 1 0 0 0 0 0 0 0 4 7 115 1037 842 1086 1035 713 706 735 702 1040 1079 1937 2023 1867 1676 1375 963 288 7 44 385 957 628 672 214 46 0 0 2 1 0 0 0 0 0 0
158 70 40 11 4 7 0 0 0 0 0 43 170 253 991 419 789 978 960 640 698 732 930 966 1153 1331 1524 1313 1180 932 429 49 109 894 1275 1270 650 417 101 53 19 18 37 15 0 0 0 0 0
152 110 92 88 55 5 0 0 0 3 0 293 449 435 826 272 576 984 1253 601 643 712 1061 676 1140 1016 1004 1026 822 647 414 158 401 359 217 151 149 290 176 93 66 30 46 29 4 0 0 0 0
333 99 78 110 65 13 0 1 1 2 69 107 8 0 6 574 622 1229 1180 750 765 737 1108 1116 1226 706 843 784 459 345 209 81 37 37 18 22 45 59 20 24 54 51 38 25 3 0 0 0 0
322 166 31 57 92 64 0 1 10 38 34 31 0 0 583 639 561 1305 1310 941 782 1161 1151 1114 1076 683 911 1035 439 319 185 98 42 0 4 0 0 7 10 22 15 36 51 32 5 0 0 0 0
279 173 3 88 40 37 5 8 11 49 90 40 0 0 12 670 545 922 945 962 889 904 1258 958 1019 813 936 966 665 520 328 371 260 121 32 0 0 0 0 0 0 6 20 14 2 0 0 0 0
146 163 239 188 69 65 35 38 26 18 27 0 0 0 0 210 651 543 751 789 717 856 1060 1062 1069 971 819 650 990 610 327 279 353 252 92 34 12 1 0 0 0 0 0 0 10 9 0 0 0
165 165 201 120 41 26 4 1 8 6 0 0 0 0 0 0 312 540 493 734 881 779 723 611 806 723 646 590 752 624 381 292 263 328 234 89 55 48 16 0 0 0 0 0 0 0 0 0 0
132 38 185 176 86 53 10 2 13 0 0 0 0 0 0 0 0 369 620 718 886 887 750 639 604 580 423 617 648 634 423 357 264 255 277 202 72 52 33 0 0 0 0 0 0 0 15 13 1
125 10 30 185 98 155 60 48 0 0 0 3 0 0 0 0 0 0 277 879 971 968 971 862 845 729 630 801 722 577 381 295 296 256 245 215 112 64 37 9 0 0 0 0 0 0 0 17 20
108 36 10 98 136 54 48 1 2 9 34 2 8 7 1 0 0 0 0 277 839 955 1071 1130 910 738 615 745 884 533 315 254 253 282 319 330 201 98 102 50 41 43 39 11 10 4 25 39 35
81 53 44 48 66 65 11 0 71 10 1 0 0 8 9 10 0 0 0 0 448 860 1007 1011 983 778 726 567 554 520 462 422 356 370 385 366 326 193 193 219 183 154 175 153 132 116 129 129 124
33 18 52 50 90 51 22 0 39 19 18 0 0 2 0 5 0 0 0 0 51 796 957 1058 1061 841 764 780 760 873 710 607 503 471 449 396 314 264 264 276 276 278 296 156 135 130 164 170 184
0 0 13 12 35 13 1 28 12 12 20 1 0 0 0 0 0 0 0 0 0 130 877 1073 1095 989 887 934 990 993 1044 976 833 670 594 482 428 404 415 434 365 254 238 236 218 221 101 141 391
25 45 73 42 75 44 44 63 66 53 7 2 0 0 0 1 1 0 0 0 0 0 131 800 1028 1058 1003 1016 962 1075 1077 1103 1019 1091 789 629 547 486 447 444 384 356 380 299 309 191 214 216 293
22 43 75 27 12 94 74 46 17 18 17 0 0 0 0 0 1 4 0 0 0 0 0 87 620 788 1022 1056 1205 1116 834 802 877 876 806 698 574 535 491 412 347 411 436 419 349 200 181 117 51
1 0 0 8 54 2 6 2 0 0 0 1 4 0 0 0 0 0 0 0 0 0 0 0 1 143 592 764 906 552 521 674 717 499 335 45 0 0 0 7 26 94 32 2 2 3 11 28 40
22 13 26 99 97 22 7 1 0 0 0 0 0 0 0 0 0 0 0 0 0 0 0 0 0 0 0 0 105 307 391 284 0 0 0 0 0 0 0 0 0 0 0 0 0 1 4 9 11
5 81 64 67 23 8 0 0 0 0 0 0 0 0 0 0 0 0 0 0 0 0 0 0 0 0 0 0 0 0 0 0 0 0 0 0 0 0 0 0 0 0 0 0 0 2 4 4 1
8 31 21 20 25 8 0 0 0 0 0 0 0 0 0 0 0 0 0 0 0 0 0 0 0 0 0 0 0 0 0 0 0 0 0 0 0 0 0 0 0 0 0 0 0 1 5 3 3
28 14 23 3 2 2 0 0 0 0 0 0 0 0 0 0 0 0 0 0 0 0 0 0 0 0 0 0 0 0 0 0 0 0 0 0 0 0 0 0 0 0 0 0 0 0 8 17 41
38 32 0 0 0 1 0 0 0 0 0 0 0 0 0 0 0 0 0 0 0 0 0 0 0 0 0 0 0 0 0 0 0 0 0 0 0 0 0 0 0 0 0 0 0 3 10 15 4
26 12 3 2 4 0 0 0 0 0 0 0 0 0 0 0 0 0 0 0 0 0 0 0 0 0 0 0 0 0 0 0 0 0 0 0 0 0 0 0 0 0 0 0 0 2 0 1 0
2 13 20 23 10 18 1 0 0 0 0 0 0 0 0 0 0 0 0 0 0 0 0 0 0 0 0 0 0 0 0 0 0 0 0 0 0 0 0 0 0 0 0 0 0 0 0 0 0
31 22 24 21 8 0 1 0 0 0 0 0 0 0 0 0 0 0 0 0 0 0 0 0 0 0 0 0 0 0 0 0 0 0 0 0 0 0 0 0 0 0 0 0 0 0 0 0 0

GFSSGP_con_sbcape_066.txt.gz
CAPE
716 602 406 64 42 0 0 0 0 28 0 0 0 0 0 482 336 284 67 575 1312 930 1215 1732 2082 2079 1804 1620 1265 1329 825 547 181 481 129 51 7 0 1 17 17 7 221 97 30 14 7 2 0
530 505 0 68 0 0 0 0 6 10 0 0 0 0 0 595 375 184 354 703 1052 1151 1042 1370 2255 2059 1830 1713 1430 1212 525 179 12 409 170 203 7 0 3 6 13 11 30 39 8 12 6 3 0
773 839 2 0 0 0 0 0 8 1 0 0 0 46 560 810 345 376 409 581 918 1046 900 1648 2222 2091 1933 1708 1444 793 293 116 7 261 781 311 13 0 1 4 6 10 14 4 11 6 2 1 0
500 435 68 0 0 0 0 0 7 1 0 0 0 543 775 522 841 529 439 491 1047 845 1398 1947 2152 2096 1891 1687 1468 585 213 52 3 215 724 424 40 0 1 3 5 8 10 8 4 1 0 0 0
546 182 27 1 0 0 0 1 11 0 0 0 5 85 894 799 886 630 371 347 669 1276 1410 1883 2230 2069 1785 1725 1281 801 125 0 0 177 570 574 83 0 0 3 2 2 2 2 1 0 0 0 0
245 244 2 0 0 0 0 11 0 0 0 45 4 10 1061 827 995 815 438 400 553 1029 1024 1585 1969 1908 1745 1559 1119 718 221 42 273 747 726 724 144 30 0 1 2 0 0 0 0 0 0 0 4
163 63 9 0 0 0 68 2 0 0 0 92 234 262 726 468 805 1020 730 534 655 794 934 1158 1282 1473 1446 1186 922 614 187 264 856 1068 1034 902 527 196 53 0 9 27 0 0 0 0 0 0 2
215 125 15 5 9 2 71 5 0 0 147 236 218 279 465 340 761 1008 1136 542 590 669 723 840 982 1047 953 627 564 321 122 396 500 441 381 162 155 196 130 68 44 38 35 14 0 0 0 0 0
314 147 25 9 68 81 16 0 0 6 107 58 35 6 510 595 802 1170 1233 476 818 1039 736 1116 998 824 749 404 294 140 47 32 109 24 36 25 27 25 8 34 43 58 42 13 4 0 0 0 0
193 112 19 2 31 44 1 0 0 73 62 13 119 570 688 699 899 1363 889 650 815 1011 846 953 656 494 746 474 212 48 1 0 0 21 0 0 3 5 22 12 37 62 62 28 8 0 0 0 0
157 89 0 26 64 62 2 2 1 86 94 44 4 148 771 618 946 1371 978 624 597 1114 941 1139 631 587 831 463 217 213 85 90 8 0 0 0 0 0 0 0 1 5 31 5 4 1 0 0 0
131 105 98 52 117 134 10 19 3 121 7 0 0 3 476 635 697 972 1041 834 662 1119 1029 946 703 708 792 749 465 298 196 153 154 50 2 0 0 0 0 0 0 0 0 0 0 0 0 0 0
60 105 113 126 67 60 47 50 7 0 0 0 0 0 7 427 681 627 732 708 628 781 991 910 832 710 643 709 768 397 206 100 226 126 62 10 3 0 0 0 0 0 0 0 0 0 0 0 0
43 108 153 86 19 28 24 1 0 0 0 0 0 0 0 0 161 525 518 595 849 730 640 627 740 604 507 503 738 517 253 254 94 186 122 82 31 21 12 0 0 0 0 0 0 0 0 0 0
140 126 50 26 55 82 5 1 0 0 0 0 0 0 0 0 0 198 610 676 808 874 683 527 530 496 436 472 512 461 429 187 160 162 141 84 46 17 7 0 0 0 0 0 0 0 0 0 0
59 106 79 7 10 44 39 0 0 0 0 0 0 0 0 0 0 0 0 739 810 828 682 694 825 645 520 645 632 547 469 145 143 121 124 139 75 29 10 0 0 0 0 0 0 0 0 0 0
59 83 57 0 0 52 26 25 13 5 0 0 0 0 0 0 0 0 0 11 674 718 936 903 807 622 589 640 640 543 248 185 100 116 160 207 169 55 41 62 18 13 19 9 0 0 0 0 0
5 39 14 0 0 24 26 43 9 4 2 0 0 0 0 0 0 0 0 0 154 666 886 902 880 738 656 501 504 402 387 298 228 203 224 248 231 189 91 112 137 91 127 44 23 4 4 4 5
0 0 2 0 4 20 24 10 5 0 0 0 0 0 0 0 0 0 0 0 0 462 787 815 920 741 641 624 599 576 538 517 368 359 364 346 243 193 184 229 255 123 140 89 53 3 7 8 9
0 0 2 11 53 46 15 7 1 0 0 0 0 0 0 0 0 0 0 0 0 0 473 848 939 858 756 753 735 680 654 677 637 615 605 495 494 436 332 293 281 233 255 245 198 207 139 57 69
4 0 22 13 48 54 27 5 0 0 0 0 0 0 0 0 0 0 0 0 0 0 0 375 909 919 878 871 804 719 466 525 650 627 623 592 385 272 333 278 248 261 291 344 321 126 111 136 33
23 46 72 38 28 0 30 0 0 0 0 0 0 0 0 0 0 0 0 0 0 0 0 0 53 607 821 927 879 779 412 487 472 447 358 8 0 0 0 0 15 96 64 31 5 5 1 13 16
0 0 7 1 24 32 24 0 0 0 0 0 2 0 0 0 0 0 0 0 0 0 0 0 0 0 38 357 689 487 372 336 0 0 0 0 0 0 0 0 0 0 0 0 0 0 0 0 0
37 12 15 16 27 6 0 0 0 0 0 0 0 0 0 0 0 0 0 0 0 0 0 0 0 0 0 0 0 84 186 0 0 0 0 0 0 0 0 0 0 0 0 0 0 0 0 0 0
41 11 0 0 0 0 0 0 0 0 0 0 0 0 0 0 0 0 0 0 0 0 0 0 0 0 0 0 0 0 0 0 0 0 0 0 0 0 0 0 0 0 0 0 0 0 0 0 0
23 6 2 0 0 0 0 0 0 0 0 0 0 0 0 0 0 0 0 0 0 0 0 0 0 0 0 0 0 0 0 0 0 0 0 0 0 0 0 0 0 0 0 0 0 0 0 0 2
6 15 0 0 0 0 0 0 0 0 0 0 0 0 0 0 0 0 0 0 0 0 0 0 0 0 0 0 0 0 0 0 0 0 0 0 0 0 0 0 0 0 0 0 0 0 0 0 0
13 0 0 0 0 0 0 0 0 0 0 0 0 0 0 0 0 0 0 0 0 0 0 0 0 0 0 0 0 0 0 0 0 0 0 0 0 0 0 0 0 0 0 0 0 0 0 0 0
0 0 6 4 0 9 0 0 0 0 0 0 0 0 0 0 0 0 0 0 0 0 0 0 0 0 0 0 0 0 0 0 0 0 0 0 0 0 0 0 0 0 0 0 0 0 0 0 0
3 1 0 2 0 0 0 0 0 0 0 0 0 0 0 0 0 0 0 0 0 0 0 0 0 0 0 0 0 0 0 0 0 0 0 0 0 0 0 0 0 0 0 0 0 0 0 0 0

GFSSGP_con_sbcape_069.txt.gz
CAPE
445 375 391 10 17 0 0 0 0 40 0 0 0 0 351 285 249 35 209 988 923 1064 1358 1775 2075 1824 1540 1258 912 1133 623 483 791 277 35 0 2 17 16 7 165 163 24 13 10 6 2 0 0
790 788 51 1 0 0 0 0 0 2 2 0 0 0 82 297 171 120 1002 1009 921 1090 1201 1585 1985 1846 1665 1502 1083 895 230 249 725 553 64 1 3 9 14 8 7 24 17 8 12 7 0 0 0
453 648 1 12 0 0 0 0 0 5 0 0 0 0 146 442 449 265 943 848 993 999 1289 1798 1873 1814 1617 1468 991 377 141 74 876 846 433 0 1 5 8 12 10 28 12 7 7 1 0 0 0
243 167 40 0 0 0 0 0 0 1 0 0 16 61 451 500 639 592 924 1135 817 798 1357 1790 1789 1623 1691 1551 1039 253 97 15 687 924 445 1 0 2 4 5 10 19 16 8 3 0 0 0 0
175 62 37 0 0 0 0 0 0 0 0 0 56 243 94 640 717 491 695 911 796 1208 1456 1643 1818 1809 1738 1443 949 510 107 7 626 952 342 28 0 1 4 6 7 8 8 4 1 0 0 0 0
230 106 1 0 0 0 0 0 0 0 0 0 89 598 709 720 646 657 380 1047 1325 1408 1544 1631 1679 1693 1389 1252 856 499 163 170 577 1164 580 99 0 0 1 2 4 4 3 1 0 0 0 24 36
166 61 0 0 0 0 8 1 0 0 0 78 30 583 661 550 710 734 686 1011 1127 1378 1426 1437 1363 1260 1156 923 699 279 428 764 886 1032 784 355 162 21 0 7 0 0 0 0 0 0 0 1 30
165 90 8 0 0 0 31 6 0 13 174 116 79 562 392 238 422 826 791 576 863 1044 1133 959 1151 1069 627 368 269 99 491 526 918 835 509 203 102 105 56 32 59 26 11 9 7 7 0 0 0
268 90 29 0 1 4 24 0 0 3 60 42 70 160 460 509 586 708 671 572 682 854 839 898 890 722 349 194 33 12 153 79 87 151 57 41 19 10 0 0 26 50 29 14 5 0 0 0 0
254 93 12 0 10 43 5 0 0 62 21 343 652 894 920 814 690 731 505 560 727 599 974 862 776 669 321 226 11 0 0 0 0 0 0 0 0 0 0 0 11 40 33 16 9 0 0 0 0
268 54 6 25 59 131 0 2 11 42 19 5 651 759 892 826 881 802 528 711 754 745 996 867 729 771 355 174 33 0 0 0 0 0 0 0 0 0 0 0 0 0 0 0 0 0 0 0 0
184 16 6 75 73 125 6 0 12 17 0 0 343 829 796 928 945 873 644 407 795 792 969 721 584 776 459 152 123 46 1 1 0 0 0 0 0 0 0 0 0 0 0 0 0 0 0 0 0
58 42 39 66 195 67 40 10 14 0 0 0 2 726 663 734 740 656 671 418 527 900 865 750 633 859 686 349 263 167 80 43 15 1 0 0 0 0 0 0 0 0 0 0 0 0 0 0 0
3 6 72 114 114 58 52 1 12 0 0 0 0 15 392 587 621 589 465 492 511 607 726 824 772 745 804 693 534 337 94 25 27 106 6 0 0 0 0 0 0 0 0 0 0 0 0 0 0
3 49 76 134 57 16 0 0 0 0 0 0 0 0 0 31 545 454 410 399 714 610 559 825 846 685 596 559 710 470 249 84 55 57 63 21 0 0 0 0 0 0 0 0 0 0 0 0 0
0 56 119 24 117 8 0 0 1 0 0 0 0 0 0 0 2 446 494 520 475 522 706 616 693 515 456 500 529 415 387 215 97 57 58 57 21 0 0 0 0 0 0 0 0 0 0 0 0
17 20 32 1 23 1 25 0 0 0 0 0 0 0 0 0 0 0 285 598 715 500 629 716 751 573 573 589 495 511 425 92 21 37 52 61 37 8 2 0 0 0 0 0 0 0 0 0 0
6 14 38 5 0 9 0 4 0 0 0 0 0 0 0 0 0 0 0 61 615 477 525 570 654 658 541 454 607 523 357 138 38 25 48 87 64 35 12 17 13 0 0 12 0 0 1 1 8
0 0 13 0 0 0 3 0 0 0 0 0 0 0 0 0 0 0 0 0 231 433 516 576 601 460 394 359 355 335 276 150 95 102 107 106 122 85 31 38 30 49 50 7 1 0 3 6 11
19 23 23 2 2 0 0 0 0 0 0 0 0 0 0 0 0 0 0 0 0 392 527 544 669 449 477 443 398 414 361 350 297 266 318 248 215 151 103 120 146 142 138 115 82 71 161 95 20
6 7 15 3 0 2 0 2 0 0 0 0 0 0 0 0 0 0 0 0 0 0 402 691 733 655 577 577 442 394 319 406 482 441 447 368 328 309 279 266 256 258 263 263 269 174 161 116 18
0 1 50 24 18 6 5 0 0 0 0 0 0 0 0 0 0 0 0 0 0 0 0 360 627 679 752 568 554 500 494 443 322 267 290 0 0 0 0 0 9 51 41 18 5 3 0 0 1
0 1 34 46 4 3 8 0 0 1 0 0 0 0 0 0 0 0 0 0 0 0 0 0 13 531 668 590 617 452 285 244 0 0 0 0 0 0 0 0 0 0 0 0 0 0 0 0 0
2 15 14 13 12 5 12 0 0 0 0 0 0 0 0 0 0 0 0 0 0 0 0 0 0 0 3 105 243 336 268 0 0 0 0 0 0 0 0 0 0 0 0 0 0 0 0 0 0
0 0 0 0 1 0 0 0 0 0 0 0 0 0 0 0 0 0 0 0 0 0 0 0 0 0 0 0 0 16 63 0 0 0 0 0 0 0 0 0 0 0 0 0 0 0 0 0 0
0 0 0 0 0 0 0 0 0 0 0 0 0 0 0 0 0 0 0 0 0 0 0 0 0 0 0 0 0 0 0 0 0 0 0 0 0 0 0 0 0 0 0 0 0 0 0 0 0
14 0 0 0 0 0 0 0 0 0 0 0 0 0 0 0 0 0 0 0 0 0 0 0 0 0 0 0 0 0 0 0 0 0 0 0 0 0 0 0 0 0 0 0 0 0 0 0 0
0 0 0 0 0 0 0 0 0 0 0 0 0 0 0 0 0 0 0 0 0 0 0 0 0 0 0 0 0 0 0 0 0 0 0 0 0 0 0 0 0 0 0 0 0 0 0 0 0
0 0 0 0 0 0 0 0 0 0 0 0 0 0 0 0 0 0 0 0 0 0 0 0 0 0 0 0 0 0 0 0 0 0 0 0 0 0 0 0 0 0 0 0 0 0 0 0 0
0 0 0 0 0 0 0 0 0 0 0 0 0 0 0 0 0 0 0 0 0 0 0 0 0 0 0 0 0 0 0 0 0 0 0 0 0 0 0 0 0 0 0 0 0 0 0 0 0

GFSSGP_con_sbcape_072.txt.gz
CAPE
477 386 288 4 0 0 0 0 0 0 14 0 0 34 170 224 115 2 291 576 708 1335 1448 1488 1740 1635 1367 1070 647 340 494 528 346 4 0 5 10 23 372 432 247 25 13 8 2 0 0 0 1
770 831 126 2 0 0 0 0 0 0 0 0 0 2 104 273 74 906 858 815 901 1306 1374 1406 1638 1597 1240 1022 741 307 601 724 442 3 1 8 9 7 16 255 85 16 8 4 1 0 0 0 0
238 657 6 39 0 0 0 0 0 0 0 11 0 1 194 327 493 412 840 797 829 1198 1399 1530 1686 1572 1404 1131 739 283 611 801 518 11 4 4 13 13 12 5 11 6 3 3 1 0 0 0 0
319 224 60 0 0 0 0 0 0 0 0 0 1 43 76 253 459 456 798 821 765 929 1324 1494 1553 1548 1406 1366 720 167 797 555 435 12 1 3 5 10 12 11 14 12 6 2 1 0 0 0 0
308 119 90 16 0 0 0 0 0 0 0 0 2 91 35 0 103 371 848 668 725 1208 1436 1419 1531 1495 1359 1052 730 476 495 927 592 85 2 4 6 6 11 10 7 6 7 3 0 0 0 0 0
235 147 129 1 0 0 0 0 0 0 0 26 0 115 133 23 317 296 529 690 1221 1357 1411 1225 1280 1408 1309 1045 712 499 412 1113 950 409 2 1 5 6 8 8 9 9 7 6 0 0 40 42 16
290 117 43 0 0 0 0 0 0 0 0 65 139 282 325 193 209 348 386 905 1291 1438 1322 1227 1164 1108 1044 794 587 328 342 940 1229 800 364 61 30 9 4 7 7 6 2 18 18 1 15 45 23
334 68 6 2 0 0 0 0 0 0 232 29 150 416 110 93 193 789 794 979 1197 1333 1310 1033 977 857 428 273 221 480 757 828 970 688 315 70 24 37 59 78 53 17 7 8 10 7 0 0 0
297 165 8 6 0 0 4 0 2 12 147 462 414 335 289 248 389 512 746 697 737 1293 1156 1062 895 468 180 37 30 355 361 548 627 371 103 33 0 0 0 0 30 42 19 8 7 6 0 0 0
295 177 5 0 5 21 29 0 33 136 356 565 756 826 377 269 519 484 640 570 501 821 990 986 776 364 140 44 0 26 85 57 90 38 19 0 0 0 0 0 2 40 34 20 3 0 0 0 0
274 179 29 16 9 68 94 2 3 129 163 484 619 880 712 626 599 638 649 590 605 345 829 880 784 381 155 57 0 0 0 0 0 0 0 0 0 0 0 0 0 0 0 0 0 0 0 0 0
103 65 45 141 124 222 98 0 45 18 15 171 681 977 909 767 697 583 441 130 84 443 710 764 825 498 193 47 0 0 0 0 0 0 0 0 0 0 0 0 0 0 0 0 0 0 0 0 0
18 5 89 116 244 213 201 58 16 0 0 361 844 860 695 972 926 639 431 427 576 568 691 758 667 646 282 111 45 11 0 0 0 0 0 0 0 0 0 0 0 0 0 0 0 0 0 0 0
0 0 41 134 152 155 113 28 0 0 0 175 766 732 663 836 750 599 508 337 705 705 902 644 488 695 402 212 175 121 55 22 13 0 0 0 0 0 0 0 0 0 0 0 0 0 0 0 0
29 79 78 65 111 124 40 44 0 0 0 0 171 364 562 559 697 676 450 525 630 667 908 761 678 621 579 466 450 325 168 42 17 62 21 0 0 0 0 0 0 0 0 0 0 0 0 0 0
41 40 95 43 113 61 49 19 0 0 0 0 0 0 81 407 613 492 318 393 582 523 628 768 865 754 756 772 658 513 331 76 60 31 57 12 1 0 0 0 0 0 0 0 0 0 0 0 0
44 33 33 44 157 83 24 6 0 0 0 0 0 0 0 0 60 377 422 475 460 525 595 646 757 566 562 627 648 561 397 285 132 101 94 56 18 0 0 0 0 0 0 0 0 0 0 0 0
28 25 29 11 20 1 17 0 0 0 0 0 0 0 0 0 0 9 347 461 477 544 580 536 581 473 586 579 581 422 392 244 60 61 107 58 35 4 0 4 0 0 0 0 0 0 1 0 3
0 2 12 4 2 0 7 0 0 0 0 0 0 0 0 0 0 0 0 263 601 420 536 447 542 576 532 379 506 459 399 219 122 25 22 66 49 35 10 9 20 20 26 43 12 10 13 8 5
0 6 46 16 34 8 14 0 0 0 0 0 0 0 0 0 0 0 0 0 215 548 534 445 545 447 493 347 348 328 220 152 126 99 79 94 154 130 37 34 51 50 74 87 71 62 64 22 13
10 7 12 19 37 43 0 3 0 0 0 0 0 0 0 0 0 0 0 0 0 244 507 723 741 660 549 420 298 266 215 222 267 213 209 258 237 229 148 91 120 235 288 250 231 177 194 127 14
1 5 0 2 14 21 3 0 0 0 0 0 0 0 0 0 0 0 0 0 0 0 302 608 664 588 570 371 416 482 424 432 382 209 195 65 82 137 205 212 208 185 103 84 11 2 3 0 0
0 3 3 2 3 4 2 0 0 0 0 0 0 0 0 0 0 0 0 0 0 0 0 133 421 595 689 601 416 387 287 196 99 91 67 0 0 0 0 0 0 0 0 0 0 0 0 0 0
0 25 14 6 0 0 0 0 0 0 0 0 0 0 0 0 0 0 0 0 0 0 0 0 0 123 207 359 363 418 374 174 0 0 0 0 0 0 0 0 0 0 0 0 0 0 0 0 0
0 1 1 0 0 0 0 0 0 0 0 0 0 0 0 0 0 0 0 0 0 0 0 0 0 0 1 75 84 276 264 37 0 0 0 0 0 0 0 0 0 0 0 0 0 0 0 0 0
0 0 0 0 0 0 0 0 0 0 0 0 0 0 0 0 0 0 0 0 0 0 0 0 0 0 0 0 0 0 6 0 0 0 0 0 0 0 0 0 0 0 0 0 0 0 0 0 0
0 0 0 0 0 0 0 0 0 0 0 0 0 0 0 0 0 0 0 0 0 0 0 0 0 0 0 0 0 0 0 0 0 0 0 0 0 0 0 0 0 0 0 0 0 0 0 0 0
0 0 0 0 0 0 0 0 0 0 0 0 0 0 0 0 0 0 0 0 0 0 0 0 0 0 0 0 0 0 0 0 0 0 0 0 0 0 0 0 0 0 0 0 0 0 0 0 0
0 0 0 0 0 0 0 0 0 0 0 0 0 0 0 0 0 0 0 0 0 0 0 0 0 0 0 0 0 0 0 0 0 0 0 0 0 0 0 0 0 0 0 0 0 0 0 0 0
0 0 0 0 0 0 0 0 0 0 0 0 0 0 0 0 0 0 0 0 0 0 0 0 0 0 0 0 0 0 0 0 0 0 0 0 0 0 0 0 0 0 0 0 0 0 0 0 0

GFSSGP_con_sbcape_075.txt.gz
CAPE
389 586 364 92 2 0 0 0 0 0 0 1 0 31 78 136 10 1 86 262 859 1062 1152 1141 1574 1456 1275 762 459 126 335 455 10 0 0 135 452 479 466 328 49 12 4 3 9 14 52 52 22
550 698 220 41 5 0 0 0 0 0 0 0 9 38 102 198 356 570 761 694 962 1175 1155 989 1426 1314 956 678 365 605 366 12 0 0 2 10 283 480 428 240 19 6 4 2 1 0 1 2 0
216 710 186 91 8 0 0 0 0 1 3 3 0 19 125 258 377 564 756 837 1111 1134 1151 1067 1386 1228 1030 724 376 673 437 29 1 5 40 18 9 361 287 92 3 5 4 1 0 0 0 0 17
270 371 217 37 6 0 0 0 0 22 69 0 0 10 128 131 204 371 923 900 828 957 1103 1234 1384 1196 1198 1059 672 629 391 73 1 5 13 24 6 9 8 10 2 5 3 1 0 0 0 0 43
376 217 209 85 0 0 0 0 0 0 2 29 21 0 66 1 317 827 924 794 864 1002 1073 1044 1338 1204 913 856 740 824 982 175 3 4 6 13 14 11 10 3 1 4 1 0 0 0 0 0 0
174 258 134 29 0 0 0 0 0 0 0 2 7 0 19 18 23 420 417 795 1021 1175 1153 1046 1159 1256 980 758 677 688 1078 685 29 5 8 9 12 14 6 8 5 5 1 0 0 0 0 0 0
172 159 148 16 0 0 0 0 0 0 0 0 0 60 225 1 31 306 230 618 953 1169 1028 938 899 967 958 795 612 507 920 1071 542 99 33 10 13 12 11 4 10 22 24 5 0 8 25 19 0
197 293 167 27 0 0 0 0 0 0 37 51 325 230 73 9 10 496 394 545 897 851 889 856 804 721 426 322 343 283 532 928 643 285 55 29 2 28 53 77 86 38 29 27 16 7 0 0 0
271 283 147 61 0 0 0 0 0 15 215 525 282 428 185 104 163 58 0 232 376 521 619 849 830 330 137 37 105 412 482 716 534 198 14 0 0 0 16 0 14 34 20 14 15 9 0 0 0
52 130 17 1 0 0 21 0 17 268 576 684 733 766 389 167 118 42 17 3 297 877 1153 1063 772 289 119 37 79 138 192 276 349 72 6 0 0 0 0 0 0 39 26 11 0 0 0 0 0
32 25 5 44 26 66 192 86 4 141 329 533 586 412 424 430 199 149 30 133 269 323 840 1100 662 272 116 36 1 24 15 25 80 15 0 0 0 0 0 0 0 0 0 0 0 0 0 0 0
49 0 68 81 46 300 152 106 52 59 73 287 821 539 371 561 524 385 376 277 99 436 239 360 519 351 161 23 0 0 0 0 1 0 0 0 0 0 0 0 0 0 0 0 0 0 0 0 0
53 1 49 145 312 425 351 167 17 1 1 763 1135 654 438 688 682 600 490 301 257 131 115 266 403 365 213 60 2 0 0 0 0 0 0 0 0 0 0 0 0 0 0 0 0 0 0 0 0
21 1 0 173 130 297 179 99 5 5 0 902 1069 785 644 681 736 313 267 200 173 118 114 363 524 545 293 90 68 29 0 0 0 0 0 0 0 0 0 0 0 0 0 0 0 0 0 0 0
1 29 1 28 78 129 139 94 33 0 0 503 771 622 636 829 613 500 422 349 307 347 383 524 552 654 398 110 84 136 111 71 25 6 0 0 0 0 0 0 0 0 0 0 0 0 0 0 0
39 46 14 4 58 92 92 16 37 0 0 0 237 290 412 603 810 507 531 569 629 642 828 712 706 643 541 326 161 213 180 89 87 73 27 0 0 0 0 0 0 0 0 0 0 0 0 0 0
23 58 0 122 125 137 65 0 52 0 0 0 0 0 0 43 286 387 416 452 579 543 628 786 717 598 609 506 512 353 255 143 35 40 61 22 0 0 0 0 0 0 0 0 0 0 0 0 0
12 16 10 54 54 56 43 2 0 0 0 0 0 0 0 0 0 59 453 522 597 505 436 595 701 682 499 593 765 384 338 318 165 126 133 110 53 0 0 0 0 0 0 0 0 0 0 0 1
0 7 0 5 56 42 33 0 0 0 0 0 0 0 0 0 0 0 0 409 429 340 355 482 482 484 407 381 457 312 472 276 181 82 118 138 78 13 0 0 0 0 0 6 5 19 27 28 5
2 12 34 0 4 33 1 3 5 5 0 0 0 0 0 0 0 0 0 0 353 403 374 376 382 409 501 493 545 428 195 96 152 90 47 108 83 42 5 0 7 16 25 48 44 56 100 80 14
1 3 12 3 0 11 13 7 8 2 2 0 0 0 0 0 0 0 0 0 0 228 407 476 529 611 533 276 215 161 107 133 141 128 137 80 76 69 52 20 24 52 106 163 148 141 126 135 16
1 2 50 38 17 46 0 1 0 0 0 0 0 0 0 0 0 0 0 0 0 0 270 471 491 505 435 291 330 395 387 350 193 164 91 76 95 123 132 89 97 215 224 223 125 52 48 15 13
0 4 0 0 1 9 19 2 0 0 0 0 0 0 0 0 0 0 0 0 0 0 0 359 404 472 444 347 365 322 268 256 87 20 6 0 0 0 0 0 0 0 0 0 0 0 0 0 0
0 23 0 5 4 0 6 0 0 0 0 0 0 0 0 0 0 0 0 0 0 0 0 0 72 338 407 412 342 354 317 105 45 3 22 0 0 0 0 0 0 0 0 0 0 0 0 0 0
0 0 0 2 1 5 0 0 0 0 0 0 0 0 0 0 0 0 0 0 0 0 0 0 0 1 32 181 230 279 358 133 97 8 0 0 0 0 0 0 0 0 0 0 0 0 0 0 0
0 0 0 0 0 0 0 0 0 0 0 0 0 0 0 0 0 0 0 0 0 0 0 0 0 0 0 0 23 11 47 70 52 0 0 0 0 0 0 0 0 0 0 0 0 0 0 0 0
0 0 0 0 0 0 0 0 0 0 0 0 0 0 0 0 0 0 0 0 0 0 0 0 0 0 0 0 0 0 0 0 0 0 0 0 0 0 0 0 0 0 0 0 0 0 0 0 0
0 0 0 0 0 0 0 0 0 0 0 0 0 0 0 0 0 0 0 0 0 0 0 0 0 0 0 0 0 0 0 0 0 0 0 0 0 0 0 0 0 0 0 0 0 0 0 0 0
0 0 0 0 0 0 0 0 0 0 0 0 0 0 0 0 0 0 0 0 0 0 0 0 0 0 0 0 0 0 0 0 0 0 0 0 0 0 0 0 0 0 0 0 0 0 0 0 0
0 0 0 0 0 0 0 0 0 0 0 0 0 0 0 0 0 0 0 0 0 0 0 0 0 0 0 0 0 0 0 0 0 0 0 0 0 0 0 0 0 0 0 0 0 0 0 0 0

GFSSGP_con_sbcape_078.txt.gz
CAPE
91 297 235 160 65 0 0 0 0 0 0 0 0 51 91 100 3 0 53 274 571 873 882 963 1494 1254 1150 627 224 143 369 117 23 201 565 634 637 615 405 130 11 7 6 9 66 77 14 71 67
138 362 111 20 49 0 0 0 0 0 0 0 0 0 123 178 331 634 657 799 837 923 884 839 1132 1272 963 550 84 480 130 0 0 11 406 587 625 621 200 42 7 5 7 14 9 41 3 0 8
32 365 106 98 62 1 0 0 0 0 0 0 0 0 95 217 443 593 740 795 1016 920 845 845 1141 1185 826 328 430 470 38 0 1 29 371 455 589 531 252 8 7 5 5 8 49 0 0 99 377
47 92 108 96 27 0 0 0 0 21 5 0 0 0 191 102 195 350 989 935 788 775 814 945 1176 1070 1129 691 748 417 31 2 3 47 56 321 562 526 97 7 7 7 4 31 48 0 0 57 497
95 27 59 116 15 0 0 0 0 0 22 0 0 0 89 29 523 911 1138 973 819 717 702 783 1128 1067 883 836 735 723 110 2 5 15 11 3 10 10 5 6 7 7 4 9 10 0 0 0 51
73 24 103 87 29 0 0 0 0 0 0 13 0 0 85 74 355 554 888 779 861 792 703 652 778 1124 1111 778 772 731 413 4 6 12 20 14 15 9 9 4 6 5 2 0 0 0 0 13 0
88 35 60 30 9 0 0 0 0 0 0 2 0 0 125 29 369 605 403 449 584 617 655 531 590 814 744 667 695 783 797 273 7 18 22 26 24 11 7 5 5 32 15 19 23 25 22 8 0
97 262 76 99 32 8 0 0 0 0 0 100 50 160 96 0 398 363 50 129 323 352 460 519 426 474 292 248 344 383 550 437 129 54 13 12 10 13 11 39 65 52 44 18 7 7 13 0 0
99 130 5 26 57 7 0 0 0 82 228 413 448 303 103 54 262 45 0 0 2 219 317 450 514 248 77 30 68 148 507 412 157 43 0 3 0 2 4 0 40 52 27 17 12 1 0 0 0
39 18 0 0 0 9 25 10 1 374 689 690 742 568 121 210 12 0 0 0 12 41 297 433 466 201 62 44 40 52 159 375 144 14 0 0 0 0 0 0 0 14 12 5 0 0 0 0 0
25 1 0 0 4 52 92 191 54 269 350 538 530 503 182 174 0 0 0 0 0 1 542 789 629 180 58 25 48 33 33 73 176 13 0 0 0 0 0 0 0 0 0 0 0 0 0 0 0
25 0 0 0 18 94 60 181 185 162 120 0 505 648 277 360 0 0 0 0 7 86 98 112 355 209 96 0 41 38 44 37 79 30 0 0 0 0 0 0 0 0 0 0 0 0 0 0 0
16 0 1 0 0 68 62 179 305 21 5 59 872 808 266 421 107 2 0 0 106 53 11 5 6 218 185 18 0 29 43 49 52 21 0 0 0 0 0 0 0 0 0 0 0 0 0 0 0
2 0 0 4 13 53 237 162 156 35 0 9 836 862 369 751 236 290 77 142 25 73 27 11 0 254 219 105 1 4 19 29 30 19 14 0 0 0 0 0 0 0 0 0 0 0 0 0 0
0 4 24 11 0 106 169 191 182 0 0 0 648 563 564 757 788 579 322 139 8 5 8 6 25 226 262 165 52 15 0 0 9 15 2 0 0 0 0 0 0 0 0 0 0 0 0 0 0
42 10 36 10 1 131 101 0 70 5 0 0 0 92 472 706 803 426 330 203 99 8 82 120 73 353 349 173 123 115 97 14 2 3 0 0 0 0 0 0 0 0 0 0 0 0 0 0 0
1 21 2 39 2 99 54 51 127 0 0 0 0 0 0 39 283 373 383 275 226 199 231 432 416 449 462 241 177 171 171 101 15 25 18 0 0 0 0 0 0 0 0 0 0 0 0 0 0
0 2 107 2 49 86 137 23 169 0 0 0 0 0 0 0 1 237 392 290 393 513 443 348 449 525 430 358 239 254 252 185 63 26 30 26 2 0 0 0 0 0 0 0 0 0 0 0 0
3 0 1 69 135 99 76 1 2 7 0 0 0 0 0 0 0 0 1 337 297 364 266 471 412 354 317 317 260 412 359 282 147 55 33 74 58 9 0 0 0 0 0 0 0 0 1 30 22
1 16 53 27 92 87 1 20 56 15 0 0 0 0 0 0 0 0 0 0 253 389 284 391 400 330 247 202 65 133 160 202 234 75 48 64 96 60 12 6 0 0 0 0 4 31 67 70 34
5 4 16 7 2 0 0 0 9 0 0 0 0 0 0 0 0 0 0 0 0 175 343 441 377 341 368 337 203 26 42 43 40 63 27 26 69 83 52 16 3 0 0 39 48 49 106 184 4
52 26 55 1 0 3 0 1 7 0 0 0 0 0 0 0 0 0 0 0 0 0 85 384 421 412 294 234 253 116 168 125 93 73 23 7 2 14 16 11 5 7 109 188 106 68 107 102 76
5 39 9 0 0 1 3 3 0 0 0 0 0 0 0 0 0 0 0 0 0 0 0 197 340 344 360 280 300 185 181 117 71 19 25 0 0 0 0 1 3 5 0 0 5 0 0 0 0
1 2 3 0 0 1 6 1 0 0 0 0 0 0 0 0 0 0 0 0 0 0 0 0 221 282 295 206 203 250 279 150 59 19 21 9 0 0 0 0 0 0 0 0 0 0 0 0 0
56 1 0 0 0 0 0 2 0 0 0 0 0 0 0 0 0 0 0 0 0 0 0 0 0 0 14 133 213 232 231 187 130 55 28 0 0 0 0 0 0 0 0 0 0 0 0 0 0
9 0 0 0 0 0 0 0 0 0 0 0 0 0 0 0 0 0 0 0 0 0 0 0 0 0 0 0 0 3 30 60 77 35 0 0 0 0 0 0 0 0 0 0 0 0 0 0 0
0 0 0 0 0 0 0 0 0 0 0 0 0 0 0 0 0 0 0 0 0 0 0 0 0 0 0 0 0 0 0 0 0 0 0 0 0 0 0 0 0 0 0 0 0 0 0 0 0
0 0 0 0 0 0 0 0 0 0 0 0 0 0 0 0 0 0 0 0 0 0 0 0 0 0 0 0 0 0 0 0 0 0 0 0 0 0 0 0 0 0 0 0 0 0 0 0 0
0 0 0 0 0 0 0 0 0 0 0 0 0 0 0 0 0 0 0 0 0 0 0 0 0 0 0 0 0 0 0 0 0 0 0 0 0 0 0 0 0 0 0 0 0 0 0 0 0
0 0 0 0 0 0 0 0 0 0 0 0 0 0 0 0 0 0 0 0 0 0 0 0 0 0 0 0 0 0 0 0 0 0 0 0 0 0 0 0 0 0 0 0 0 0 0 0 0

GFSSGP_con_sbcape_084.txt.gz
CAPE
45 46 80 55 1 0 0 0 6 1 0 69 31 72 111 224 33 142 607 431 499 639 781 1112 1240 1246 1017 675 329 516 526 753 1104 1160 1160 1180 1209 747 260 114 90 111 22 52 166 372 237 8 11
79 86 102 94 15 0 0 2 16 0 0 77 216 251 222 217 458 733 850 463 541 681 758 854 1188 1181 1063 607 404 207 204 586 1182 1030 1288 1147 1040 888 156 62 54 382 227 48 18 16 16 10 20
66 110 88 69 34 0 1 19 23 1 2 161 241 284 225 287 636 735 911 788 692 716 681 771 1123 1248 1108 525 741 76 30 380 828 1043 1024 1073 1064 226 95 42 269 313 315 87 14 4 38 78 71
35 128 94 59 6 3 6 28 47 0 0 1 295 313 327 470 700 922 862 914 848 805 806 920 1119 1184 1142 765 713 155 0 62 485 678 784 841 1083 175 30 205 277 299 225 15 77 209 335 519 69
88 78 18 28 8 6 33 50 50 0 0 0 188 377 363 562 862 1032 903 965 873 758 803 927 1039 1118 895 1221 761 305 1 0 165 410 712 648 597 53 25 14 109 146 109 51 91 299 157 103 58
38 35 6 8 7 9 39 60 35 0 8 9 27 180 355 641 919 1299 1318 1082 792 783 806 735 709 1020 1105 1220 695 277 58 0 108 345 598 630 541 37 10 10 64 112 36 47 41 40 98 115 54
24 18 0 0 0 4 31 15 31 18 26 30 83 96 245 992 1131 1187 880 57 226 776 765 683 697 426 950 909 579 214 60 114 161 214 452 499 204 16 5 4 51 89 52 44 32 22 11 15 22
20 34 10 0 0 0 11 0 9 65 58 40 31 177 211 536 742 455 76 32 1 218 871 785 651 435 320 592 410 155 46 67 46 130 66 1 2 16 46 4 6 119 97 60 38 27 13 0 0
27 45 7 0 0 0 0 0 0 21 58 102 85 114 135 555 839 370 203 183 78 9 15 742 685 517 213 476 453 207 56 0 6 2 1 0 9 8 8 5 7 93 72 51 46 32 7 0 0
43 19 2 0 0 0 0 3 0 50 41 90 134 303 628 1113 933 763 348 195 71 0 0 75 629 593 251 238 634 514 43 5 3 10 12 13 2 7 3 6 46 102 87 57 18 1 0 0 0
14 24 2 1 1 4 6 6 21 95 92 90 166 157 465 814 873 653 206 2 1 0 29 9 201 460 199 8 680 747 503 57 7 2 8 12 12 12 5 36 47 22 0 0 0 0 0 0 0
3 0 0 0 15 8 3 42 67 95 40 141 148 169 502 681 641 447 199 7 0 14 43 170 150 326 228 101 128 802 739 372 129 1 0 2 5 6 2 3 0 0 0 0 0 0 0 0 0
1 0 0 0 4 3 1 1 4 32 68 229 135 175 124 281 377 400 306 181 126 122 22 84 36 67 293 254 27 241 782 679 347 94 0 0 0 10 0 0 0 0 0 0 0 0 0 0 0
0 2 3 4 1 1 1 0 16 0 50 156 236 249 58 4 371 426 470 214 235 89 66 27 11 5 116 279 167 40 294 761 651 251 102 34 25 2 0 0 0 0 0 0 0 0 0 0 0
7 1 0 0 0 9 0 0 0 0 50 251 252 186 202 6 338 281 218 151 110 58 30 9 50 35 50 324 307 83 68 300 675 595 361 150 132 75 46 28 68 52 16 0 0 0 0 3 0
12 1 12 0 0 0 6 0 0 0 11 122 137 117 229 192 407 242 90 54 81 50 101 94 88 24 65 469 309 220 219 184 222 537 585 373 249 154 136 151 149 101 26 7 1 0 0 0 0
14 4 2 1 1 1 54 0 0 0 33 133 142 130 160 264 556 328 176 78 139 144 153 65 50 12 153 454 343 250 291 368 374 332 384 427 433 287 186 114 119 122 39 21 10 13 0 0 0
17 10 9 8 39 59 98 0 0 233 289 315 250 147 76 159 375 526 300 348 254 113 70 27 8 38 165 396 373 299 193 171 245 279 393 405 455 431 304 100 110 99 55 17 19 4 0 0 6
30 23 32 73 98 93 112 4 0 187 298 227 194 105 0 0 0 47 1 4 170 130 100 82 23 89 345 508 461 360 457 408 345 330 272 246 203 190 196 78 104 73 62 59 28 7 0 7 69
51 26 7 36 96 87 133 55 50 206 76 22 79 110 9 0 0 10 4 2 0 47 179 103 152 179 75 118 241 232 270 318 326 440 474 391 303 231 190 141 125 91 47 192 69 21 55 91 162
17 10 3 56 70 180 123 83 98 126 16 0 0 8 30 0 0 0 6 2 17 35 76 94 135 95 97 148 182 150 127 159 147 223 331 441 353 243 286 261 173 82 52 310 221 182 206 377 200
42 2 14 24 64 84 103 103 98 100 13 0 0 0 0 15 0 0 0 0 34 8 73 70 102 86 89 99 125 139 125 67 105 79 244 271 255 256 171 125 57 42 6 19 30 27 97 257 203
39 1 18 1 149 109 59 69 96 29 1 0 0 0 0 41 0 0 0 0 0 5 160 114 139 167 113 171 194 104 81 68 88 28 88 155 97 141 55 22 19 30 72 18 2 4 1 7 10
51 74 40 22 58 71 22 38 22 0 0 0 3 18 32 0 0 0 0 0 0 0 0 0 4 153 267 179 145 112 21 102 18 8 60 74 97 53 42 63 49 28 17 2 0 0 0 0 0
17 100 145 116 97 53 6 17 9 0 0 0 0 0 0 0 0 0 0 0 0 0 0 0 21 27 202 312 289 264 323 286 96 76 137 187 104 96 61 92 39 46 13 2 0 0 0 0 0
9 28 52 28 43 14 0 4 0 0 0 0 0 1 0 0 0 0 0 0 0 0 0 0 0 0 0 0 11 104 377 376 258 280 318 289 175 148 126 71 36 46 40 4 0 0 0 0 0
8 7 0 0 0 4 0 0 0 0 0 0 0 0 0 0 0 0 0 0 0 0 0 0 0 0 0 0 0 0 0 141 307 312 333 309 226 166 119 43 113 21 0 0 0 0 0 0 0
2 0 0 1 8 15 0 0 0 0 0 0 0 0 0 0 0 0 0 0 0 0 0 0 0 0 0 0 0 0 0 0 0 3 49 131 182 82 57 5 11 1 0 0 0 0 0 0 0
0 0 0 0 0 5 0 0 0 0 0 0 0 0 0 0 0 0 0 0 0 0 0 0 0 0 0 0 0 0 0 0 0 0 0 0 0 0 1 1 0 0 0 0 0 0 0 0 0
0 0 0 0 0 0 0 0 0 0 0 0 0 0 0 0 0 0 0 0 0 0 0 0 0 0 0 0 0 0 0 0 0 0 0 0 0 0 0 0 0 0 0 0 0 0 0 0 0

GFSSGP_con_sbcape_087.txt.gz
CAPE
0 52 74 73 10 0 0 0 0 0 0 1 14 32 74 131 240 281 727 482 457 566 969 1007 1501 1132 977 637 489 663 661 933 1407 1317 1332 1160 1198 1032 640 252 75 20 244 555 339 154 15 9 10
30 38 71 59 2 0 0 0 0 0 0 0 0 47 107 212 465 878 913 642 549 699 983 920 1439 1408 1052 805 608 687 499 672 1187 1224 1323 1319 1184 726 437 194 75 290 498 499 397 124 7 11 7
3 28 63 24 37 2 0 0 0 2 0 11 26 113 159 190 515 781 966 718 700 759 980 980 1333 1387 1122 746 495 455 577 835 954 1030 1137 1272 1107 504 202 301 527 393 424 258 124 67 19 51 1
6 42 91 32 0 0 0 0 2 4 5 16 42 135 184 718 652 836 959 832 803 672 632 1124 1186 1271 1165 1198 629 183 339 778 962 1015 953 866 1064 351 235 414 431 259 37 55 36 111 134 94 0
23 52 8 3 2 2 2 0 0 12 2 8 10 87 222 665 973 984 1003 789 726 720 760 1096 1160 1264 1166 1157 934 438 128 584 693 838 835 670 817 157 112 359 300 175 106 91 293 364 200 53 0
33 15 11 1 0 1 0 0 0 0 9 0 19 49 189 665 1072 1053 1074 832 709 777 765 843 749 1024 1013 1285 826 475 213 292 515 707 806 633 610 67 93 232 213 160 76 118 301 146 107 64 0
29 31 0 0 0 2 4 0 10 1 10 5 30 49 78 787 910 1203 1259 1048 450 144 537 591 612 619 739 854 566 400 260 268 390 534 665 494 254 91 7 120 273 146 14 75 60 96 118 82 0
30 18 13 7 1 0 0 2 4 14 16 9 29 57 67 181 1153 1329 1103 646 338 1 0 0 573 473 29 507 373 278 240 362 309 262 161 43 32 18 32 25 201 169 67 65 38 22 14 0 0
23 33 10 3 6 1 0 0 1 7 19 25 44 68 69 872 945 883 993 621 364 120 32 0 0 470 142 418 335 100 72 57 59 16 0 1 2 6 6 13 92 144 139 78 37 25 11 3 0
22 14 0 0 1 1 4 2 3 3 7 9 1 59 91 676 619 672 605 623 191 105 26 11 0 0 142 405 368 73 1 1 0 4 0 13 14 7 0 4 26 109 100 82 46 20 0 0 0
1 6 1 7 14 14 18 5 0 22 14 23 20 8 103 421 829 550 563 496 403 242 51 15 6 0 3 477 695 290 8 0 2 0 9 19 11 2 9 10 9 35 15 2 8 0 0 0 0
0 0 0 0 0 11 34 14 0 6 36 56 137 207 170 166 635 605 605 496 348 197 95 9 0 3 14 113 782 516 380 6 6 9 3 20 7 12 5 1 0 0 0 0 0 0 0 0 0
0 0 0 0 0 0 7 9 11 0 1 41 64 137 173 222 327 436 554 418 217 78 102 8 3 2 2 179 194 427 461 260 10 3 6 8 11 36 1 0 0 0 0 0 0 0 0 0 0
0 1 2 4 2 3 1 0 0 0 0 0 7 28 134 196 203 391 399 334 139 65 51 22 10 5 16 126 241 203 391 562 314 60 0 1 2 39 32 0 6 0 0 0 0 0 0 0 0
2 1 1 0 0 0 2 0 0 0 0 0 0 27 261 265 166 106 414 417 129 59 77 44 13 3 1 19 279 185 244 387 670 308 54 0 0 0 0 0 0 0 0 0 0 0 0 0 0
17 12 1 0 0 0 4 5 0 0 0 0 0 37 197 212 260 82 529 538 326 75 164 71 54 41 36 16 134 313 147 264 340 567 286 124 113 76 54 37 66 68 50 20 0 0 0 0 0
27 37 28 1 9 2 35 22 0 0 0 0 0 0 111 247 362 336 551 469 195 77 139 168 125 91 5 20 143 379 248 163 247 489 672 471 259 247 190 199 196 146 99 26 15 10 4 6 1
24 24 20 18 86 82 69 43 0 0 0 0 0 12 142 283 343 615 513 432 234 179 130 135 114 63 8 32 262 327 326 312 375 358 354 454 472 460 411 244 131 138 154 75 41 17 32 15 8
13 20 13 19 47 85 81 8 0 0 255 129 151 258 236 297 349 615 619 544 589 282 187 191 217 13 21 68 264 302 306 305 343 409 461 451 441 442 512 371 140 173 246 185 69 36 19 18 18
14 17 16 10 47 35 133 26 36 18 227 390 279 286 260 188 239 396 225 103 1 0 10 113 45 53 71 100 155 245 446 550 507 502 486 374 338 295 321 361 223 229 267 234 211 133 44 35 60
12 30 8 15 28 107 94 106 103 50 201 265 281 299 335 128 17 125 37 1 0 0 55 94 100 65 62 78 100 80 143 269 351 496 440 419 420 340 427 432 356 279 182 221 311 175 99 149 263
23 3 18 63 41 46 30 69 47 100 236 289 244 119 169 18 0 20 44 14 7 19 16 52 1 113 89 62 91 85 134 171 213 291 321 498 380 343 347 316 391 284 195 70 41 96 93 203 254
1 19 15 19 36 27 59 59 32 79 164 234 134 87 58 0 0 0 5 10 7 48 21 3 12 19 113 66 59 91 86 105 127 68 133 189 242 193 238 310 252 156 119 59 63 36 35 1 3
13 5 6 14 13 62 23 95 88 132 85 74 131 18 17 3 0 0 0 0 0 0 0 0 1 12 61 96 120 83 113 93 60 132 108 75 96 142 136 116 131 126 51 50 2 0 0 0 8
62 61 159 133 183 49 20 29 9 0 0 0 0 20 32 0 0 1 0 0 0 0 0 0 0 2 6 32 135 72 103 117 65 103 31 42 52 87 55 116 132 83 80 18 1 1 1 0 0
32 35 131 65 47 21 1 84 12 2 0 0 0 51 6 0 0 0 0 0 0 0 0 0 0 0 0 1 37 125 189 214 110 140 128 120 154 93 81 190 113 113 57 11 7 4 0 0 0
11 89 2 29 0 15 15 2 1 0 7 6 1 1 0 2 1 0 0 0 0 0 0 0 0 0 0 0 0 0 82 314 311 213 209 207 231 265 216 230 191 172 91 12 20 1 0 0 0
2 0 0 18 34 15 1 0 4 12 6 5 0 0 0 0 0 0 0 0 0 0 0 0 0 0 0 0 0 0 0 0 0 103 362 343 332 347 148 159 169 158 55 0 0 0 0 0 0
7 9 0 0 0 8 3 2 0 2 13 0 0 0 0 0 0 0 0 0 0 0 0 0 0 0 0 0 0 0 0 0 0 0 0 2 40 151 50 57 58 0 0 0 0 0 0 0 0
0 0 0 1 0 0 0 2 0 1 1 0 0 0 0 0 0 0 0 0 0 0 0 0 0 0 0 0 0 0 0 0 0 0 0 0 0 0 1 0 0 0 0 0 0 0 0 0 0

GFSSGP_con_sbcape_090.txt.gz
CAPE
0 0 3 47 2 0 0 0 0 0 0 0 0 0 11 10 362 140 460 284 731 892 800 1332 1508 1229 1051 906 514 758 815 1564 1388 1299 1233 1097 1221 1062 755 327 213 685 810 517 279 139 7 107 21
0 0 14 27 0 0 0 0 0 0 0 0 0 0 4 95 842 591 615 457 456 975 825 870 1411 1291 1059 843 571 689 465 865 1454 1245 1480 1713 1193 994 594 225 318 960 991 712 118 15 10 17 6
0 0 15 15 11 0 0 0 0 0 0 0 0 0 13 367 799 855 712 580 807 985 737 956 1302 1365 1167 705 743 702 539 689 1194 1103 1184 1244 1103 1098 447 422 598 809 797 558 99 15 9 4 0
0 0 26 7 0 0 0 0 0 0 0 0 0 0 63 539 769 891 729 592 791 929 901 1205 1353 1218 1178 969 811 540 629 520 911 1004 1092 1292 936 699 710 617 365 321 246 332 113 89 65 0 0
0 30 1 1 0 0 0 0 0 0 0 0 0 0 19 736 992 883 916 669 730 726 1002 1061 1229 1077 1283 1165 758 631 504 917 861 904 843 809 822 493 478 344 59 15 100 60 79 116 24 0 0
8 1 9 0 0 0 0 0 0 0 0 0 0 1 62 914 987 1083 1071 726 743 791 940 771 1058 1216 1040 1126 822 461 450 791 1060 877 764 762 636 449 351 147 8 8 75 216 405 203 39 0 0
9 15 0 0 0 0 0 0 0 0 0 0 0 0 119 660 869 1124 1086 875 281 315 210 21 354 725 725 1081 765 456 320 419 731 738 610 414 408 387 34 19 118 174 143 428 354 141 80 0 0
0 0 0 3 0 0 0 0 0 0 0 0 0 0 0 493 936 1187 1198 434 152 75 82 14 0 319 312 725 439 290 182 344 254 435 226 77 7 10 9 69 62 55 169 158 171 159 118 41 0
3 1 0 0 0 0 0 0 0 0 0 0 0 0 0 848 778 895 810 733 331 213 90 26 21 4 0 155 223 163 182 142 133 10 5 0 0 1 1 11 29 66 112 110 63 35 33 6 0
2 2 0 0 0 0 0 0 0 0 0 0 0 0 0 683 401 372 341 393 609 341 137 44 14 103 0 0 73 15 12 0 6 2 0 0 0 0 2 13 23 91 102 90 72 42 22 0 0
0 0 0 0 1 0 0 0 0 0 0 0 6 0 0 4 263 261 269 214 217 263 123 94 89 92 19 0 0 54 0 0 0 0 1 15 5 0 0 0 9 6 2 4 14 4 0 0 0
0 0 0 0 0 0 0 0 0 0 0 0 0 19 82 49 154 220 166 182 390 217 133 60 9 0 1 0 35 37 3 0 0 0 0 4 0 0 0 0 0 1 0 0 0 0 0 0 0
0 0 0 0 0 0 0 0 0 0 0 0 0 0 0 20 29 62 124 133 150 255 207 117 27 8 62 97 59 87 120 0 0 0 0 0 0 0 0 0 0 0 0 0 0 0 0 0 0
0 0 0 0 0 0 0 0 0 0 0 0 0 0 0 0 10 45 251 180 145 116 92 77 57 10 109 33 25 6 137 157 0 0 0 2 0 0 0 0 0 0 0 0 0 0 0 0 0
0 0 0 0 0 0 0 0 0 0 0 0 0 0 0 0 11 47 164 223 266 96 56 92 132 44 14 53 21 64 47 107 87 0 0 0 0 0 0 0 0 0 0 0 0 0 0 0 0
0 0 0 0 0 0 1 0 0 0 0 0 0 0 0 0 81 94 93 315 281 205 113 119 142 21 11 10 77 92 82 90 89 89 0 0 0 0 0 0 0 0 0 0 0 0 0 0 0
0 0 0 0 6 6 11 0 0 0 0 0 0 0 0 0 158 145 170 349 365 269 145 35 117 85 91 85 26 71 155 37 174 129 152 8 15 3 0 0 0 17 28 7 0 0 0 0 0
0 1 0 0 0 38 20 0 0 0 0 0 0 0 0 0 215 369 320 392 408 320 178 136 137 85 83 64 46 113 196 109 129 196 189 255 133 141 104 105 100 81 71 29 12 7 3 0 4
1 1 0 0 0 0 3 0 0 19 0 0 0 0 0 1 397 413 400 329 365 272 187 114 106 79 63 28 49 66 110 165 229 259 265 267 326 387 372 235 90 54 123 70 28 39 12 14 11
7 8 0 0 0 9 10 0 1 20 9 12 185 99 392 321 300 333 409 112 66 53 131 98 115 100 34 13 42 109 114 167 121 276 339 332 277 375 347 314 236 82 167 193 137 58 23 13 8
0 2 0 8 0 0 8 1 14 7 3 332 330 278 345 299 256 448 296 109 28 0 3 110 129 85 53 29 67 90 110 74 161 257 258 247 315 331 270 271 259 221 201 213 215 190 139 40 32
6 0 5 16 33 7 5 0 0 4 0 237 196 359 362 323 105 231 317 109 66 1 0 47 22 78 50 44 36 50 41 62 52 56 166 267 321 305 315 297 285 246 180 151 93 32 35 49 111
11 3 21 18 24 12 6 11 0 0 35 125 149 255 384 290 28 65 124 189 33 1 0 0 30 10 5 19 15 18 10 52 50 17 15 67 189 186 244 249 262 211 127 144 64 81 69 31 35
20 5 5 10 26 0 0 0 0 0 10 99 173 204 155 217 0 0 0 0 0 0 0 0 0 3 6 3 15 71 32 34 27 32 25 37 105 118 136 137 182 202 169 129 93 65 31 19 19
22 3 1 0 0 4 6 1 15 0 0 67 154 246 162 4 0 0 0 1 0 0 0 0 0 0 0 0 2 24 29 45 9 0 18 60 34 28 48 61 109 146 97 47 27 1 1 1 1
1 21 11 1 2 14 1 11 5 0 0 0 131 5 0 1 1 2 0 0 0 0 0 0 0 0 0 0 0 5 28 37 47 15 21 74 26 2 4 24 30 95 68 51 17 1 0 0 0
0 13 3 16 1 15 13 3 1 4 0 2 4 2 4 3 0 1 0 0 0 0 0 0 0 0 0 0 0 0 53 48 83 83 59 55 61 65 22 38 94 79 6 42 59 10 2 1 1
1 0 0 0 0 4 7 2 28 10 5 4 2 3 2 2 1 1 1 0 0 0 0 0 0 0 0 0 0 0 0 0 0 0 125 170 118 91 115 58 82 47 55 58 34 24 3 0 0
0 1 0 0 0 2 0 5 25 12 10 3 5 4 2 1 0 0 0 0 0 0 0 0 0 0 0 0 0 0 0 0 0 0 0 0 0 3 43 93 54 71 100 63 8 0 0 0 0
0 0 0 0 0 0 0 2 2 2 0 3 2 1 1 0 0 0 0 0 0 0 0 0 0 0 0 0 0 0 0 0 0 0 0 0 0 0 0 0 12 16 1 0 0 0 0 0 0

GFSSGP_con_sbcape_093.txt.gz
CAPE
0 0 0 0 0 0 0 0 0 0 0 0 0 0 0 43 81 2 55 542 838 905 1166 1190 1465 1245 1101 835 652 928 1569 1367 1339 1607 1229 1294 1192 1020 656 333 377 814 793 752 545 418 72 30 10
0 0 0 0 0 0 0 0 0 0 0 0 0 0 0 635 557 568 248 907 865 1010 1165 1127 1516 1380 1089 887 451 597 891 1500 1309 1183 1660 1697 1228 918 815 261 670 1008 795 476 321 60 10 8 4
0 0 0 0 0 0 0 0 0 0 0 0 0 0 3 677 510 541 299 790 796 981 1076 1180 1506 1479 1148 776 553 392 332 1081 1546 1377 1339 1439 1266 862 565 633 1066 895 614 318 28 21 8 7 0
0 0 0 1 0 0 0 0 0 0 0 0 0 0 211 458 690 593 585 844 804 743 881 1396 1527 1523 1245 1208 924 664 357 530 1239 1358 1082 1449 1060 961 881 782 898 604 252 73 0 8 5 0 0
0 0 0 0 0 0 0 0 0 0 0 0 0 0 7 747 669 639 514 762 757 728 989 1237 1690 1592 1376 1240 1021 941 766 790 934 1124 961 1147 1035 855 853 592 586 297 343 214 28 12 0 0 0
0 0 0 0 0 0 0 0 0 0 0 0 0 0 129 655 797 771 445 537 659 1009 1095 1169 1408 1398 1431 1170 1019 871 829 1274 1155 1172 1000 981 967 767 614 482 111 10 14 69 83 20 0 0 0
0 0 0 0 0 0 0 0 0 0 0 0 0 0 89 628 728 412 326 181 348 680 603 850 1052 1092 1172 1137 827 552 511 837 1169 854 735 616 572 584 280 103 7 54 231 537 479 65 0 0 0
0 0 0 0 0 0 0 0 0 0 0 0 0 0 0 168 693 302 98 49 36 36 31 88 306 91 164 818 646 377 193 387 527 649 387 172 148 147 7 47 29 9 668 529 407 150 21 0 0
0 0 0 0 0 0 0 0 0 0 0 0 0 0 133 391 679 456 219 179 99 44 38 98 24 0 5 137 320 240 167 225 187 294 70 11 0 2 2 14 22 105 188 223 235 185 115 21 0
0 0 0 0 0 0 0 0 0 0 0 0 0 0 31 499 411 320 204 192 327 89 36 9 16 1 27 3 0 0 51 105 88 27 0 0 0 0 3 17 12 31 85 77 74 42 17 0 0
0 0 0 0 0 0 0 0 0 0 0 0 0 0 0 4 154 271 192 140 215 271 95 53 51 40 7 4 0 0 0 0 32 14 0 0 0 0 0 18 16 9 10 0 7 6 0 0 0
0 0 0 0 0 0 0 0 0 0 0 0 0 0 0 0 1 163 162 99 96 113 89 75 75 19 4 0 0 0 0 1 0 40 46 1 0 0 0 5 16 8 0 0 0 0 0 0 0
0 0 0 0 0 0 0 0 0 0 0 0 0 0 0 0 0 31 146 69 46 146 91 21 0 7 0 0 3 0 27 44 7 58 74 28 3 0 0 0 0 0 0 0 0 0 0 0 0
0 0 0 0 0 0 0 0 0 0 0 0 0 0 0 0 0 2 43 27 96 119 38 1 2 7 34 0 0 0 1 12 2 25 55 45 0 3 7 0 0 0 0 0 0 0 0 0 0
0 0 0 0 0 0 0 0 0 0 0 0 0 0 0 0 0 0 96 79 77 86 78 47 32 55 95 59 0 1 0 98 80 2 3 38 3 0 0 0 0 0 0 0 0 0 0 0 0
0 0 0 0 0 0 3 0 0 0 0 0 0 0 0 0 0 0 20 123 20 73 88 125 156 43 47 42 29 1 14 102 136 133 1 0 10 0 0 0 0 0 0 0 0 0 0 0 0
0 0 0 0 0 0 0 0 0 0 0 0 0 0 0 0 0 0 18 84 154 83 116 170 122 63 19 43 26 88 15 96 123 97 83 0 1 0 0 0 0 0 0 0 0 0 0 0 0
0 0 0 0 0 0 0 0 0 0 0 0 0 0 0 0 0 0 135 208 216 73 73 78 127 72 42 49 62 87 99 108 153 107 78 18 0 0 0 0 0 0 0 0 0 0 0 0 0
0 0 0 0 0 0 0 0 0 0 0 0 0 0 0 0 0 257 210 312 283 101 123 93 97 122 105 36 44 58 64 73 73 121 88 89 91 46 17 34 14 19 31 0 0 0 0 0 0
0 0 0 0 0 6 0 0 0 0 0 0 0 0 0 0 197 240 176 171 238 209 187 190 143 105 133 74 16 16 34 12 59 123 95 139 110 189 245 156 82 24 84 36 11 16 19 11 0
0 0 0 0 0 3 2 0 0 0 0 0 0 94 205 189 253 263 251 168 17 77 130 191 213 138 144 50 35 12 16 11 53 53 67 107 199 131 210 212 216 98 94 127 91 114 38 24 10
5 0 0 20 36 0 0 0 0 0 0 0 10 271 96 159 211 249 243 155 34 13 6 110 102 195 158 62 32 10 8 21 41 61 13 63 104 116 93 99 119 164 168 161 141 121 120 134 110
1 4 17 19 7 2 0 3 0 0 0 0 9 103 53 16 7 43 143 307 149 39 2 1 54 71 100 116 78 24 1 7 32 17 10 29 32 76 150 128 70 77 83 116 63 74 76 38 36
0 3 5 3 11 1 0 0 0 0 0 0 27 44 79 0 0 0 0 0 1 0 0 0 0 0 6 13 19 29 23 24 49 15 17 2 4 5 18 66 73 142 111 84 47 79 75 68 51
0 2 0 0 0 0 2 0 0 0 3 0 0 226 2 0 0 0 0 0 0 0 0 0 0 0 0 2 1 3 19 28 17 0 6 26 5 14 11 41 57 120 110 53 33 66 43 33 29
2 6 2 0 0 1 8 4 6 3 44 20 18 1 1 2 2 1 1 1 0 0 0 0 0 0 0 0 0 0 12 43 4 0 1 4 40 29 22 4 38 47 92 65 37 21 3 0 0
0 11 0 14 4 0 2 3 3 1 1 6 5 2 3 4 4 4 1 1 0 0 0 0 0 0 0 0 0 0 0 48 51 21 4 3 33 25 21 1 18 37 52 11 21 6 11 0 0
0 0 0 0 0 6 3 3 11 5 3 7 4 5 4 4 4 5 3 0 0 0 0 0 0 0 0 0 0 0 0 0 0 0 6 38 16 46 55 19 25 35 43 31 22 21 8 1 1
0 0 0 0 0 0 0 4 9 4 9 8 5 3 1 0 1 1 1 0 0 0 0 0 0 0 0 0 0 0 0 0 0 0 0 0 0 0 2 12 18 36 36 31 42 16 17 1 9
0 0 0 0 0 0 0 4 10 13 12 2 3 3 2 0 0 0 0 0 0 0 0 0 0 0 0 0 0 0 0 0 0 0 0 0 0 0 0 0 0 55 71 65 75 69 14 0 0

GFSSGP_con_sbcape_096.txt.gz
CAPE
0 0 0 0 0 0 0 0 0 0 0 0 0 0 0 0 0 0 14 456 645 950 1103 1089 1371 1280 1202 1154 1196 1859 1816 1672 1741 1717 1156 901 1270 991 454 136 580 799 846 812 631 511 423 214 126
0 0 0 0 0 0 0 0 0 0 0 0 0 0 0 2 432 367 578 749 722 984 1081 1021 1467 1412 1073 824 731 1435 1695 1702 1646 1724 1729 1538 1260 946 580 393 745 902 811 647 519 159 34 54 41
0 0 0 0 0 0 0 0 0 0 0 0 0 0 0 540 310 279 376 858 861 920 962 1173 1596 1474 1231 779 563 549 1337 1634 1609 1584 1613 1446 1247 883 592 834 1191 968 727 554 355 7 52 16 12
0 0 0 0 0 0 0 0 0 0 0 0 0 0 182 260 537 396 687 867 923 916 944 1450 1669 1524 1341 1135 789 327 592 1304 1601 1551 1279 1334 1097 933 1024 1189 1025 700 399 291 31 8 3 0 0
0 0 0 0 0 0 0 0 0 0 0 0 0 0 45 511 416 499 733 821 813 750 932 1327 1755 1632 1476 1338 1219 975 583 828 1165 1416 1056 872 1158 895 1004 1001 810 423 280 87 11 6 0 0 0
0 0 0 0 0 0 0 0 0 0 0 0 0 0 2 114 330 406 734 671 633 769 1103 1273 1605 1541 1438 1378 1240 1146 921 960 1173 1267 1364 1230 1243 755 838 752 731 489 355 49 42 1 0 0 0
0 0 0 0 0 0 0 0 0 0 0 0 0 0 0 148 115 108 128 298 703 930 987 1123 1177 1206 1183 1201 1069 977 830 1110 1300 1068 1112 924 856 480 721 576 493 79 36 362 197 0 0 0 0
0 0 0 0 0 0 0 0 0 0 0 0 0 0 0 0 182 73 49 20 33 44 266 560 766 879 908 602 577 388 335 484 788 727 549 389 292 196 492 189 34 63 275 425 398 38 0 0 0
0 0 0 0 0 0 0 0 0 0 0 0 0 0 0 0 140 141 123 81 91 48 44 27 32 60 384 473 286 202 155 194 134 277 251 83 22 22 0 0 16 39 498 671 383 89 34 11 0
0 0 0 0 0 0 0 0 0 0 0 0 0 0 0 0 0 45 138 123 116 106 70 32 0 0 10 42 2 32 72 44 53 78 49 2 0 0 0 2 8 86 312 353 459 236 75 0 0
0 0 0 0 0 0 0 0 0 0 0 0 0 0 0 0 0 0 37 71 119 99 82 32 1 0 0 1 0 0 0 3 44 20 0 0 0 0 1 0 5 19 19 13 38 14 0 0 0
0 0 0 0 0 0 0 0 0 0 0 0 0 0 0 0 0 0 0 37 66 84 81 60 32 10 1 2 1 0 0 0 6 63 12 1 0 0 6 4 0 7 5 0 0 0 0 0 0
0 0 0 0 0 0 0 0 0 0 0 0 0 0 0 0 0 0 0 8 19 18 50 75 24 10 0 0 0 0 4 0 0 6 32 13 13 0 0 0 3 2 1 0 0 0 0 0 0
0 0 0 0 0 0 0 0 0 0 0 0 0 0 0 0 0 0 0 0 5 29 17 10 4 0 0 0 1 0 0 7 18 1 97 49 17 0 1 1 1 0 0 0 0 0 0 0 0
0 0 0 0 0 0 0 0 0 0 0 0 0 0 0 0 0 0 0 0 8 8 16 13 9 22 14 1 1 1 0 0 0 0 60 49 18 18 25 25 2 0 0 0 0 0 0 0 0
0 0 0 0 0 0 0 0 0 0 0 0 0 0 0 0 0 0 0 0 3 47 75 32 67 58 37 19 9 10 0 5 17 4 0 6 0 16 54 4 3 16 27 0 0 0 0 0 0
0 0 0 0 0 0 0 0 0 0 0 0 0 0 0 0 0 0 0 0 14 61 102 121 109 52 56 41 18 1 0 18 35 35 15 0 31 6 33 1 11 1 0 0 0 0 0 0 0
0 0 0 0 0 0 0 0 0 0 0 0 0 0 0 0 0 0 0 0 31 81 117 165 162 96 44 49 50 37 0 15 73 73 63 8 27 55 9 3 1 0 0 0 0 0 0 0 0
0 0 0 0 0 0 0 0 0 0 0 0 0 0 0 0 0 0 0 53 161 110 120 176 146 104 61 59 72 55 84 29 50 120 103 52 0 12 21 8 0 0 0 0 0 0 0 0 0
0 0 0 0 0 0 0 0 0 0 0 0 0 0 0 0 0 10 101 135 163 176 162 82 118 126 107 93 48 61 101 68 63 51 61 83 49 9 15 16 6 2 0 0 0 0 0 0 0
0 0 0 0 0 0 0 0 0 0 0 0 0 0 0 0 0 79 158 83 10 56 102 75 82 76 69 105 67 10 30 33 8 31 23 68 69 65 33 58 61 38 26 15 3 5 22 21 8
0 0 0 0 7 0 0 0 0 0 0 0 0 0 0 114 165 144 152 125 59 1 40 39 45 68 53 97 83 23 26 29 11 0 37 33 58 45 82 111 166 87 71 117 73 44 58 61 54
0 0 0 19 14 0 0 0 0 0 0 0 0 0 128 48 21 71 107 157 164 34 7 0 12 38 85 177 115 59 28 9 22 32 56 59 12 27 47 95 76 55 36 52 84 54 96 103 103
0 0 6 17 17 1 0 0 0 0 9 9 8 141 57 3 1 0 0 0 0 0 0 0 0 0 8 41 31 76 16 18 19 9 34 35 12 1 35 56 35 24 70 79 39 36 33 47 47
0 2 0 0 0 0 6 0 0 2 31 31 23 22 3 3 0 2 1 0 0 0 0 0 0 0 0 0 1 7 31 5 16 16 19 10 14 4 2 7 26 33 59 51 20 12 47 61 70
0 4 1 0 0 0 5 0 6 4 1 1 5 5 3 4 2 2 2 1 0 0 0 0 0 0 0 0 0 0 1 14 1 2 1 5 14 1 1 13 2 9 43 41 40 33 38 32 30
0 8 3 11 6 0 0 1 7 0 0 3 9 4 6 5 3 4 2 2 2 0 0 0 0 0 0 0 0 0 0 2 11 2 0 0 7 24 19 11 11 18 25 44 104 58 11 3 10
0 0 2 0 0 0 1 3 6 4 1 7 4 6 7 4 4 2 2 1 1 0 0 0 0 0 0 0 0 0 0 0 0 0 1 6 6 15 19 35 19 5 5 18 42 30 15 10 10
0 0 0 0 0 0 0 4 9 6 6 9 5 3 3 4 4 6 1 2 0 0 0 0 0 0 0 0 0 0 0 0 0 0 0 0 0 0 3 2 14 24 17 23 25 38 25 17 2
0 0 0 0 0 0 0 2 10 11 11 11 17 7 4 3 2 3 0 0 0 0 0 0 0 0 0 0 0 0 0 0 0 0 0 0 0 0 0 0 0 0 15 24 33 48 41 21 5

GFSSGP_con_sbcape_099.txt.gz
CAPE
0 0 0 0 0 0 0 0 0 0 0 0 0 0 0 0 0 0 6 475 592 870 1084 1207 1475 1633 2020 2158 2260 2097 2062 1975 1788 1589 889 1007 1077 467 306 662 659 613 679 713 746 683 562 54 7
0 0 0 0 0 0 0 0 0 0 0 0 0 0 0 0 235 256 519 500 739 973 1048 984 1502 1510 1343 1679 1872 1918 1721 1747 1796 1699 1362 1360 1110 807 307 606 889 1072 881 788 732 646 209 54 38
0 0 0 0 0 0 0 0 0 0 0 0 0 0 0 92 279 226 163 658 747 881 887 939 1537 1492 1218 989 1569 1591 1678 1592 1706 1683 1670 1474 1241 963 383 691 1248 998 998 791 525 28 80 4 0
0 0 0 0 0 0 0 0 0 0 0 0 0 0 0 126 249 227 746 749 791 778 841 1322 1638 1562 1317 1174 1039 1423 1373 1368 1541 1667 1244 1187 1192 1085 911 1344 895 833 704 439 209 130 42 1 0
0 0 0 0 0 0 0 0 0 0 0 0 0 0 0 57 161 476 786 881 855 765 894 1357 1750 1687 1427 1222 1044 930 1315 1420 1325 1276 1025 978 1260 1110 1065 1015 741 583 577 259 51 14 35 0 0
0 0 0 0 0 0 0 0 0 0 0 0 0 0 0 6 6 351 439 550 776 791 1055 1313 1613 1619 1541 1326 1245 1009 911 1121 1484 1606 1497 1286 1201 1016 815 807 704 534 170 54 28 28 0 0 0
0 0 0 0 0 0 0 0 0 0 0 0 0 0 0 0 0 1 180 219 250 590 1015 1147 1324 1314 1330 1307 1287 1233 1194 991 1357 1430 1447 1220 843 816 813 691 710 449 226 123 30 2 0 0 0
0 0 0 0 0 0 0 0 0 0 0 0 0 0 0 0 0 0 29 77 143 208 334 459 611 729 812 871 869 786 727 1015 1222 1016 921 712 528 441 426 416 520 532 380 392 122 2 0 0 0
0 0 0 0 0 0 0 0 0 0 0 0 0 0 0 0 0 0 12 23 41 47 159 184 335 444 497 365 360 249 270 341 365 535 516 393 179 76 50 124 100 87 141 324 132 7 0 0 0
0 0 0 0 0 0 0 0 0 0 0 0 0 0 0 0 0 0 0 12 21 65 107 49 16 47 283 241 58 37 60 6 44 121 56 43 51 17 19 2 3 35 90 507 329 81 42 0 0
0 0 0 0 0 0 0 0 0 0 0 0 0 0 0 0 0 0 0 0 9 57 52 27 0 0 13 5 3 16 19 10 15 6 1 3 9 0 0 0 3 8 77 194 193 107 0 0 0
0 0 0 0 0 0 0 0 0 0 0 0 0 0 0 0 0 0 0 0 0 17 55 48 11 1 0 0 0 0 8 11 45 30 11 0 0 0 0 0 0 11 11 12 8 0 0 0 0
0 0 0 0 0 0 0 0 0 0 0 0 0 0 0 0 0 0 0 0 0 8 27 19 39 3 0 0 0 0 0 0 1 37 55 31 19 9 6 0 0 0 0 1 0 0 0 0 0
0 0 0 0 0 0 0 0 0 0 0 0 0 0 0 0 0 0 0 0 0 0 7 25 70 18 11 7 0 0 0 0 0 0 91 54 41 30 20 4 0 0 0 1 0 0 0 0 0
0 0 0 0 0 0 0 0 0 0 0 0 0 0 0 0 0 0 0 0 0 0 0 18 20 25 16 54 35 4 0 0 2 3 14 117 75 42 49 8 1 0 11 1 0 0 0 0 0
0 0 0 0 0 0 0 0 0 0 0 0 0 0 0 0 0 0 0 0 0 0 0 37 84 29 25 28 30 15 0 0 8 1 25 75 67 32 53 23 3 2 7 19 16 0 0 0 0
0 0 0 0 0 0 0 0 0 0 0 0 0 0 0 0 0 0 0 0 0 0 3 55 50 49 29 17 16 4 1 0 0 0 0 9 83 55 26 27 28 0 4 6 16 0 0 0 0
0 0 0 0 0 0 0 0 0 0 0 0 0 0 0 0 0 0 0 0 0 0 34 92 91 66 51 58 71 6 0 0 0 0 2 4 24 57 54 15 19 1 41 15 0 1 0 0 0
0 0 0 0 0 0 0 0 0 0 0 0 0 0 0 0 0 0 0 0 0 0 42 132 170 115 35 45 44 113 58 20 2 1 28 34 50 30 81 78 72 36 36 46 1 6 0 0 0
0 0 0 0 0 0 0 0 0 0 0 0 0 0 0 0 0 0 0 0 6 89 120 175 219 140 73 77 80 68 53 46 9 1 24 91 110 20 51 73 11 5 4 27 7 4 0 0 0
0 0 0 0 0 0 0 0 0 0 0 0 0 0 0 0 0 0 0 8 51 157 171 146 149 162 107 52 16 12 0 0 7 26 61 70 90 79 7 10 8 0 0 15 10 9 17 3 0
0 0 0 0 10 6 0 0 0 0 0 0 0 0 0 0 0 97 69 21 5 52 110 143 202 183 104 65 52 24 1 3 0 23 33 43 52 62 65 2 5 0 8 18 7 0 22 32 9
0 0 0 1 18 17 0 1 0 0 8 69 33 0 3 14 14 128 126 158 54 3 15 43 63 76 99 171 67 63 29 13 0 0 0 11 30 35 39 21 2 11 11 27 34 25 20 24 29
0 0 0 7 5 0 0 0 0 3 28 68 82 33 45 11 0 1 2 3 5 0 0 0 0 0 0 19 34 79 171 92 32 24 17 1 15 18 13 8 19 11 23 36 29 17 32 34 11
0 0 0 0 0 0 2 0 0 7 2 30 28 5 3 2 2 2 2 1 0 0 0 0 0 0 0 0 0 0 2 12 77 58 25 37 27 18 14 26 25 19 27 50 37 4 10 18 20
0 7 2 0 0 0 0 0 0 3 0 11 12 9 5 6 4 5 6 3 2 0 0 0 0 0 0 0 0 0 2 3 37 5 23 47 8 6 1 24 35 18 13 34 26 49 43 27 32
0 0 11 19 0 1 0 0 3 0 0 8 6 7 7 7 8 2 1 0 0 0 0 0 0 0 0 0 1 1 2 2 4 2 4 3 0 7 5 1 4 4 5 1 8 10 32 48 34
0 0 2 1 0 0 0 1 4 3 3 7 5 8 7 5 5 5 2 1 0 0 0 0 0 0 0 0 0 0 0 0 0 0 0 0 0 2 3 9 11 11 13 19 7 13 35 61 45
0 0 1 0 0 1 0 1 8 6 7 10 10 10 10 5 4 2 2 1 0 0 0 0 0 0 0 0 0 0 0 0 0 0 0 0 0 0 0 2 3 4 24 24 28 39 43 28 26
0 0 0 0 0 0 0 1 9 8 8 9 10 9 18 17 6 2 1 1 1 0 0 0 0 0 0 0 0 0 0 0 0 0 0 0 0 0 0 0 0 0 0 6 25 55 48 35 29

GFSSGP_con_sbcape_102.txt.gz
CAPE
0 0 0 0 0 0 0 0 0 0 0 0 0 0 0 0 0 0 8 298 443 816 1211 1327 1617 1975 2124 1957 1927 1902 1969 1885 1624 993 478 685 719 340 417 404 148 92 137 667 735 611 154 6 9
0 0 0 0 0 0 0 0 0 0 0 0 0 0 0 0 0 54 402 486 662 990 1065 1019 1780 1946 2128 2013 1867 1957 1700 1920 1806 1556 1120 1559 874 476 592 697 575 1085 914 776 826 464 82 6 7
0 0 0 0 0 0 0 0 0 0 0 0 0 0 0 0 85 103 35 610 866 943 906 1061 1669 1761 1957 1810 1827 1824 1620 1484 1536 1679 1330 1444 1185 718 549 746 1348 1038 906 935 904 361 103 31 4
0 0 0 0 0 0 0 0 0 0 0 0 0 0 0 0 0 57 350 626 785 753 691 1256 1643 1676 1621 1831 1954 1883 1606 1548 1470 1529 1505 1271 1320 1054 725 1326 1274 1097 806 827 492 87 16 3 0
0 0 0 0 0 0 0 0 0 0 0 0 0 0 0 0 0 0 379 717 650 619 776 1283 1791 1722 1502 1397 1661 1821 1768 1608 1449 1395 1199 1014 1196 1182 1257 1101 1085 916 701 550 200 93 19 0 0
0 0 0 0 0 0 0 0 0 0 0 0 0 0 0 0 0 0 1 365 543 691 1009 1279 1601 1690 1540 1374 1235 1269 1665 1717 1649 1502 1431 1307 1198 1216 1140 858 1054 792 569 342 69 62 15 0 0
0 0 0 0 0 0 0 0 0 0 0 0 0 0 0 0 0 0 0 0 273 540 940 1092 1281 1361 1389 1250 1200 1083 1094 1353 1599 1570 1431 1330 867 887 1026 809 914 698 615 394 176 67 5 0 0
0 0 0 0 0 0 0 0 0 0 0 0 0 0 0 0 0 0 0 0 0 105 489 660 725 878 763 849 931 1017 1013 1012 1231 1290 1049 994 762 594 781 617 499 593 555 390 214 2 0 10 0
0 0 0 0 0 0 0 0 0 0 0 0 0 0 0 0 0 0 0 0 0 0 63 107 244 411 418 498 631 586 396 820 1004 872 818 753 356 366 288 253 341 447 530 413 86 0 0 0 0
0 0 0 0 0 0 0 0 0 0 0 0 0 0 0 0 0 0 0 0 0 0 14 24 80 148 256 358 182 41 62 20 26 103 159 131 171 125 112 153 267 293 337 356 169 7 0 0 0
0 0 0 0 0 0 0 0 0 0 0 0 0 0 0 0 0 0 0 0 0 0 0 18 2 32 168 85 6 4 7 1 11 13 11 29 61 12 9 0 40 5 20 76 166 33 0 0 0
0 0 0 0 0 0 0 0 0 0 0 0 0 0 0 0 0 0 0 0 0 0 0 2 0 3 10 10 2 1 11 4 5 21 20 16 8 0 0 0 0 0 26 103 75 5 0 0 0
0 0 0 0 0 0 0 0 0 0 0 0 0 0 0 0 0 0 0 0 0 0 0 11 0 18 4 14 2 0 0 1 7 30 21 5 0 0 0 1 0 2 11 7 19 0 0 0 0
0 0 0 0 0 0 0 0 0 0 0 0 0 0 0 0 0 0 0 0 0 0 0 0 60 21 1 17 2 0 0 0 0 36 35 5 0 0 0 1 9 0 8 0 0 0 0 0 0
0 0 0 0 0 0 0 0 0 0 0 0 0 0 0 0 0 0 0 0 0 0 0 0 31 71 18 8 12 16 8 40 2 2 4 61 16 0 6 14 7 1 4 2 0 0 0 0 0
0 0 0 0 0 0 0 0 0 0 0 0 0 0 0 0 0 0 0 0 0 0 0 0 42 95 25 22 7 8 17 14 8 17 10 16 51 21 19 12 18 0 1 0 2 2 0 0 0
0 0 0 0 0 0 0 0 0 0 0 0 0 0 0 0 0 0 0 0 0 0 0 0 23 60 53 14 13 23 30 13 15 3 0 26 61 60 43 42 1 23 13 6 1 11 4 0 0
0 0 0 0 0 0 0 0 0 0 0 0 0 0 0 0 0 0 0 0 0 0 0 0 70 81 35 1 0 3 5 3 0 0 3 0 22 81 33 0 1 4 0 8 16 4 0 3 8
0 0 0 0 0 0 0 0 0 0 0 0 0 0 0 0 0 0 0 0 0 0 0 0 122 145 59 58 45 50 12 0 0 0 0 0 0 2 19 23 3 30 0 0 0 29 20 0 0
0 0 0 0 0 0 0 0 0 0 0 0 0 0 0 0 0 0 0 0 0 0 0 6 212 221 122 82 58 51 23 2 0 0 0 7 7 1 10 66 87 83 60 38 21 27 8 4 3
0 0 0 0 0 0 0 0 0 0 0 0 0 0 0 0 0 0 0 0 1 9 109 146 304 287 167 110 53 26 8 10 19 12 0 0 4 39 22 40 81 58 50 38 30 27 29 1 0
0 0 0 0 0 0 5 0 0 0 0 0 0 0 0 0 0 0 55 108 136 140 246 266 223 229 133 178 162 42 40 16 10 12 1 0 8 16 45 27 38 64 14 23 11 3 13 4 1
0 0 0 0 11 14 0 1 0 0 0 0 0 0 1 103 52 96 272 248 147 81 105 211 298 180 231 226 170 101 41 11 11 0 0 0 1 0 5 49 44 14 5 1 8 0 4 3 36
0 0 0 1 6 0 0 0 0 5 9 2 14 3 2 26 12 3 3 14 18 6 0 0 1 1 0 51 2 0 1 15 29 1 1 0 0 0 0 7 25 46 50 10 0 0 0 15 41
0 1 0 0 0 0 0 0 0 2 0 18 19 10 8 5 4 3 3 3 2 1 0 1 0 0 0 0 0 1 2 1 5 48 31 29 8 1 5 8 1 3 3 14 1 0 0 4 38
0 2 1 0 0 0 0 0 0 0 0 8 11 7 6 6 3 3 2 5 2 3 0 0 0 0 0 1 1 1 1 3 3 2 3 8 5 16 8 12 11 10 49 32 6 1 8 14 46
0 0 8 4 0 2 0 0 2 0 1 3 10 10 5 8 6 5 2 1 2 1 1 0 0 0 0 0 0 0 2 2 4 3 3 4 0 1 2 4 6 2 3 36 30 3 0 7 27
0 0 0 0 0 0 0 0 3 2 5 7 8 11 5 6 5 7 5 3 1 1 0 0 0 0 0 0 0 0 0 1 0 0 0 0 1 0 0 1 3 2 4 4 3 10 1 4 9
0 0 0 0 0 0 0 0 5 3 7 11 11 11 11 10 7 6 5 3 1 1 0 0 0 0 0 0 0 0 0 0 0 0 0 0 0 0 0 0 1 1 3 2 5 43 37 17 1
0 0 0 0 0 0 0 0 0 7 9 7 7 11 7 13 2 2 1 2 1 1 0 0 0 0 0 0 0 0 0 0 0 0 0 0 0 0 0 0 0 0 0 0 1 1 5 36 41

GFSSGP_con_sbcape_105.txt.gz
CAPE
0 0 0 0 0 0 0 0 0 0 0 0 0 0 0 0 0 0 141 126 660 869 1533 1452 2225 2475 2309 2045 1960 1970 1998 1894 1855 1832 1561 1219 761 539 216 130 142 137 542 819 827 446 182 65 7
0 0 0 0 0 0 0 0 0 0 0 0 0 0 0 0 0 93 482 524 734 1194 1542 1160 1969 2444 2270 2107 1904 1899 1942 1881 1620 1040 883 1176 682 552 426 304 202 623 1129 873 960 568 112 5 7
0 0 0 0 0 0 0 0 0 0 0 0 0 0 0 0 0 7 12 513 1013 1363 1306 1253 2024 2277 2178 2122 2046 1908 1923 1862 1786 1549 895 1396 970 710 781 801 1017 1108 952 822 802 423 202 46 4
0 0 0 0 0 0 0 0 0 0 0 0 0 0 0 0 0 0 0 757 1130 1279 1206 1357 1779 1962 2179 2050 2113 2045 1713 1587 1757 1647 1516 1139 1169 758 1203 1344 1082 662 881 815 442 403 219 220 92
0 0 0 0 0 0 0 0 0 0 0 0 0 0 0 0 0 0 0 281 966 1056 1066 1299 1766 1575 1894 1960 1857 1883 1692 1554 1692 1591 1336 1092 1113 1106 1234 1292 1107 979 836 900 297 85 5 0 0
0 0 0 0 0 0 0 0 0 0 0 0 0 0 0 0 0 0 0 0 174 851 1095 1310 1471 1681 1503 1513 1546 1670 1552 1484 1565 1660 1504 1243 1205 1157 1032 1155 1222 1111 900 590 225 47 0 0 0
0 0 0 0 0 0 0 0 0 0 0 0 0 0 0 0 0 0 0 1 11 340 866 1094 1221 1181 1378 1297 1214 1206 1399 1347 1356 1374 1399 1419 1201 1126 928 913 957 926 725 690 512 90 9 2 0
0 0 0 0 0 0 0 0 0 0 0 0 0 0 0 0 0 0 0 0 0 0 144 833 1121 1157 1100 998 929 897 922 996 1216 1310 1315 1121 883 738 801 719 635 592 490 542 448 248 26 55 13
0 0 0 0 0 0 0 0 0 0 0 0 0 0 0 0 0 0 0 0 0 0 0 78 391 844 838 877 745 675 741 772 753 1003 1007 908 1017 843 573 312 370 443 449 595 486 217 53 55 3
0 0 0 0 0 0 0 0 0 0 0 0 0 0 0 0 0 0 0 0 0 0 0 0 25 352 618 697 778 756 454 727 857 882 804 913 894 763 568 307 261 437 391 445 374 117 30 4 0
0 0 0 0 0 0 0 0 0 0 0 0 0 0 0 0 0 0 0 0 0 0 0 0 33 4 271 648 459 114 52 127 157 225 371 506 553 594 574 479 479 366 295 409 146 33 3 3 0
0 0 0 0 0 0 0 0 0 0 0 0 0 0 0 0 0 0 0 0 0 0 0 0 9 1 10 292 196 102 15 76 147 182 176 295 456 430 452 407 544 305 265 255 231 66 3 0 0
0 0 0 0 0 0 0 0 0 0 0 0 0 0 0 0 0 0 0 0 0 0 0 0 0 23 2 53 100 11 6 18 37 140 147 180 271 166 119 88 143 255 177 243 239 125 10 0 0
0 0 0 0 0 0 0 0 0 0 0 0 0 0 0 0 0 0 0 0 0 0 0 0 0 25 26 38 15 139 0 0 1 53 175 166 162 57 158 139 51 59 100 128 197 164 91 0 0
0 0 0 0 0 0 0 0 0 0 0 0 0 0 0 0 0 0 0 0 0 0 0 0 0 0 108 21 58 172 16 0 12 17 82 122 174 155 112 126 131 119 102 61 25 96 16 8 0
0 0 0 0 0 0 0 0 0 0 0 0 0 0 0 0 0 0 0 0 0 0 0 0 0 0 110 131 80 129 11 49 29 46 44 45 141 160 165 160 160 131 110 151 149 1 7 0 3
0 0 0 0 0 0 0 0 0 0 0 0 0 0 0 0 0 0 0 0 0 0 0 0 0 0 81 160 103 130 50 46 42 24 33 72 70 114 142 144 142 133 127 127 143 26 0 1 0
0 0 0 0 0 0 0 0 0 0 0 0 0 0 0 0 0 0 0 0 0 0 0 0 0 0 105 122 93 47 69 31 36 33 45 60 71 106 100 74 90 129 83 73 113 68 0 0 8
0 0 0 0 0 0 0 0 0 0 0 0 0 0 0 0 0 0 0 0 0 0 0 0 0 11 205 213 218 168 86 61 36 51 6 26 39 38 97 108 52 64 41 7 22 97 36 1 0
0 0 0 0 0 0 0 0 0 0 0 0 0 0 0 0 0 0 0 0 0 0 0 0 0 213 340 362 198 234 239 195 104 54 48 27 37 34 63 127 66 32 58 17 6 22 30 18 0
0 0 0 0 0 0 0 0 0 0 0 0 0 0 0 0 0 0 0 0 0 0 0 0 3 258 266 326 229 189 182 184 191 169 118 59 38 90 36 55 171 158 66 135 23 15 3 7 1
0 0 0 0 0 1 0 1 0 0 0 0 0 0 3 0 3 10 119 146 163 178 177 297 312 507 399 242 411 268 234 137 176 211 141 109 64 46 111 103 97 150 121 110 44 24 10 16 3
0 0 0 0 6 8 0 6 0 0 0 0 3 1 11 8 7 1 41 60 185 221 280 591 674 586 487 418 379 344 195 157 162 128 70 29 30 63 80 136 122 161 163 138 119 20 8 15 8
0 0 0 2 1 1 0 0 0 1 3 2 9 10 8 15 1 1 4 2 3 3 51 68 99 38 48 38 28 17 19 10 117 185 104 102 67 29 12 34 109 144 112 94 59 52 40 14 2
0 0 0 0 0 0 0 0 0 2 2 1 13 8 7 7 7 4 5 4 4 3 2 3 2 3 4 3 3 3 3 3 6 4 58 104 87 51 28 10 21 35 73 82 62 51 34 25 2
0 1 4 1 0 0 1 0 0 1 1 3 5 4 4 5 9 8 6 4 3 4 2 0 3 1 3 3 4 4 2 4 4 4 5 4 5 4 2 1 8 16 12 7 11 10 15 11 3
0 0 7 9 0 1 0 0 2 0 1 2 7 6 4 9 9 6 6 4 4 2 1 0 0 0 0 0 0 0 0 0 0 0 1 5 3 4 8 2 0 1 2 4 11 9 5 3 2
0 0 0 0 0 0 0 0 1 1 2 7 3 5 5 12 13 9 6 5 4 2 0 0 0 0 0 0 0 0 0 0 0 0 0 0 0 0 0 0 0 1 0 1 2 6 11 11 10
0 0 0 0 0 0 0 0 2 8 7 6 6 7 8 12 9 6 6 4 2 1 0 0 0 0 0 0 0 0 0 0 0 0 0 0 0 0 0 0 0 0 0 0 0 0 0 3 15
0 0 0 0 0 0 0 0 0 4 4 5 5 4 5 2 1 1 2 1 1 0 0 0 0 0 0 0 0 0 0 0 0 0 0 0 0 0 0 0 0 0 0 0 0 0 0 0 2

GFSSGP_con_sbcape_108.txt.gz
CAPE
0 0 0 0 0 0 0 0 0 0 0 0 0 0 0 0 0 0 463 655 1142 1125 1417 1219 2322 2458 2312 2373 2303 2180 2274 2145 2110 2015 1332 1406 1044 653 337 232 110 553 1215 666 394 393 279 216 6
0 0 0 0 0 0 0 0 0 0 0 0 0 0 0 0 22 0 704 89 1107 1240 1524 1327 2307 2227 2312 2229 2139 2084 2116 2140 2020 2008 2011 1534 1120 759 335 278 229 485 1052 1103 1161 896 536 94 5
0 0 0 0 0 0 0 0 0 0 0 0 0 0 0 0 0 0 0 0 1136 1433 1557 1329 1914 1837 2079 2135 2096 2007 2066 2016 1689 1568 1430 1738 1030 838 537 409 696 948 779 1000 1015 580 299 65 4
0 0 0 0 0 0 0 0 0 0 0 0 0 0 0 0 0 0 0 32 1248 1451 1427 1378 1798 1828 1646 1699 1712 1890 1945 1970 1850 1682 1404 1576 1080 976 1009 1278 1111 1203 793 822 385 115 79 150 7
0 0 0 0 0 0 0 0 0 0 0 0 0 0 0 0 0 0 0 17 361 1311 1341 1213 1470 1437 1574 1757 1627 1510 1640 1450 1510 1480 1330 1151 1167 1231 1177 1008 1051 807 859 667 340 136 71 72 113
0 0 0 0 0 0 0 0 0 0 0 0 0 0 0 0 0 0 0 9 121 599 1198 1088 1127 1277 1165 1376 1391 1455 1630 1475 1502 1447 1436 1346 1174 1261 1016 1163 1412 1040 952 784 482 233 52 3 0
0 0 0 0 0 0 0 0 0 0 0 0 0 0 0 0 0 0 0 0 38 269 1177 923 744 886 1174 1338 1284 1318 1598 1507 1537 1310 1318 1209 1141 1177 1182 1252 1370 1192 1185 699 724 276 14 33 27
0 0 0 0 0 0 0 0 0 0 0 0 0 0 0 0 0 0 0 0 0 0 45 840 903 567 619 565 963 922 1034 1195 1432 1251 1107 1050 1028 966 881 876 966 973 906 905 618 439 72 84 110
0 0 0 0 0 0 0 0 0 0 0 0 0 0 0 0 0 0 0 0 0 0 0 0 390 934 662 534 426 582 600 624 669 866 1049 1085 829 646 699 509 549 562 603 572 600 521 208 112 19
0 0 0 0 0 0 0 0 0 0 0 0 0 0 0 0 0 0 0 0 0 0 0 0 0 199 884 702 631 476 344 303 94 76 232 644 513 463 390 367 265 461 451 395 571 535 202 22 0
0 0 0 0 0 0 0 0 0 0 0 0 0 0 0 0 0 0 0 0 0 0 0 0 0 28 85 989 920 872 802 670 495 350 625 381 332 563 614 580 656 879 262 473 372 371 35 5 0
0 0 0 0 0 0 0 0 0 0 0 0 0 0 0 0 0 0 0 0 0 0 0 0 0 0 7 135 771 1001 773 437 424 385 316 248 278 573 407 403 661 794 660 587 425 268 10 1 0
0 0 0 0 0 0 0 0 0 0 0 0 0 0 0 0 0 0 0 0 0 0 0 0 0 0 0 77 230 733 704 232 104 229 407 322 373 597 525 680 709 904 846 660 733 294 69 1 0
0 0 0 0 0 0 0 0 0 0 0 0 0 0 0 0 0 0 0 0 0 0 0 0 0 0 0 5 143 275 566 328 6 0 66 259 505 707 773 744 698 658 787 475 330 363 193 3 0
0 0 0 0 0 0 0 0 0 0 0 0 0 0 0 0 0 0 0 0 0 0 0 0 0 0 0 0 132 172 444 489 260 7 4 77 226 384 422 584 555 593 706 222 210 262 138 124 0
0 0 0 0 0 0 0 0 0 0 0 0 0 0 0 0 0 0 0 0 0 0 0 0 0 0 0 0 132 226 598 214 36 52 11 50 153 255 320 320 364 362 349 359 351 292 184 169 84
0 0 0 0 0 0 0 0 0 0 0 0 0 0 0 0 0 0 0 0 0 0 0 0 0 0 0 0 118 246 394 343 144 195 40 28 56 94 228 262 218 206 273 282 347 343 292 103 138
0 0 0 0 0 0 0 0 0 0 0 0 0 0 0 0 0 0 0 0 0 0 0 0 0 0 0 0 143 292 221 331 497 339 230 72 67 120 212 230 218 166 145 208 313 261 238 197 210
0 0 0 0 0 0 0 0 0 0 0 0 0 0 0 0 0 0 0 0 0 0 0 0 0 0 0 0 96 171 124 377 330 313 392 197 49 126 219 227 206 112 82 134 105 92 156 48 112
0 0 0 0 0 0 0 0 0 0 0 0 0 0 1 5 0 0 1 0 0 0 0 0 0 0 0 44 222 449 456 337 532 666 514 412 261 253 234 213 237 234 151 67 29 55 71 47 152
0 0 0 0 0 0 0 0 0 0 0 0 0 7 15 13 3 18 7 58 162 102 28 2 0 0 0 112 563 578 658 719 674 590 583 486 352 296 287 218 297 255 197 95 144 203 155 110 99
0 0 0 0 5 3 0 1 0 0 0 0 0 2 2 3 5 19 12 12 67 194 441 559 311 311 99 402 670 526 849 792 606 656 631 600 502 426 333 323 193 227 223 195 309 313 155 138 59
0 0 0 2 9 9 0 7 0 0 0 1 4 2 11 3 4 7 30 10 14 3 309 821 742 689 709 448 360 597 517 519 424 320 252 485 427 359 339 338 276 287 289 215 283 305 251 167 18
0 0 4 4 6 3 0 1 0 0 2 7 7 5 10 5 4 1 7 7 7 7 18 246 401 312 273 61 18 49 71 218 186 85 237 281 296 379 200 153 171 214 296 262 363 237 151 175 34
0 4 5 6 8 0 0 6 0 0 4 10 16 5 8 6 5 4 7 7 9 6 3 5 3 4 7 10 9 9 6 4 4 4 7 3 3 4 2 1 10 41 54 126 148 112 73 73 114
1 3 4 3 4 2 2 2 0 0 0 5 7 6 5 9 5 4 6 6 6 6 5 3 1 1 1 3 5 2 2 0 0 0 2 2 3 3 0 1 1 4 1 1 1 5 64 109 66
3 4 5 12 14 10 0 0 0 0 2 0 6 6 6 9 6 4 3 6 4 3 4 2 0 0 0 0 0 1 1 0 0 0 0 0 0 0 0 0 0 0 1 0 2 3 5 14 26
1 0 5 23 5 0 0 0 0 0 7 8 10 6 5 10 8 6 3 4 4 2 0 0 0 0 0 0 0 0 0 0 0 0 0 0 0 0 0 0 0 0 0 0 0 0 1 2 1
2 6 5 1 1 2 0 0 0 2 3 7 8 5 4 9 6 3 3 2 1 0 0 0 0 0 0 0 0 0 0 0 0 0 0 0 0 0 0 0 0 0 0 0 0 0 0 0 0
0 0 0 0 0 5 2 0 0 1 2 2 4 4 4 2 2 2 1 1 1 0 0 0 0 0 0 0 0 0 0 0 0 0 0 0 0 0 0 0 0 0 0 0 0 0 0 0 0

GFSSGP_con_sbcape_111.txt.gz
CAPE
0 0 0 0 0 0 0 0 0 0 0 0 0 0 0 0 0 0 131 36 434 1017 1380 1083 2253 2273 2284 2182 2096 2379 2337 2085 2163 1996 1446 1585 1138 840 383 246 92 359 470 589 276 815 751 304 111
0 0 0 0 0 0 0 0 0 0 0 0 0 0 0 0 0 0 78 0 520 1211 1545 1306 2135 2070 1971 2212 2095 2316 2278 2120 2000 1857 1610 1442 1355 888 457 321 166 545 943 1107 967 974 768 426 85
0 0 0 0 0 0 0 0 0 0 0 0 0 0 0 0 0 0 0 47 589 1358 1130 1512 1942 1896 1788 1823 1726 1485 1777 2123 1915 1959 1846 1423 1316 1082 607 330 414 843 1009 846 886 899 491 149 51
0 0 0 0 0 0 0 0 0 0 0 0 0 0 0 0 0 0 0 193 674 1087 1132 1493 1874 1838 1787 1682 1858 1840 1682 1723 1494 1403 1436 1653 1232 1105 838 1024 994 1084 831 882 945 415 140 214 93
0 0 0 0 0 0 0 0 0 0 0 0 0 0 0 0 0 0 0 0 436 759 1146 1316 1712 1557 1736 1666 1638 1549 1419 1454 1498 1462 1268 1247 1118 1163 1122 1123 1434 1327 760 794 532 199 101 28 30
0 0 0 0 0 0 0 0 0 0 0 0 0 0 0 0 0 0 0 0 152 442 1040 1102 1197 1250 1415 1555 1546 1473 1541 1441 1410 1381 1165 1042 1265 1203 1065 1152 1302 1194 731 709 519 281 107 20 24
0 0 0 0 0 0 0 0 0 0 0 0 0 0 0 0 0 0 0 0 0 3 522 1094 1044 884 1028 1251 1283 1314 1454 1606 1699 1569 1462 1228 1064 1136 1128 1013 1197 1205 1232 1095 835 539 302 27 9
0 0 0 0 0 0 0 0 0 0 0 0 0 0 0 0 0 0 0 0 0 0 0 0 831 979 652 636 976 1028 1308 1303 1492 1378 1213 958 837 813 855 785 780 1204 1142 1029 821 442 227 124 148
0 0 0 0 0 0 0 0 0 0 0 0 0 0 0 0 0 0 0 0 0 0 0 0 0 500 778 675 537 595 587 636 666 796 790 887 677 374 501 458 420 848 875 777 582 423 295 216 63
0 0 0 0 0 0 0 0 0 0 0 0 0 0 0 0 0 0 0 0 0 0 0 0 0 0 166 729 853 648 238 114 45 30 73 362 143 93 65 162 295 600 770 570 606 477 300 52 0
0 0 0 0 0 0 0 0 0 0 0 0 0 0 0 0 0 0 0 0 0 0 0 0 0 0 2 217 914 875 748 890 510 224 86 55 68 312 237 358 527 681 335 764 351 292 119 3 0
0 0 0 0 0 0 0 0 0 0 0 0 0 0 0 0 0 0 0 0 0 0 0 0 0 0 0 46 238 886 813 905 525 330 241 206 250 408 134 259 608 765 757 789 925 693 235 56 0
0 0 0 0 0 0 0 0 0 0 0 0 0 0 0 0 0 0 0 0 0 0 0 0 0 0 0 0 156 520 837 894 722 321 195 178 294 474 326 372 599 587 903 867 880 801 320 93 4
0 0 0 0 0 0 0 0 0 0 0 0 0 0 0 0 0 0 0 0 0 0 0 0 0 0 0 0 0 321 556 635 576 286 148 161 179 293 541 837 924 911 1141 1030 772 573 666 165 2
0 0 0 0 0 0 0 0 0 0 0 0 0 0 0 0 0 0 0 0 0 0 0 0 0 0 0 0 0 1 408 598 534 338 78 41 10 85 251 483 821 811 1028 865 981 676 548 209 23
0 0 0 0 0 0 0 0 0 0 0 0 0 0 0 0 0 0 0 0 0 0 0 0 0 0 0 0 0 0 291 556 855 564 356 134 71 55 133 214 436 411 433 505 512 299 136 168 57
0 0 0 0 0 0 0 0 0 0 0 0 0 0 0 0 0 0 0 0 0 0 0 0 0 0 0 0 0 0 309 523 723 578 132 85 134 106 81 22 80 170 265 288 340 489 481 312 314
0 0 0 0 0 0 0 0 0 0 0 0 0 0 0 0 0 0 0 0 0 0 0 0 0 0 0 0 0 0 284 686 635 421 230 195 150 105 88 113 51 72 196 315 331 340 351 275 196
0 0 0 0 0 0 0 0 0 0 0 0 0 0 0 0 0 0 0 0 0 0 0 0 0 0 0 0 0 38 300 392 660 799 503 391 363 268 245 176 119 213 200 181 224 215 208 197 197
0 0 0 0 0 0 0 0 0 0 0 0 0 0 0 0 0 0 1 1 3 3 15 0 0 0 0 0 0 179 323 371 399 515 582 571 465 342 324 166 198 303 334 199 190 176 164 159 131
0 0 0 0 0 0 0 0 0 0 0 0 0 0 0 1 1 4 2 0 1 9 23 21 45 0 0 0 105 502 724 646 572 630 883 769 579 603 511 392 354 236 320 303 254 154 117 152 186
0 0 0 0 1 0 0 0 0 0 0 0 0 0 0 0 7 6 6 5 19 10 24 46 244 265 146 298 207 707 825 1003 1046 839 704 843 574 454 377 558 485 387 287 259 278 331 288 286 248
0 0 0 3 1 2 0 0 0 0 0 0 0 2 1 2 6 4 9 3 4 7 11 10 371 461 484 492 630 821 716 651 480 426 498 579 474 431 323 363 387 410 343 297 319 313 359 358 289
0 0 0 3 3 3 0 0 0 0 0 0 0 7 6 8 6 4 2 7 2 3 7 6 52 180 494 531 468 291 83 0 4 3 65 38 3 1 0 0 5 205 201 211 246 287 257 287 265
0 3 9 4 3 1 0 0 0 0 0 1 4 9 3 5 6 4 6 6 4 3 6 9 4 6 10 34 5 3 10 5 13 7 5 4 3 3 1 1 2 2 1 0 2 27 150 246 120
1 0 3 1 8 2 0 0 0 0 0 0 2 0 4 5 5 6 4 3 4 6 2 2 4 6 8 6 3 3 3 6 5 5 2 1 1 0 0 0 0 0 0 0 0 5 3 2 14
3 3 2 9 4 3 0 0 0 0 0 1 2 5 5 2 6 5 3 3 1 5 3 1 0 0 0 0 1 0 0 0 0 0 0 0 0 0 0 0 0 0 0 0 0 2 1 2 4
2 0 1 9 1 0 0 0 0 0 0 0 0 2 2 6 5 4 3 1 0 1 2 0 0 0 0 0 0 0 0 0 0 0 0 0 0 0 0 0 0 0 0 0 0 0 0 0 1
2 0 0 0 0 2 0 0 0 0 0 0 0 2 3 5 2 1 1 1 0 0 0 0 0 0 0 0 0 0 0 0 0 0 0 0 0 0 0 0 0 0 0 0 0 0 0 0 0
0 0 0 0 0 5 2 0 0 0 0 0 0 1 1 3 0 0 0 0 0 0 0 0 0 0 0 0 0 0 0 0 0 0 0 0 0 0 0 0 0 0 0 0 0 0 0 0 0

GFSSGP_con_sbcape_114.txt.gz
CAPE
0 0 0 0 0 0 0 0 0 0 0 0 0 0 0 0 0 7 0 0 424 913 1432 1467 2405 2241 2011 2033 2326 1878 1995 2011 1938 1654 1663 1492 1324 917 281 108 12 58 199 229 33 666 722 401 312
0 0 0 0 0 0 0 0 0 0 0 0 0 0 0 0 0 0 0 0 400 968 1619 968 2135 2084 2073 2147 2148 2177 1999 1984 1712 1504 1378 1468 1295 1042 588 304 66 439 754 982 899 909 850 271 229
0 0 0 0 0 0 0 0 0 0 0 0 0 0 0 0 0 0 0 36 365 577 1039 1477 1853 1851 1956 1709 1607 1661 2025 1857 1790 1482 1558 1488 1075 1203 718 482 466 626 814 877 929 1156 649 280 297
0 0 0 0 0 0 0 0 0 0 0 0 0 0 0 0 0 0 0 0 344 491 930 1236 1327 1769 1821 1757 1702 1569 1570 1746 1460 1388 1597 1255 1218 1174 973 995 838 829 882 853 1013 708 305 404 346
0 0 0 0 0 0 0 0 0 0 0 0 0 0 0 0 0 0 0 0 113 341 706 1144 1345 1495 1387 1531 1526 1618 1550 1490 1423 1352 1402 1283 1281 872 1097 1304 1243 1127 1186 770 719 484 192 107 188
0 0 0 0 0 0 0 0 0 0 0 0 0 0 0 0 0 0 0 0 0 0 413 994 997 1374 1347 1379 1436 1455 1471 1365 1527 1405 1366 1400 1283 1204 1012 929 1115 1429 1227 636 793 491 159 76 60
0 0 0 0 0 0 0 0 0 0 0 0 0 0 0 0 0 0 0 0 0 0 0 0 729 809 878 1139 1280 1356 1376 1442 1389 1604 1441 1261 1060 1093 1030 1240 1096 1072 1314 734 964 599 403 79 113
0 0 0 0 0 0 0 0 0 0 0 0 0 0 0 0 0 0 0 0 0 0 0 0 0 374 663 650 866 1011 1072 1190 1230 1322 1127 920 695 708 976 929 781 1038 1152 1156 902 633 474 451 223
0 0 0 0 0 0 0 0 0 0 0 0 0 0 0 0 0 0 0 0 0 0 0 0 0 0 0 467 693 649 663 837 851 891 835 716 562 412 360 438 356 721 1067 1148 1005 718 410 221 64
0 0 0 0 0 0 0 0 0 0 0 0 0 0 0 0 0 0 0 0 0 0 0 0 0 0 0 57 344 500 467 73 79 186 411 391 404 241 147 336 270 591 777 819 867 559 278 85 0
0 0 0 0 0 0 0 0 0 0 0 0 0 0 0 0 0 0 0 0 0 0 0 0 0 0 0 0 86 469 477 526 299 36 0 7 33 16 11 52 148 281 426 492 406 182 18 0 0
0 0 0 0 0 0 0 0 0 0 0 0 0 0 0 0 0 0 0 0 0 0 0 0 0 0 0 0 0 69 520 503 451 338 154 61 17 83 92 81 318 287 239 382 254 114 21 0 0
0 0 0 0 0 0 0 0 0 0 0 0 0 0 0 0 0 0 0 0 0 0 0 0 0 0 0 0 0 32 259 503 501 408 168 55 134 53 106 59 123 446 378 305 305 215 164 36 0
0 0 0 0 0 0 0 0 0 0 0 0 0 0 0 0 0 0 0 0 0 0 0 0 0 0 0 0 0 0 180 353 399 326 241 173 133 112 173 204 259 293 324 408 338 240 223 46 11
0 0 0 0 0 0 0 0 0 0 0 0 0 0 0 0 0 0 0 0 0 0 0 0 0 0 0 0 0 0 0 327 377 259 89 39 36 101 142 233 242 275 293 374 262 251 208 142 2
0 0 0 0 0 0 0 0 0 0 0 0 0 0 0 0 0 0 0 0 0 0 0 0 0 0 0 0 0 0 0 22 315 348 205 30 66 32 64 231 166 239 211 212 250 243 177 170 46
0 0 0 0 0 0 0 0 0 0 0 0 0 0 0 0 0 0 0 0 0 0 0 0 0 0 0 0 0 0 0 26 232 366 257 121 98 76 49 47 36 5 2 50 87 141 174 69 50
0 0 0 0 0 0 0 0 0 0 0 0 0 0 0 0 0 0 0 0 0 0 0 0 0 0 0 0 0 0 0 13 250 439 220 79 94 127 49 20 36 8 1 8 46 61 73 103 92
0 0 0 0 0 0 0 0 0 0 0 0 0 0 0 0 0 0 0 0 0 0 0 0 0 0 0 0 0 0 0 120 322 380 446 177 246 191 116 150 82 5 10 5 83 77 127 146 165
0 0 0 0 0 0 0 0 0 0 0 0 0 0 0 0 0 0 0 0 0 0 0 0 0 0 0 0 0 0 0 201 206 385 454 358 382 363 269 242 142 114 114 122 112 74 129 127 148
0 0 0 0 0 0 0 0 0 0 0 0 0 0 0 0 0 0 0 0 0 0 0 1 0 0 0 0 0 0 20 328 468 491 598 472 454 351 314 189 200 210 147 201 173 161 149 89 88
0 0 0 0 0 0 0 0 0 0 0 0 0 0 0 0 0 0 0 0 0 0 0 1 1 26 43 19 0 0 72 287 426 532 762 743 712 529 412 226 457 258 170 166 148 200 147 79 118
0 0 0 0 0 0 0 0 0 0 0 0 0 0 0 0 0 0 0 1 0 0 1 3 4 6 0 102 97 169 151 144 168 32 204 404 46 1 1 1 135 185 154 96 106 181 125 136 90
0 0 0 0 0 0 0 0 0 0 0 0 0 0 0 0 0 1 1 2 0 0 0 0 0 5 2 2 1 0 97 67 38 0 4 7 11 10 4 3 2 2 1 1 1 10 81 114 98
0 0 0 0 0 0 0 0 0 0 0 0 0 0 0 0 2 1 0 2 0 1 0 0 0 0 4 4 3 2 1 3 6 5 2 5 3 6 6 0 0 0 0 0 0 1 2 1 3
0 0 0 0 0 0 0 0 0 0 0 0 0 0 0 0 0 1 0 2 2 2 0 0 0 0 0 1 4 3 0 0 4 3 3 2 8 2 0 0 0 0 0 0 0 1 0 0 3
0 0 0 0 0 0 0 0 0 0 0 0 0 0 0 0 1 0 0 0 0 0 0 0 0 0 0 0 0 0 0 0 0 0 0 0 0 0 0 0 0 0 0 0 0 0 0 0 4
0 0 0 0 0 0 0 0 0 0 0 0 0 0 0 1 1 0 0 0 0 0 0 0 0 0 0 0 0 0 0 0 0 0 0 0 0 0 0 0 0 0 0 0 0 0 0 0 0
0 0 0 0 0 0 0 0 0 0 0 0 0 0 0 3 0 0 0 0 0 0 0 0 0 0 0 0 0 0 0 0 0 0 0 0 0 0 0 0 0 0 0 0 0 0 0 0 0
0 0 0 0 0 0 0 0 0 0 0 0 0 0 0 1 0 0 0 0 0 0 0 0 0 0 0 0 0 0 0 0 0 0 0 0 0 0 0 0 0 0 0 0 0 0 0 0 0

GFSSGP_con_sbcape_117.txt.gz
CAPE
0 0 0 0 0 0 0 0 0 0 0 0 0 0 0 0 0 0 0 0 189 672 1156 1599 2249 2129 2016 2117 2047 1717 1951 1844 1637 1527 1500 1253 1191 853 256 50 21 288 105 19 44 507 674 423 491
0 0 0 0 0 0 0 0 0 0 0 0 0 0 0 0 0 0 0 0 175 603 1220 1228 2124 1985 2185 2232 2236 1858 1835 1713 1773 1663 1544 1380 1134 1132 570 275 56 211 325 679 461 884 927 318 312
0 0 0 0 0 0 0 0 0 0 0 0 0 0 0 0 0 0 0 0 163 365 876 1113 1537 1496 1517 1549 1758 2031 1943 1843 1784 1673 1453 1455 1271 1133 880 621 365 476 805 1066 1040 908 625 358 294
0 0 0 0 0 0 0 0 0 0 0 0 0 0 0 0 0 0 0 0 42 286 592 1083 1181 1295 1337 1405 1381 1370 1491 1506 1508 1590 1467 1484 1079 1044 1090 1021 883 596 697 941 1277 729 406 540 383
0 0 0 0 0 0 0 0 0 0 0 0 0 0 0 0 0 0 0 0 0 0 400 1014 1173 1249 1323 1222 1230 1313 1376 1392 1348 1309 1390 1350 1118 1141 1070 1248 1135 1014 1057 1044 894 624 365 182 210
0 0 0 0 0 0 0 0 0 0 0 0 0 0 0 0 0 0 0 0 0 0 0 250 833 1090 1159 1241 1257 1243 1355 1395 1425 1409 1432 1443 1311 1413 1209 1294 1218 1413 1200 1153 710 811 418 138 90
0 0 0 0 0 0 0 0 0 0 0 0 0 0 0 0 0 0 0 0 0 0 0 0 0 630 697 903 1059 1228 1334 1203 1252 1469 1455 1258 1190 1226 1178 1357 1294 1254 1475 1176 820 948 647 188 145
0 0 0 0 0 0 0 0 0 0 0 0 0 0 0 0 0 0 0 0 0 0 0 0 0 0 0 491 726 833 1000 1010 1148 1138 1112 908 767 633 1004 1013 1015 1253 1163 1139 993 1018 631 452 363
0 0 0 0 0 0 0 0 0 0 0 0 0 0 0 0 0 0 0 0 0 0 0 0 0 0 0 0 429 454 695 753 854 841 858 742 524 429 405 472 495 712 1043 1088 1185 939 667 384 206
0 0 0 0 0 0 0 0 0 0 0 0 0 0 0 0 0 0 0 0 0 0 0 0 0 0 0 0 0 76 340 270 314 448 507 421 401 356 308 252 202 332 731 783 1210 1002 572 112 0
0 0 0 0 0 0 0 0 0 0 0 0 0 0 0 0 0 0 0 0 0 0 0 0 0 0 0 0 0 0 24 176 89 0 16 63 362 140 95 3 29 57 314 379 593 610 186 6 0
0 0 0 0 0 0 0 0 0 0 0 0 0 0 0 0 0 0 0 0 0 0 0 0 0 0 0 0 0 0 0 54 163 209 155 20 2 0 8 0 36 97 184 199 153 63 37 4 0
0 0 0 0 0 0 0 0 0 0 0 0 0 0 0 0 0 0 0 0 0 0 0 0 0 0 0 0 0 0 0 1 102 222 232 53 5 64 43 32 80 183 159 164 116 77 49 25 1
0 0 0 0 0 0 0 0 0 0 0 0 0 0 0 0 0 0 0 0 0 0 0 0 0 0 0 0 0 0 0 0 14 95 205 215 0 41 58 20 86 129 220 181 208 147 107 62 29
0 0 0 0 0 0 0 0 0 0 0 0 0 0 0 0 0 0 0 0 0 0 0 0 0 0 0 0 0 0 0 0 0 58 121 6 4 2 94 73 76 189 278 261 138 103 166 93 3
0 0 0 0 0 0 0 0 0 0 0 0 0 0 0 0 0 0 0 0 0 0 0 0 0 0 0 0 0 0 0 0 0 11 140 0 0 0 2 58 236 214 247 250 193 235 203 182 39
0 0 0 0 0 0 0 0 0 0 0 0 0 0 0 0 0 0 0 0 0 0 0 0 0 0 0 0 0 0 0 0 0 10 109 187 25 0 13 90 79 13 41 95 98 126 138 96 115
0 0 0 0 0 0 0 0 0 0 0 0 0 0 0 0 0 0 0 0 0 0 0 0 0 0 0 0 0 0 0 0 0 0 104 284 167 60 0 51 49 11 6 5 11 50 40 44 9
0 0 0 0 0 0 0 0 0 0 0 0 0 0 0 0 0 0 0 0 0 0 0 0 0 0 0 0 0 0 0 0 0 0 137 221 123 41 105 55 25 11 0 0 0 46 21 7 16
0 0 0 0 0 0 0 0 0 0 0 0 0 0 0 0 0 0 0 0 0 0 0 0 0 0 1 5 0 0 0 0 5 38 36 63 173 257 322 234 106 19 0 0 6 91 116 134 137
0 0 0 0 0 0 0 0 0 0 0 0 0 0 0 0 0 0 0 0 0 0 0 0 0 0 2 0 0 0 0 0 51 22 6 11 147 210 385 414 326 121 24 38 88 105 126 97 76
0 0 0 0 0 0 0 0 0 0 0 0 0 0 0 0 0 0 1 0 0 0 0 0 0 5 3 1 0 0 0 0 2 0 0 54 13 10 11 204 324 179 129 55 112 54 39 17 36
0 0 0 0 0 0 0 0 0 0 0 0 0 0 0 0 0 0 0 0 0 0 0 0 0 0 2 1 0 0 0 0 0 1 2 1 2 1 0 2 58 50 69 20 19 89 152 154 195
0 0 0 0 0 0 0 0 0 0 0 0 0 0 0 0 0 0 0 0 0 0 0 0 0 0 0 8 4 0 2 2 2 2 5 12 5 7 3 0 5 4 4 2 3 2 1 1 28
0 0 0 0 0 0 0 0 0 0 0 0 0 0 0 0 0 0 0 0 0 0 0 0 0 0 0 0 2 3 5 3 2 1 6 11 7 4 2 4 3 2 7 2 2 1 0 1 2
0 0 0 0 0 0 0 0 0 0 0 0 0 0 0 0 0 0 0 0 0 0 0 0 0 0 0 0 0 0 0 1 0 0 0 0 2 0 0 1 0 3 0 0 0 0 0 0 0
0 0 0 0 0 0 0 0 0 0 0 0 0 0 0 0 0 1 0 0 0 0 0 0 0 0 0 0 0 0 0 0 0 0 0 0 0 0 0 0 0 0 0 0 0 0 0 0 0
0 0 0 0 0 0 0 0 0 0 0 0 0 0 0 0 0 0 0 0 0 0 0 0 0 0 0 0 0 0 0 0 0 0 0 0 0 0 0 0 0 0 0 0 0 0 0 0 0
0 0 0 0 0 0 0 0 0 0 0 0 0 0 0 0 0 0 0 0 0 0 0 0 0 0 0 0 0 0 0 0 0 0 0 0 0 0 0 0 0 0 0 0 0 0 0 0 0
0 0 0 0 0 0 0 0 0 0 0 0 0 0 0 0 0 0 0 0 0 0 0 0 0 0 0 0 0 0 0 0 0 0 0 0 0 0 0 0 0 0 0 0 0 0 0 0 0

GFSSGP_con_sbcape_120.txt.gz
CAPE
0 0 0 0 0 0 0 0 0 0 0 0 0 0 0 0 0 0 0 0 17 360 1082 1337 2035 2215 2069 1970 1821 1744 2064 1869 1716 1559 1358 1380 1283 723 232 33 225 271 63 0 84 532 626 536 483
0 0 0 0 0 0 0 0 0 0 0 0 0 0 0 0 0 0 0 0 38 410 844 1206 1780 1682 1824 1888 1940 1676 1803 1798 1689 1628 1447 1292 1193 1075 540 211 68 188 304 399 207 619 652 382 271
0 0 0 0 0 0 0 0 0 0 0 0 0 0 0 0 0 0 0 0 21 286 727 998 1205 1377 1414 1798 1878 1861 1739 1745 1762 1716 1657 1483 1345 1165 1013 648 299 434 669 943 1081 898 632 339 296
0 0 0 0 0 0 0 0 0 0 0 0 0 0 0 0 0 0 0 0 0 0 411 1102 829 886 1140 1183 1243 1300 1174 1515 1592 1732 1552 1498 1306 1221 1256 1182 1083 695 657 916 984 993 585 586 358
0 0 0 0 0 0 0 0 0 0 0 0 0 0 0 0 0 0 0 0 0 0 0 799 1127 902 1089 1145 1123 1172 1329 1436 1480 1454 1258 1226 1162 1147 1147 1391 1218 1055 935 944 955 956 611 387 303
0 0 0 0 0 0 0 0 0 0 0 0 0 0 0 0 0 0 0 0 0 0 0 0 124 839 996 1066 1162 1276 1401 1483 1527 1512 1515 1331 1328 1389 1528 1534 1446 1477 959 886 1089 1128 733 418 155
0 0 0 0 0 0 0 0 0 0 0 0 0 0 0 0 0 0 0 0 0 0 0 0 0 0 53 551 863 1110 1267 1435 1417 1386 1483 1434 1287 1402 1409 1554 1558 1428 1496 1455 1237 1274 1181 606 300
0 0 0 0 0 0 0 0 0 0 0 0 0 0 0 0 0 0 0 0 0 0 0 0 0 0 0 0 47 493 828 906 998 1104 994 1002 801 666 1035 1104 1099 1442 1307 1036 1186 1114 1111 711 573
0 0 0 0 0 0 0 0 0 0 0 0 0 0 0 0 0 0 0 0 0 0 0 0 0 0 0 0 0 0 94 400 574 703 686 651 469 434 394 392 533 730 1130 1132 981 1015 954 555 300
0 0 0 0 0 0 0 0 0 0 0 0 0 0 0 0 0 0 0 0 0 0 0 0 0 0 0 0 0 0 0 37 61 282 457 387 357 299 392 267 169 303 596 819 1079 1056 959 413 30
0 0 0 0 0 0 0 0 0 0 0 0 0 0 0 0 0 0 0 0 0 0 0 0 0 0 0 0 0 0 0 0 0 36 86 115 260 163 156 83 34 29 72 212 524 681 629 80 8
0 0 0 0 0 0 0 0 0 0 0 0 0 0 0 0 0 0 0 0 0 0 0 0 0 0 0 0 0 0 0 0 0 0 84 55 0 40 95 0 0 12 83 128 168 206 286 47 8
0 0 0 0 0 0 0 0 0 0 0 0 0 0 0 0 0 0 0 0 0 0 0 0 0 0 0 0 0 0 0 0 0 0 0 79 120 58 0 3 9 8 86 176 140 78 74 54 20
0 0 0 0 0 0 0 0 0 0 0 0 0 0 0 0 0 0 0 0 0 0 0 0 0 0 0 0 0 0 0 0 0 0 0 0 8 7 20 28 23 140 176 215 224 138 84 73 38
0 0 0 0 0 0 0 0 0 0 0 0 0 0 0 0 0 0 0 0 0 0 0 0 0 0 0 0 0 0 0 0 0 0 0 0 0 0 0 1 1 21 109 187 213 170 122 134 73
0 0 0 0 0 0 0 0 0 0 0 0 0 0 0 0 0 0 0 0 0 0 0 0 0 0 0 0 0 0 0 0 0 0 0 0 0 0 0 0 8 38 48 169 194 160 100 221 264
0 0 0 0 0 0 0 0 0 0 0 0 0 0 0 0 0 0 0 0 0 0 0 0 0 0 0 0 0 0 0 0 0 0 0 0 0 0 0 0 18 22 55 83 177 139 204 235 170
0 0 0 0 0 0 0 0 0 0 0 0 0 0 0 0 0 0 0 0 0 0 0 0 0 0 0 0 0 0 0 0 0 0 0 0 13 107 37 13 20 31 0 18 42 90 54 48 45
0 0 0 0 0 0 0 0 0 0 0 0 0 0 0 0 0 0 0 0 0 0 0 0 0 0 0 0 0 0 0 0 0 0 0 47 43 22 21 30 60 19 34 9 14 23 43 29 13
0 0 0 0 0 0 0 0 0 0 0 0 0 0 0 0 0 0 0 0 0 0 0 0 1 0 0 1 0 0 0 0 0 0 0 0 0 4 4 0 87 233 80 1 0 10 43 12 22
0 0 0 0 0 0 0 0 0 0 0 0 0 0 0 0 0 0 0 0 0 0 0 0 0 0 0 5 0 0 0 0 0 0 0 1 2 2 1 0 52 278 178 47 0 1 67 81 168
0 0 0 0 0 0 0 0 0 0 0 0 0 0 0 0 0 0 0 0 0 0 0 0 0 0 2 4 0 2 1 0 5 0 4 10 4 5 5 3 0 0 296 226 0 26 37 33 63
0 0 0 0 0 0 0 0 0 0 0 0 0 0 0 0 0 0 0 0 0 0 0 0 0 0 0 1 1 4 4 8 7 6 5 5 5 7 7 3 0 1 0 0 135 91 49 56 30
0 0 0 0 0 0 0 0 0 0 0 0 0 0 0 0 0 0 0 0 0 0 0 0 0 0 0 0 0 1 3 4 2 3 4 5 2 3 6 3 5 4 1 0 3 19 2 1 1
0 0 0 0 0 0 0 0 0 0 0 0 0 0 0 0 0 0 0 0 0 0 0 0 0 0 0 0 0 0 0 0 0 0 3 1 0 0 0 0 0 0 1 3 0 1 8 2 1
0 0 0 0 0 0 0 0 0 0 0 0 0 0 0 0 0 0 0 0 0 0 0 0 0 0 0 0 0 0 0 0 0 0 0 0 0 0 0 0 0 0 0 0 3 4 11 14 3
0 0 0 0 0 0 0 0 0 0 0 0 0 0 0 0 0 0 0 0 0 0 0 0 0 0 0 0 0 0 0 0 0 0 0 0 0 0 0 0 0 0 0 0 0 0 0 0 0
0 0 0 0 0 0 0 0 0 0 0 0 0 0 0 0 0 0 0 0 0 0 0 0 0 0 0 0 0 0 0 0 0 0 0 0 0 0 0 0 0 0 0 0 0 0 0 0 0
0 0 0 0 0 0 0 0 0 0 0 0 0 0 0 0 0 0 0 0 0 0 0 0 0 0 0 0 0 0 0 0 0 0 0 0 0 0 0 0 0 0 0 0 0 0 0 0 0
0 0 0 0 0 0 0 0 0 0 0 0 0 0 0 0 0 0 0 0 0 0 0 0 0 0 0 0 0 0 0 0 0 0 0 0 0 0 0 0 0 0 0 0 0 0 0 0 0

GFSSGP_con_sbcape_123.txt.gz
CAPE
0 0 0 0 0 0 0 0 0 0 0 0 0 0 0 0 0 0 0 0 0 80 838 1289 1716 1696 1828 1749 1592 1742 1810 1614 1407 1296 1413 1382 1196 625 167 55 299 267 19 1 177 541 443 545 511
0 0 0 0 0 0 0 0 0 0 0 0 0 0 0 0 0 0 0 0 0 150 573 949 1420 1230 1382 1630 1561 1575 1717 1625 1533 1476 1387 1375 1214 1034 539 147 52 414 327 194 131 481 618 499 387
0 0 0 0 0 0 0 0 0 0 0 0 0 0 0 0 0 0 0 0 0 0 439 1019 1095 1074 1104 1310 1391 1460 1511 1565 1705 1641 1596 1453 1376 1165 1110 717 225 453 810 854 1012 765 710 401 364
0 0 0 0 0 0 0 0 0 0 0 0 0 0 0 0 0 0 0 0 0 0 0 807 874 590 641 1017 1155 1152 1159 1183 1534 1608 1534 1500 1400 1305 1323 1249 1278 828 733 813 907 960 795 671 397
0 0 0 0 0 0 0 0 0 0 0 0 0 0 0 0 0 0 0 0 0 0 0 0 390 824 773 749 766 1107 1027 1260 1482 1549 1240 1304 1179 1152 1267 1446 1350 1306 751 668 1009 967 937 587 321
0 0 0 0 0 0 0 0 0 0 0 0 0 0 0 0 0 0 0 0 0 0 0 0 0 0 2 316 1122 1204 1154 1226 1305 1499 1397 1232 1359 1357 1656 1606 1499 1293 1008 711 1017 1112 1060 758 364
0 0 0 0 0 0 0 0 0 0 0 0 0 0 0 0 0 0 0 0 0 0 0 0 0 0 0 0 6 107 485 1178 1241 1251 1267 1185 1316 1537 1355 1559 1615 1433 1354 1334 1354 1509 1234 1181 721
0 0 0 0 0 0 0 0 0 0 0 0 0 0 0 0 0 0 0 0 0 0 0 0 0 0 0 0 0 0 0 226 643 797 732 735 723 746 1051 1165 1184 1510 1558 1479 1270 1359 1477 1115 628
0 0 0 0 0 0 0 0 0 0 0 0 0 0 0 0 0 0 0 0 0 0 0 0 0 0 0 0 0 0 0 0 7 36 93 0 207 374 380 346 445 708 1122 1358 1259 1219 1235 874 383
0 0 0 0 0 0 0 0 0 0 0 0 0 0 0 0 0 0 0 0 0 0 0 0 0 0 0 0 0 0 0 0 0 0 0 19 79 127 304 301 215 249 599 713 1139 1235 977 609 146
0 0 0 0 0 0 0 0 0 0 0 0 0 0 0 0 0 0 0 0 0 0 0 0 0 0 0 0 0 0 0 0 0 0 0 0 17 104 98 111 107 38 58 72 239 552 704 428 85
0 0 0 0 0 0 0 0 0 0 0 0 0 0 0 0 0 0 0 0 0 0 0 0 0 0 0 0 0 0 0 0 0 0 0 0 0 0 3 55 60 7 15 44 95 196 296 308 103
0 0 0 0 0 0 0 0 0 0 0 0 0 0 0 0 0 0 0 0 0 0 0 0 0 0 0 0 0 0 0 0 0 0 0 0 0 0 3 0 29 24 1 47 145 174 170 220 122
0 0 0 0 0 0 0 0 0 0 0 0 0 0 0 0 0 0 0 0 0 0 0 0 0 0 0 0 0 0 0 0 0 0 0 0 0 0 0 0 0 20 104 172 199 205 155 135 101
0 0 0 0 0 0 0 0 0 0 0 0 0 0 0 0 0 0 0 0 0 0 0 0 0 0 0 0 0 0 0 0 0 0 0 0 0 0 0 0 0 0 0 52 114 102 96 131 104
0 0 0 0 0 0 0 0 0 0 0 0 0 0 0 0 0 0 0 0 0 0 0 0 0 0 0 0 0 0 0 0 0 0 0 0 0 0 0 0 0 0 12 10 202 315 266 115 109
0 0 0 0 0 0 0 0 0 0 0 0 0 0 0 0 0 0 0 0 0 0 0 0 0 0 0 0 0 0 0 0 0 0 0 0 0 0 0 11 36 27 14 21 110 290 315 184 149
0 0 0 0 0 0 0 0 0 0 0 0 0 0 0 0 0 0 0 0 0 0 0 0 0 0 0 0 1 0 0 0 0 0 0 0 0 0 0 0 0 19 38 5 7 140 241 273 245
0 0 0 0 0 0 0 0 0 0 0 0 0 0 0 0 0 0 0 0 0 0 0 0 0 0 0 0 1 0 0 0 0 0 0 1 1 1 1 1 1 3 20 1 21 101 187 230 49
0 0 0 0 0 0 0 0 0 0 0 0 0 0 0 0 0 0 0 0 0 0 0 0 0 0 1 6 2 3 0 0 0 0 1 2 1 3 0 1 4 9 136 14 87 73 92 51 7
0 0 0 0 0 0 0 0 0 0 0 0 0 0 0 0 0 0 0 0 0 0 0 0 0 0 0 0 0 0 0 1 4 2 5 7 1 2 1 4 4 6 10 150 157 168 191 205 82
0 0 0 0 0 0 0 0 0 0 0 0 0 0 0 0 0 0 0 0 0 0 0 0 0 0 0 0 1 0 2 3 4 3 4 7 0 0 0 2 3 6 10 139 259 284 321 361 264
0 0 0 0 0 0 0 0 0 0 0 0 0 0 0 0 0 0 0 0 0 0 0 0 0 0 0 0 0 0 0 1 0 0 0 0 0 0 0 0 2 7 9 5 2 6 132 286 276
0 0 0 0 0 0 0 0 0 0 0 0 0 0 0 0 0 0 0 0 0 0 0 0 0 0 0 0 0 0 0 0 0 0 0 0 0 0 0 0 0 0 5 8 2 1 0 1 0
0 0 0 0 0 0 0 0 0 0 0 0 0 0 0 0 0 0 0 0 0 0 0 0 0 0 0 0 0 0 0 0 0 0 0 0 0 0 0 0 0 0 0 1 3 1 1 1 1
0 0 0 0 0 0 0 0 0 0 0 0 0 0 0 0 0 0 0 0 0 0 0 0 0 0 0 0 0 0 0 0 0 0 0 0 0 0 0 0 0 0 3 0 0 0 0 0 3
0 0 0 0 0 0 0 0 0 0 0 0 0 0 0 0 0 0 0 0 0 0 0 0 0 0 0 0 0 0 0 0 0 0 0 0 0 0 0 0 0 0 0 0 0 0 0 0 0
0 0 0 0 0 0 0 0 0 0 0 0 0 0 0 0 0 0 0 0 0 0 0 0 0 0 0 0 0 0 0 0 0 0 0 0 0 0 0 0 0 0 0 0 0 0 0 0 0
0 0 0 0 0 0 0 0 0 0 0 0 0 0 0 0 0 0 0 0 0 0 0 0 0 0 0 0 0 0 0 0 0 0 0 0 0 0 0 0 0 0 0 0 0 0 0 0 0
0 0 0 0 0 0 0 0 0 0 0 0 0 0 0 0 0 0 0 0 0 0 0 0 0 0 0 0 0 0 0 0 0 0 0 0 0 0 0 0 0 0 0 0 0 0 0 0 0